<?xml version="1.0" encoding="UTF-8" standalone="no" ?>
<gpx xmlns="http://www.topografix.com/GPX/1/1" creator="CompeGPS" version="1.1" xmlns:xsi="http://www.w3.org/2001/XMLSchema-instance" xsi:schemaLocation="http://www.topografix.com/GPX/1/1 http://www.topografix.com/GPX/1/1/gpx.xsd http://www.garmin.com/xmlschemas/GpxExtensions/v3 http://www.garmin.com/xmlschemas/GpxExtensionsv3.xsd http://www.garmin.com/xmlschemas/TrackPointExtension/v1 http://www.garmin.com/xmlschemas/TrackPointExtensionv1.xsd" xmlns:gpxtpx="http://www.garmin.com/xmlschemas/TrackPointExtension/v1">
  <metadata>
    <link href="http://www.compegps.com">
      <text>CompeGPS TEAM, SL</text>
    </link>
    <time>2020-06-03T13:43:06Z</time>
    <bounds maxlat="42.767600" maxlon="0.577304" minlat="42.727285" minlon="0.515736"/>
  </metadata>
    <wpt lat="42.763467" lon="0.576579">
    <ele>1804.2</ele>
    <time>2020-06-03T12:26:17Z</time>
    <name>Table d orientation</name>
    <desc></desc>
    <sym>Waypoint</sym>
  </wpt>
  <wpt lat="42.760744" lon="0.559150">
    <ele>1831.0</ele>
    <time>2020-06-03T12:27:37Z</time>
    <name>igne haute tension</name>
    <desc></desc>
    <sym>Waypoint</sym>
  </wpt>
  <wpt lat="42.757241" lon="0.538030">
    <ele>2318.5</ele>
    <time>2020-06-03T13:43:37Z</time>
    <name>Pic de Cecire</name>
    <desc></desc>
    <sym>Waypoint</sym>
  </wpt>
  <wpt lat="42.746863" lon="0.528347">
    <ele>2382.9</ele>
    <time>2020-06-03T13:44:11Z</time>
    <name>Pic de Subescale</name>
    <desc></desc>
    <sym>Waypoint</sym>
  </wpt>
  <wpt lat="42.743426" lon="0.522230">
    <ele>2364.7</ele>
    <time>2020-06-03T13:44:24Z</time>
    <name>Pic de Coume Nere</name>
    <desc></desc>
    <sym>Waypoint</sym>
  </wpt>
  <wpt lat="42.733486" lon="0.515766">
    <ele>2593.3</ele>
    <time>2020-06-03T13:44:38Z</time>
    <name>Cap de Hounts-Secs</name>
    <desc></desc>
    <sym>Waypoint</sym>
  </wpt>
  <wpt lat="42.729823" lon="0.528953">
    <ele>2476.3</ele>
    <time>2020-06-03T13:44:59Z</time>
    <name>Pic Sarnes</name>
    <desc></desc>
    <sym>Waypoint</sym>
  </wpt>
  <wpt lat="42.727285" lon="0.535071">
    <ele>2261.0</ele>
    <time>2020-06-03T13:45:14Z</time>
    <name>Fin de la crete</name>
    <desc></desc>
    <sym>Waypoint</sym>
  </wpt>
  <wpt lat="42.737173" lon="0.528728">
    <ele>2138.7</ele>
    <time>2020-06-03T13:45:30Z</time>
    <name>Cabane de Coume Nere</name>
    <desc></desc>
    <sym>Waypoint</sym>
  </wpt>
  <wpt lat="42.750588" lon="0.530620">
    <ele>2267.8</ele>
    <time>2020-06-03T13:45:54Z</time>
    <name>Intersection GR10</name>
    <desc></desc>
    <sym>Waypoint</sym>
  </wpt>
  <wpt lat="42.752383" lon="0.550127">
    <ele>1761.0</ele>
    <time>2020-06-03T13:46:36Z</time>
    <name>Ruisseau de Betet</name>
    <desc></desc>
    <sym>Waypoint</sym>
  </wpt>
<trk>
    <name>cecire_sarnes</name>
    <userMyTwoNav></userMyTwoNav>
    <serialNumber></serialNumber>
    <trkseg>
      <trkpt lat="42.767586" lon="0.577302">
        <ele>1796.5</ele>
        <time>2020-06-02T07:12:21Z</time>
      </trkpt>
      <trkpt lat="42.767577" lon="0.577187">
        <ele>1794.9</ele>
        <time>2020-06-02T07:19:23Z</time>
      </trkpt>
      <trkpt lat="42.767547" lon="0.577072">
        <ele>1794.9</ele>
        <time>2020-06-02T07:19:34Z</time>
      </trkpt>
      <trkpt lat="42.767498" lon="0.576934">
        <ele>1794.9</ele>
        <time>2020-06-02T07:19:44Z</time>
      </trkpt>
      <trkpt lat="42.767534" lon="0.576811">
        <ele>1794.9</ele>
        <time>2020-06-02T07:19:52Z</time>
      </trkpt>
      <trkpt lat="42.767486" lon="0.576703">
        <ele>1794.8</ele>
        <time>2020-06-02T07:20:08Z</time>
      </trkpt>
      <trkpt lat="42.767391" lon="0.576629">
        <ele>1791.3</ele>
        <time>2020-06-02T07:20:20Z</time>
      </trkpt>
      <trkpt lat="42.767334" lon="0.576523">
        <ele>1790.5</ele>
        <time>2020-06-02T07:20:27Z</time>
      </trkpt>
      <trkpt lat="42.767266" lon="0.576433">
        <ele>1789.6</ele>
        <time>2020-06-02T07:20:35Z</time>
      </trkpt>
      <trkpt lat="42.767233" lon="0.576302">
        <ele>1787.8</ele>
        <time>2020-06-02T07:20:43Z</time>
      </trkpt>
      <trkpt lat="42.767181" lon="0.576191">
        <ele>1787.0</ele>
        <time>2020-06-02T07:20:50Z</time>
      </trkpt>
      <trkpt lat="42.767087" lon="0.576183">
        <ele>1786.2</ele>
        <time>2020-06-02T07:20:57Z</time>
      </trkpt>
      <trkpt lat="42.766990" lon="0.576226">
        <ele>1785.3</ele>
        <time>2020-06-02T07:21:04Z</time>
      </trkpt>
      <trkpt lat="42.766906" lon="0.576295">
        <ele>1785.3</ele>
        <time>2020-06-02T07:21:11Z</time>
      </trkpt>
      <trkpt lat="42.766806" lon="0.576329">
        <ele>1784.4</ele>
        <time>2020-06-02T07:21:18Z</time>
      </trkpt>
      <trkpt lat="42.766699" lon="0.576338">
        <ele>1783.6</ele>
        <time>2020-06-02T07:21:25Z</time>
      </trkpt>
      <trkpt lat="42.766609" lon="0.576316">
        <ele>1782.6</ele>
        <time>2020-06-02T07:21:32Z</time>
      </trkpt>
      <trkpt lat="42.766569" lon="0.576205">
        <ele>1781.8</ele>
        <time>2020-06-02T07:21:40Z</time>
      </trkpt>
      <trkpt lat="42.766498" lon="0.576132">
        <ele>1780.2</ele>
        <time>2020-06-02T07:21:47Z</time>
      </trkpt>
      <trkpt lat="42.766399" lon="0.576096">
        <ele>1779.3</ele>
        <time>2020-06-02T07:21:54Z</time>
      </trkpt>
      <trkpt lat="42.766305" lon="0.576060">
        <ele>1779.4</ele>
        <time>2020-06-02T07:22:01Z</time>
      </trkpt>
      <trkpt lat="42.766210" lon="0.576033">
        <ele>1779.4</ele>
        <time>2020-06-02T07:22:08Z</time>
      </trkpt>
      <trkpt lat="42.766112" lon="0.576002">
        <ele>1781.8</ele>
        <time>2020-06-02T07:22:16Z</time>
      </trkpt>
      <trkpt lat="42.766022" lon="0.575986">
        <ele>1783.0</ele>
        <time>2020-06-02T07:22:24Z</time>
      </trkpt>
      <trkpt lat="42.765926" lon="0.575979">
        <ele>1783.7</ele>
        <time>2020-06-02T07:22:32Z</time>
      </trkpt>
      <trkpt lat="42.765827" lon="0.575974">
        <ele>1784.5</ele>
        <time>2020-06-02T07:22:40Z</time>
      </trkpt>
      <trkpt lat="42.765732" lon="0.575987">
        <ele>1785.3</ele>
        <time>2020-06-02T07:22:48Z</time>
      </trkpt>
      <trkpt lat="42.765649" lon="0.576036">
        <ele>1786.2</ele>
        <time>2020-06-02T07:22:56Z</time>
      </trkpt>
      <trkpt lat="42.765558" lon="0.576061">
        <ele>1788.1</ele>
        <time>2020-06-02T07:23:05Z</time>
      </trkpt>
      <trkpt lat="42.765470" lon="0.576090">
        <ele>1788.7</ele>
        <time>2020-06-02T07:23:13Z</time>
      </trkpt>
      <trkpt lat="42.765371" lon="0.576094">
        <ele>1789.5</ele>
        <time>2020-06-02T07:23:21Z</time>
      </trkpt>
      <trkpt lat="42.765266" lon="0.576097">
        <ele>1790.3</ele>
        <time>2020-06-02T07:23:29Z</time>
      </trkpt>
      <trkpt lat="42.765172" lon="0.576117">
        <ele>1790.3</ele>
        <time>2020-06-02T07:23:36Z</time>
      </trkpt>
      <trkpt lat="42.765083" lon="0.576140">
        <ele>1791.0</ele>
        <time>2020-06-02T07:23:43Z</time>
      </trkpt>
      <trkpt lat="42.764986" lon="0.576167">
        <ele>1791.8</ele>
        <time>2020-06-02T07:23:51Z</time>
      </trkpt>
      <trkpt lat="42.764888" lon="0.576188">
        <ele>1792.6</ele>
        <time>2020-06-02T07:23:59Z</time>
      </trkpt>
      <trkpt lat="42.764797" lon="0.576190">
        <ele>1793.5</ele>
        <time>2020-06-02T07:24:07Z</time>
      </trkpt>
      <trkpt lat="42.764695" lon="0.576194">
        <ele>1794.3</ele>
        <time>2020-06-02T07:24:15Z</time>
      </trkpt>
      <trkpt lat="42.764595" lon="0.576188">
        <ele>1795.1</ele>
        <time>2020-06-02T07:24:23Z</time>
      </trkpt>
      <trkpt lat="42.764507" lon="0.576164">
        <ele>1795.8</ele>
        <time>2020-06-02T07:24:31Z</time>
      </trkpt>
      <trkpt lat="42.764415" lon="0.576122">
        <ele>1796.8</ele>
        <time>2020-06-02T07:24:39Z</time>
      </trkpt>
      <trkpt lat="42.764324" lon="0.576087">
        <ele>1797.6</ele>
        <time>2020-06-02T07:24:47Z</time>
      </trkpt>
      <trkpt lat="42.764232" lon="0.576048">
        <ele>1798.6</ele>
        <time>2020-06-02T07:24:55Z</time>
      </trkpt>
      <trkpt lat="42.764154" lon="0.575985">
        <ele>1799.4</ele>
        <time>2020-06-02T07:25:02Z</time>
      </trkpt>
      <trkpt lat="42.764073" lon="0.575925">
        <ele>1800.2</ele>
        <time>2020-06-02T07:25:09Z</time>
      </trkpt>
      <trkpt lat="42.763995" lon="0.575844">
        <ele>1801.0</ele>
        <time>2020-06-02T07:25:17Z</time>
      </trkpt>
      <trkpt lat="42.763925" lon="0.575748">
        <ele>1801.8</ele>
        <time>2020-06-02T07:25:26Z</time>
      </trkpt>
      <trkpt lat="42.763870" lon="0.575632">
        <ele>1802.6</ele>
        <time>2020-06-02T07:25:35Z</time>
      </trkpt>
      <trkpt lat="42.763823" lon="0.575513">
        <ele>1804.5</ele>
        <time>2020-06-02T07:25:43Z</time>
      </trkpt>
      <trkpt lat="42.763782" lon="0.575393">
        <ele>1805.5</ele>
        <time>2020-06-02T07:25:52Z</time>
      </trkpt>
      <trkpt lat="42.763738" lon="0.575280">
        <ele>1806.4</ele>
        <time>2020-06-02T07:26:00Z</time>
      </trkpt>
      <trkpt lat="42.763689" lon="0.575169">
        <ele>1807.2</ele>
        <time>2020-06-02T07:26:08Z</time>
      </trkpt>
      <trkpt lat="42.763647" lon="0.575036">
        <ele>1808.7</ele>
        <time>2020-06-02T07:26:17Z</time>
      </trkpt>
      <trkpt lat="42.763615" lon="0.574894">
        <ele>1809.4</ele>
        <time>2020-06-02T07:26:26Z</time>
      </trkpt>
      <trkpt lat="42.763583" lon="0.574777">
        <ele>1810.2</ele>
        <time>2020-06-02T07:26:34Z</time>
      </trkpt>
      <trkpt lat="42.763540" lon="0.574655">
        <ele>1811.7</ele>
        <time>2020-06-02T07:26:42Z</time>
      </trkpt>
      <trkpt lat="42.763493" lon="0.574538">
        <ele>1811.7</ele>
        <time>2020-06-02T07:26:49Z</time>
      </trkpt>
      <trkpt lat="42.763448" lon="0.574420">
        <ele>1811.6</ele>
        <time>2020-06-02T07:26:57Z</time>
      </trkpt>
      <trkpt lat="42.763406" lon="0.574305">
        <ele>1812.3</ele>
        <time>2020-06-02T07:27:40Z</time>
      </trkpt>
      <trkpt lat="42.763338" lon="0.574224">
        <ele>1812.2</ele>
        <time>2020-06-02T07:27:48Z</time>
      </trkpt>
      <trkpt lat="42.763291" lon="0.574100">
        <ele>1812.2</ele>
        <time>2020-06-02T07:28:01Z</time>
      </trkpt>
      <trkpt lat="42.763283" lon="0.573962">
        <ele>1812.2</ele>
        <time>2020-06-02T07:28:09Z</time>
      </trkpt>
      <trkpt lat="42.763257" lon="0.573841">
        <ele>1812.1</ele>
        <time>2020-06-02T07:28:18Z</time>
      </trkpt>
      <trkpt lat="42.763246" lon="0.573708">
        <ele>1812.9</ele>
        <time>2020-06-02T07:28:31Z</time>
      </trkpt>
      <trkpt lat="42.763236" lon="0.573565">
        <ele>1812.9</ele>
        <time>2020-06-02T07:28:40Z</time>
      </trkpt>
      <trkpt lat="42.763229" lon="0.573432">
        <ele>1812.9</ele>
        <time>2020-06-02T07:28:48Z</time>
      </trkpt>
      <trkpt lat="42.763221" lon="0.573310">
        <ele>1813.6</ele>
        <time>2020-06-02T07:28:55Z</time>
      </trkpt>
      <trkpt lat="42.763211" lon="0.573181">
        <ele>1813.6</ele>
        <time>2020-06-02T07:29:02Z</time>
      </trkpt>
      <trkpt lat="42.763206" lon="0.573048">
        <ele>1813.6</ele>
        <time>2020-06-02T07:29:10Z</time>
      </trkpt>
      <trkpt lat="42.763196" lon="0.572915">
        <ele>1814.4</ele>
        <time>2020-06-02T07:29:18Z</time>
      </trkpt>
      <trkpt lat="42.763191" lon="0.572781">
        <ele>1814.4</ele>
        <time>2020-06-02T07:29:26Z</time>
      </trkpt>
      <trkpt lat="42.763181" lon="0.572660">
        <ele>1815.3</ele>
        <time>2020-06-02T07:29:33Z</time>
      </trkpt>
      <trkpt lat="42.763179" lon="0.572534">
        <ele>1815.3</ele>
        <time>2020-06-02T07:29:40Z</time>
      </trkpt>
      <trkpt lat="42.763176" lon="0.572411">
        <ele>1815.2</ele>
        <time>2020-06-02T07:29:47Z</time>
      </trkpt>
      <trkpt lat="42.763169" lon="0.572286">
        <ele>1815.2</ele>
        <time>2020-06-02T07:29:54Z</time>
      </trkpt>
      <trkpt lat="42.763171" lon="0.572152">
        <ele>1816.1</ele>
        <time>2020-06-02T07:30:02Z</time>
      </trkpt>
      <trkpt lat="42.763172" lon="0.572027">
        <ele>1816.9</ele>
        <time>2020-06-02T07:30:09Z</time>
      </trkpt>
      <trkpt lat="42.763183" lon="0.571904">
        <ele>1817.8</ele>
        <time>2020-06-02T07:30:16Z</time>
      </trkpt>
      <trkpt lat="42.763178" lon="0.571776">
        <ele>1817.8</ele>
        <time>2020-06-02T07:30:23Z</time>
      </trkpt>
      <trkpt lat="42.763185" lon="0.571645">
        <ele>1818.7</ele>
        <time>2020-06-02T07:30:31Z</time>
      </trkpt>
      <trkpt lat="42.763197" lon="0.571511">
        <ele>1819.5</ele>
        <time>2020-06-02T07:30:41Z</time>
      </trkpt>
      <trkpt lat="42.763196" lon="0.571387">
        <ele>1820.2</ele>
        <time>2020-06-02T07:30:49Z</time>
      </trkpt>
      <trkpt lat="42.763192" lon="0.571262">
        <ele>1821.1</ele>
        <time>2020-06-02T07:30:56Z</time>
      </trkpt>
      <trkpt lat="42.763186" lon="0.571134">
        <ele>1821.9</ele>
        <time>2020-06-02T07:31:03Z</time>
      </trkpt>
      <trkpt lat="42.763176" lon="0.571003">
        <ele>1822.7</ele>
        <time>2020-06-02T07:31:10Z</time>
      </trkpt>
      <trkpt lat="42.763171" lon="0.570871">
        <ele>1823.6</ele>
        <time>2020-06-02T07:31:17Z</time>
      </trkpt>
      <trkpt lat="42.763160" lon="0.570742">
        <ele>1824.4</ele>
        <time>2020-06-02T07:31:24Z</time>
      </trkpt>
      <trkpt lat="42.763150" lon="0.570612">
        <ele>1825.2</ele>
        <time>2020-06-02T07:31:31Z</time>
      </trkpt>
      <trkpt lat="42.763138" lon="0.570487">
        <ele>1825.2</ele>
        <time>2020-06-02T07:31:38Z</time>
      </trkpt>
      <trkpt lat="42.763131" lon="0.570348">
        <ele>1825.1</ele>
        <time>2020-06-02T07:31:46Z</time>
      </trkpt>
      <trkpt lat="42.763112" lon="0.570223">
        <ele>1822.8</ele>
        <time>2020-06-02T07:31:53Z</time>
      </trkpt>
      <trkpt lat="42.763087" lon="0.570088">
        <ele>1822.8</ele>
        <time>2020-06-02T07:32:00Z</time>
      </trkpt>
      <trkpt lat="42.763055" lon="0.569957">
        <ele>1822.0</ele>
        <time>2020-06-02T07:32:07Z</time>
      </trkpt>
      <trkpt lat="42.763019" lon="0.569836">
        <ele>1822.0</ele>
        <time>2020-06-02T07:32:14Z</time>
      </trkpt>
      <trkpt lat="42.762979" lon="0.569720">
        <ele>1822.0</ele>
        <time>2020-06-02T07:32:21Z</time>
      </trkpt>
      <trkpt lat="42.762938" lon="0.569607">
        <ele>1822.0</ele>
        <time>2020-06-02T07:32:28Z</time>
      </trkpt>
      <trkpt lat="42.762902" lon="0.569492">
        <ele>1822.0</ele>
        <time>2020-06-02T07:32:35Z</time>
      </trkpt>
      <trkpt lat="42.762871" lon="0.569360">
        <ele>1822.0</ele>
        <time>2020-06-02T07:32:43Z</time>
      </trkpt>
      <trkpt lat="42.762867" lon="0.569224">
        <ele>1824.4</ele>
        <time>2020-06-02T07:32:51Z</time>
      </trkpt>
      <trkpt lat="42.762864" lon="0.569091">
        <ele>1825.4</ele>
        <time>2020-06-02T07:32:59Z</time>
      </trkpt>
      <trkpt lat="42.762850" lon="0.568967">
        <ele>1826.3</ele>
        <time>2020-06-02T07:33:08Z</time>
      </trkpt>
      <trkpt lat="42.762827" lon="0.568846">
        <ele>1827.1</ele>
        <time>2020-06-02T07:33:16Z</time>
      </trkpt>
      <trkpt lat="42.762795" lon="0.568724">
        <ele>1828.8</ele>
        <time>2020-06-02T07:33:24Z</time>
      </trkpt>
      <trkpt lat="42.762763" lon="0.568608">
        <ele>1829.5</ele>
        <time>2020-06-02T07:33:32Z</time>
      </trkpt>
      <trkpt lat="42.762741" lon="0.568526">
        <ele>1831.1</ele>
        <time>2020-06-02T07:34:20Z</time>
      </trkpt>
      <trkpt lat="42.762719" lon="0.568414">
        <ele>1831.9</ele>
        <time>2020-06-02T07:34:34Z</time>
      </trkpt>
      <trkpt lat="42.762696" lon="0.568289">
        <ele>1832.8</ele>
        <time>2020-06-02T07:34:43Z</time>
      </trkpt>
      <trkpt lat="42.762683" lon="0.568167">
        <ele>1833.6</ele>
        <time>2020-06-02T07:34:51Z</time>
      </trkpt>
      <trkpt lat="42.762666" lon="0.568041">
        <ele>1833.6</ele>
        <time>2020-06-02T07:34:59Z</time>
      </trkpt>
      <trkpt lat="42.762655" lon="0.567907">
        <ele>1834.4</ele>
        <time>2020-06-02T07:35:07Z</time>
      </trkpt>
      <trkpt lat="42.762641" lon="0.567776">
        <ele>1835.2</ele>
        <time>2020-06-02T07:35:15Z</time>
      </trkpt>
      <trkpt lat="42.762626" lon="0.567646">
        <ele>1836.0</ele>
        <time>2020-06-02T07:35:22Z</time>
      </trkpt>
      <trkpt lat="42.762615" lon="0.567519">
        <ele>1836.8</ele>
        <time>2020-06-02T07:35:29Z</time>
      </trkpt>
      <trkpt lat="42.762603" lon="0.567387">
        <ele>1837.7</ele>
        <time>2020-06-02T07:35:36Z</time>
      </trkpt>
      <trkpt lat="42.762588" lon="0.567255">
        <ele>1837.7</ele>
        <time>2020-06-02T07:35:43Z</time>
      </trkpt>
      <trkpt lat="42.762573" lon="0.567122">
        <ele>1837.6</ele>
        <time>2020-06-02T07:35:50Z</time>
      </trkpt>
      <trkpt lat="42.762555" lon="0.566991">
        <ele>1837.6</ele>
        <time>2020-06-02T07:35:57Z</time>
      </trkpt>
      <trkpt lat="42.762541" lon="0.566867">
        <ele>1837.5</ele>
        <time>2020-06-02T07:36:04Z</time>
      </trkpt>
      <trkpt lat="42.762522" lon="0.566738">
        <ele>1837.5</ele>
        <time>2020-06-02T07:36:11Z</time>
      </trkpt>
      <trkpt lat="42.762518" lon="0.566606">
        <ele>1835.3</ele>
        <time>2020-06-02T07:36:18Z</time>
      </trkpt>
      <trkpt lat="42.762506" lon="0.566475">
        <ele>1835.3</ele>
        <time>2020-06-02T07:36:25Z</time>
      </trkpt>
      <trkpt lat="42.762492" lon="0.566342">
        <ele>1835.3</ele>
        <time>2020-06-02T07:36:32Z</time>
      </trkpt>
      <trkpt lat="42.762473" lon="0.566211">
        <ele>1835.3</ele>
        <time>2020-06-02T07:36:39Z</time>
      </trkpt>
      <trkpt lat="42.762455" lon="0.566084">
        <ele>1835.3</ele>
        <time>2020-06-02T07:36:46Z</time>
      </trkpt>
      <trkpt lat="42.762446" lon="0.565960">
        <ele>1838.5</ele>
        <time>2020-06-02T07:36:53Z</time>
      </trkpt>
      <trkpt lat="42.762443" lon="0.565832">
        <ele>1839.4</ele>
        <time>2020-06-02T07:37:00Z</time>
      </trkpt>
      <trkpt lat="42.762450" lon="0.565702">
        <ele>1840.2</ele>
        <time>2020-06-02T07:37:07Z</time>
      </trkpt>
      <trkpt lat="42.762453" lon="0.565567">
        <ele>1841.2</ele>
        <time>2020-06-02T07:37:14Z</time>
      </trkpt>
      <trkpt lat="42.762437" lon="0.565433">
        <ele>1842.1</ele>
        <time>2020-06-02T07:37:21Z</time>
      </trkpt>
      <trkpt lat="42.762402" lon="0.565305">
        <ele>1842.1</ele>
        <time>2020-06-02T07:37:28Z</time>
      </trkpt>
      <trkpt lat="42.762361" lon="0.565184">
        <ele>1842.1</ele>
        <time>2020-06-02T07:37:35Z</time>
      </trkpt>
      <trkpt lat="42.762314" lon="0.565064">
        <ele>1843.0</ele>
        <time>2020-06-02T07:37:42Z</time>
      </trkpt>
      <trkpt lat="42.762280" lon="0.564941">
        <ele>1843.8</ele>
        <time>2020-06-02T07:37:49Z</time>
      </trkpt>
      <trkpt lat="42.762238" lon="0.564827">
        <ele>1844.8</ele>
        <time>2020-06-02T07:37:56Z</time>
      </trkpt>
      <trkpt lat="42.762196" lon="0.564707">
        <ele>1845.7</ele>
        <time>2020-06-02T07:38:03Z</time>
      </trkpt>
      <trkpt lat="42.762169" lon="0.564585">
        <ele>1846.6</ele>
        <time>2020-06-02T07:38:10Z</time>
      </trkpt>
      <trkpt lat="42.762158" lon="0.564455">
        <ele>1847.5</ele>
        <time>2020-06-02T07:38:17Z</time>
      </trkpt>
      <trkpt lat="42.762143" lon="0.564321">
        <ele>1847.5</ele>
        <time>2020-06-02T07:38:24Z</time>
      </trkpt>
      <trkpt lat="42.762123" lon="0.564190">
        <ele>1847.4</ele>
        <time>2020-06-02T07:38:31Z</time>
      </trkpt>
      <trkpt lat="42.762094" lon="0.564060">
        <ele>1847.4</ele>
        <time>2020-06-02T07:38:38Z</time>
      </trkpt>
      <trkpt lat="42.762070" lon="0.563933">
        <ele>1847.4</ele>
        <time>2020-06-02T07:38:45Z</time>
      </trkpt>
      <trkpt lat="42.762039" lon="0.563810">
        <ele>1848.2</ele>
        <time>2020-06-02T07:38:52Z</time>
      </trkpt>
      <trkpt lat="42.761966" lon="0.563724">
        <ele>1849.1</ele>
        <time>2020-06-02T07:38:59Z</time>
      </trkpt>
      <trkpt lat="42.761910" lon="0.563609">
        <ele>1849.1</ele>
        <time>2020-06-02T07:39:07Z</time>
      </trkpt>
      <trkpt lat="42.761901" lon="0.563481">
        <ele>1850.2</ele>
        <time>2020-06-02T07:39:17Z</time>
      </trkpt>
      <trkpt lat="42.761894" lon="0.563359">
        <ele>1852.0</ele>
        <time>2020-06-02T07:39:25Z</time>
      </trkpt>
      <trkpt lat="42.761876" lon="0.563222">
        <ele>1852.9</ele>
        <time>2020-06-02T07:39:33Z</time>
      </trkpt>
      <trkpt lat="42.761873" lon="0.563082">
        <ele>1853.7</ele>
        <time>2020-06-02T07:39:41Z</time>
      </trkpt>
      <trkpt lat="42.761870" lon="0.562945">
        <ele>1853.7</ele>
        <time>2020-06-02T07:39:49Z</time>
      </trkpt>
      <trkpt lat="42.761845" lon="0.562827">
        <ele>1854.4</ele>
        <time>2020-06-02T07:39:56Z</time>
      </trkpt>
      <trkpt lat="42.761813" lon="0.562701">
        <ele>1855.3</ele>
        <time>2020-06-02T07:40:11Z</time>
      </trkpt>
      <trkpt lat="42.761787" lon="0.562568">
        <ele>1855.3</ele>
        <time>2020-06-02T07:40:19Z</time>
      </trkpt>
      <trkpt lat="42.761769" lon="0.562443">
        <ele>1855.3</ele>
        <time>2020-06-02T07:40:26Z</time>
      </trkpt>
      <trkpt lat="42.761747" lon="0.562313">
        <ele>1856.1</ele>
        <time>2020-06-02T07:40:33Z</time>
      </trkpt>
      <trkpt lat="42.761731" lon="0.562188">
        <ele>1856.9</ele>
        <time>2020-06-02T07:40:40Z</time>
      </trkpt>
      <trkpt lat="42.761709" lon="0.562054">
        <ele>1858.6</ele>
        <time>2020-06-02T07:40:48Z</time>
      </trkpt>
      <trkpt lat="42.761678" lon="0.561927">
        <ele>1860.5</ele>
        <time>2020-06-02T07:40:56Z</time>
      </trkpt>
      <trkpt lat="42.761631" lon="0.561811">
        <ele>1862.2</ele>
        <time>2020-06-02T07:41:04Z</time>
      </trkpt>
      <trkpt lat="42.761577" lon="0.561714">
        <ele>1863.1</ele>
        <time>2020-06-02T07:41:11Z</time>
      </trkpt>
      <trkpt lat="42.761519" lon="0.561612">
        <ele>1863.9</ele>
        <time>2020-06-02T07:41:18Z</time>
      </trkpt>
      <trkpt lat="42.761459" lon="0.561500">
        <ele>1864.7</ele>
        <time>2020-06-02T07:41:26Z</time>
      </trkpt>
      <trkpt lat="42.761396" lon="0.561392">
        <ele>1866.4</ele>
        <time>2020-06-02T07:41:34Z</time>
      </trkpt>
      <trkpt lat="42.761346" lon="0.561288">
        <ele>1866.4</ele>
        <time>2020-06-02T07:41:41Z</time>
      </trkpt>
      <trkpt lat="42.761298" lon="0.561179">
        <ele>1868.1</ele>
        <time>2020-06-02T07:41:48Z</time>
      </trkpt>
      <trkpt lat="42.761244" lon="0.561064">
        <ele>1868.0</ele>
        <time>2020-06-02T07:41:56Z</time>
      </trkpt>
      <trkpt lat="42.761181" lon="0.560969">
        <ele>1868.8</ele>
        <time>2020-06-02T07:42:04Z</time>
      </trkpt>
      <trkpt lat="42.761120" lon="0.560866">
        <ele>1868.8</ele>
        <time>2020-06-02T07:42:12Z</time>
      </trkpt>
      <trkpt lat="42.761097" lon="0.560743">
        <ele>1868.8</ele>
        <time>2020-06-02T07:42:19Z</time>
      </trkpt>
      <trkpt lat="42.761084" lon="0.560635">
        <ele>1866.4</ele>
        <time>2020-06-02T07:42:52Z</time>
      </trkpt>
      <trkpt lat="42.761068" lon="0.560520">
        <ele>1866.4</ele>
        <time>2020-06-02T07:43:12Z</time>
      </trkpt>
      <trkpt lat="42.761060" lon="0.560387">
        <ele>1868.8</ele>
        <time>2020-06-02T07:43:20Z</time>
      </trkpt>
      <trkpt lat="42.761050" lon="0.560267">
        <ele>1869.6</ele>
        <time>2020-06-02T07:43:28Z</time>
      </trkpt>
      <trkpt lat="42.761006" lon="0.560158">
        <ele>1870.4</ele>
        <time>2020-06-02T07:43:36Z</time>
      </trkpt>
      <trkpt lat="42.760979" lon="0.560031">
        <ele>1870.4</ele>
        <time>2020-06-02T07:43:45Z</time>
      </trkpt>
      <trkpt lat="42.760939" lon="0.559902">
        <ele>1870.4</ele>
        <time>2020-06-02T07:43:54Z</time>
      </trkpt>
      <trkpt lat="42.760918" lon="0.559773">
        <ele>1870.4</ele>
        <time>2020-06-02T07:44:02Z</time>
      </trkpt>
      <trkpt lat="42.760882" lon="0.559646">
        <ele>1870.4</ele>
        <time>2020-06-02T07:44:10Z</time>
      </trkpt>
      <trkpt lat="42.760848" lon="0.559529">
        <ele>1868.0</ele>
        <time>2020-06-02T07:44:18Z</time>
      </trkpt>
      <trkpt lat="42.760815" lon="0.559407">
        <ele>1867.2</ele>
        <time>2020-06-02T07:44:26Z</time>
      </trkpt>
      <trkpt lat="42.760774" lon="0.559287">
        <ele>1867.2</ele>
        <time>2020-06-02T07:44:35Z</time>
      </trkpt>
      <trkpt lat="42.760762" lon="0.559157">
        <ele>1867.3</ele>
        <time>2020-06-02T07:44:48Z</time>
      </trkpt>
      <trkpt lat="42.760732" lon="0.559051">
        <ele>1867.3</ele>
        <time>2020-06-02T07:45:15Z</time>
      </trkpt>
      <trkpt lat="42.760715" lon="0.558922">
        <ele>1867.3</ele>
        <time>2020-06-02T07:45:27Z</time>
      </trkpt>
      <trkpt lat="42.760701" lon="0.558798">
        <ele>1870.7</ele>
        <time>2020-06-02T07:45:40Z</time>
      </trkpt>
      <trkpt lat="42.760697" lon="0.558679">
        <ele>1874.2</ele>
        <time>2020-06-02T07:45:56Z</time>
      </trkpt>
      <trkpt lat="42.760689" lon="0.558557">
        <ele>1876.9</ele>
        <time>2020-06-02T07:46:10Z</time>
      </trkpt>
      <trkpt lat="42.760672" lon="0.558432">
        <ele>1878.7</ele>
        <time>2020-06-02T07:46:24Z</time>
      </trkpt>
      <trkpt lat="42.760667" lon="0.558314">
        <ele>1882.1</ele>
        <time>2020-06-02T07:46:39Z</time>
      </trkpt>
      <trkpt lat="42.760657" lon="0.558202">
        <ele>1884.5</ele>
        <time>2020-06-02T07:46:54Z</time>
      </trkpt>
      <trkpt lat="42.760582" lon="0.558126">
        <ele>1888.2</ele>
        <time>2020-06-02T07:47:12Z</time>
      </trkpt>
      <trkpt lat="42.760537" lon="0.558013">
        <ele>1893.4</ele>
        <time>2020-06-02T07:47:34Z</time>
      </trkpt>
      <trkpt lat="42.760504" lon="0.557899">
        <ele>1898.7</ele>
        <time>2020-06-02T07:48:00Z</time>
      </trkpt>
      <trkpt lat="42.760478" lon="0.557793">
        <ele>1904.2</ele>
        <time>2020-06-02T07:48:26Z</time>
      </trkpt>
      <trkpt lat="42.760423" lon="0.557886">
        <ele>1907.6</ele>
        <time>2020-06-02T07:48:47Z</time>
      </trkpt>
      <trkpt lat="42.760419" lon="0.557796">
        <ele>1910.3</ele>
        <time>2020-06-02T07:49:02Z</time>
      </trkpt>
      <trkpt lat="42.760446" lon="0.557701">
        <ele>1913.7</ele>
        <time>2020-06-02T07:49:19Z</time>
      </trkpt>
      <trkpt lat="42.760429" lon="0.557588">
        <ele>1916.7</ele>
        <time>2020-06-02T07:49:35Z</time>
      </trkpt>
      <trkpt lat="42.760450" lon="0.557472">
        <ele>1918.7</ele>
        <time>2020-06-02T07:49:48Z</time>
      </trkpt>
      <trkpt lat="42.760403" lon="0.557367">
        <ele>1918.7</ele>
        <time>2020-06-02T07:50:05Z</time>
      </trkpt>
      <trkpt lat="42.760394" lon="0.557261">
        <ele>1920.5</ele>
        <time>2020-06-02T07:50:22Z</time>
      </trkpt>
      <trkpt lat="42.760391" lon="0.557148">
        <ele>1920.6</ele>
        <time>2020-06-02T07:50:32Z</time>
      </trkpt>
      <trkpt lat="42.760347" lon="0.557047">
        <ele>1920.6</ele>
        <time>2020-06-02T07:50:42Z</time>
      </trkpt>
      <trkpt lat="42.760304" lon="0.556956">
        <ele>1921.5</ele>
        <time>2020-06-02T07:51:13Z</time>
      </trkpt>
      <trkpt lat="42.760240" lon="0.556868">
        <ele>1923.4</ele>
        <time>2020-06-02T07:51:26Z</time>
      </trkpt>
      <trkpt lat="42.760197" lon="0.556780">
        <ele>1925.0</ele>
        <time>2020-06-02T07:51:46Z</time>
      </trkpt>
      <trkpt lat="42.760148" lon="0.556676">
        <ele>1925.0</ele>
        <time>2020-06-02T07:51:56Z</time>
      </trkpt>
      <trkpt lat="42.760078" lon="0.556602">
        <ele>1928.9</ele>
        <time>2020-06-02T07:52:13Z</time>
      </trkpt>
      <trkpt lat="42.760046" lon="0.556486">
        <ele>1930.5</ele>
        <time>2020-06-02T07:52:25Z</time>
      </trkpt>
      <trkpt lat="42.759996" lon="0.556395">
        <ele>1931.4</ele>
        <time>2020-06-02T07:52:39Z</time>
      </trkpt>
      <trkpt lat="42.759973" lon="0.556276">
        <ele>1933.2</ele>
        <time>2020-06-02T07:52:53Z</time>
      </trkpt>
      <trkpt lat="42.759933" lon="0.556162">
        <ele>1934.2</ele>
        <time>2020-06-02T07:53:03Z</time>
      </trkpt>
      <trkpt lat="42.759885" lon="0.556048">
        <ele>1935.1</ele>
        <time>2020-06-02T07:53:14Z</time>
      </trkpt>
      <trkpt lat="42.759867" lon="0.555933">
        <ele>1936.0</ele>
        <time>2020-06-02T07:54:05Z</time>
      </trkpt>
      <trkpt lat="42.759813" lon="0.555836">
        <ele>1936.0</ele>
        <time>2020-06-02T07:54:14Z</time>
      </trkpt>
      <trkpt lat="42.759779" lon="0.555719">
        <ele>1936.0</ele>
        <time>2020-06-02T07:54:23Z</time>
      </trkpt>
      <trkpt lat="42.759753" lon="0.555606">
        <ele>1936.8</ele>
        <time>2020-06-02T07:54:40Z</time>
      </trkpt>
      <trkpt lat="42.759700" lon="0.555489">
        <ele>1937.6</ele>
        <time>2020-06-02T07:54:49Z</time>
      </trkpt>
      <trkpt lat="42.759651" lon="0.555369">
        <ele>1937.6</ele>
        <time>2020-06-02T07:54:58Z</time>
      </trkpt>
      <trkpt lat="42.759598" lon="0.555260">
        <ele>1937.6</ele>
        <time>2020-06-02T07:55:06Z</time>
      </trkpt>
      <trkpt lat="42.759562" lon="0.555146">
        <ele>1937.6</ele>
        <time>2020-06-02T07:55:16Z</time>
      </trkpt>
      <trkpt lat="42.759524" lon="0.555039">
        <ele>1940.4</ele>
        <time>2020-06-02T07:55:28Z</time>
      </trkpt>
      <trkpt lat="42.759474" lon="0.554938">
        <ele>1941.5</ele>
        <time>2020-06-02T07:55:38Z</time>
      </trkpt>
      <trkpt lat="42.759420" lon="0.554830">
        <ele>1943.0</ele>
        <time>2020-06-02T07:55:48Z</time>
      </trkpt>
      <trkpt lat="42.759365" lon="0.554724">
        <ele>1943.8</ele>
        <time>2020-06-02T07:55:57Z</time>
      </trkpt>
      <trkpt lat="42.759304" lon="0.554621">
        <ele>1945.6</ele>
        <time>2020-06-02T07:56:07Z</time>
      </trkpt>
      <trkpt lat="42.759255" lon="0.554521">
        <ele>1947.3</ele>
        <time>2020-06-02T07:56:19Z</time>
      </trkpt>
      <trkpt lat="42.759206" lon="0.554418">
        <ele>1950.7</ele>
        <time>2020-06-02T07:56:36Z</time>
      </trkpt>
      <trkpt lat="42.759183" lon="0.554294">
        <ele>1953.4</ele>
        <time>2020-06-02T07:56:52Z</time>
      </trkpt>
      <trkpt lat="42.759137" lon="0.554192">
        <ele>1956.3</ele>
        <time>2020-06-02T07:57:08Z</time>
      </trkpt>
      <trkpt lat="42.759084" lon="0.554094">
        <ele>1960.6</ele>
        <time>2020-06-02T07:57:26Z</time>
      </trkpt>
      <trkpt lat="42.759058" lon="0.553968">
        <ele>1964.7</ele>
        <time>2020-06-02T07:57:41Z</time>
      </trkpt>
      <trkpt lat="42.759012" lon="0.553870">
        <ele>1966.5</ele>
        <time>2020-06-02T07:57:54Z</time>
      </trkpt>
      <trkpt lat="42.758976" lon="0.553756">
        <ele>1968.8</ele>
        <time>2020-06-02T07:58:07Z</time>
      </trkpt>
      <trkpt lat="42.758941" lon="0.553629">
        <ele>1969.6</ele>
        <time>2020-06-02T07:58:18Z</time>
      </trkpt>
      <trkpt lat="42.758909" lon="0.553493">
        <ele>1969.4</ele>
        <time>2020-06-02T07:58:40Z</time>
      </trkpt>
      <trkpt lat="42.758869" lon="0.553376">
        <ele>1969.4</ele>
        <time>2020-06-02T07:58:50Z</time>
      </trkpt>
      <trkpt lat="42.758816" lon="0.553276">
        <ele>1966.2</ele>
        <time>2020-06-02T07:59:00Z</time>
      </trkpt>
      <trkpt lat="42.758784" lon="0.553147">
        <ele>1964.3</ele>
        <time>2020-06-02T07:59:10Z</time>
      </trkpt>
      <trkpt lat="42.758743" lon="0.553042">
        <ele>1961.5</ele>
        <time>2020-06-02T07:59:19Z</time>
      </trkpt>
      <trkpt lat="42.758699" lon="0.552927">
        <ele>1959.7</ele>
        <time>2020-06-02T07:59:27Z</time>
      </trkpt>
      <trkpt lat="42.758674" lon="0.552800">
        <ele>1959.8</ele>
        <time>2020-06-02T07:59:35Z</time>
      </trkpt>
      <trkpt lat="42.758652" lon="0.552676">
        <ele>1960.0</ele>
        <time>2020-06-02T07:59:45Z</time>
      </trkpt>
      <trkpt lat="42.758641" lon="0.552554">
        <ele>1962.4</ele>
        <time>2020-06-02T07:59:55Z</time>
      </trkpt>
      <trkpt lat="42.758591" lon="0.552455">
        <ele>1963.4</ele>
        <time>2020-06-02T08:00:04Z</time>
      </trkpt>
      <trkpt lat="42.758535" lon="0.552351">
        <ele>1963.2</ele>
        <time>2020-06-02T08:00:14Z</time>
      </trkpt>
      <trkpt lat="42.758504" lon="0.552236">
        <ele>1963.2</ele>
        <time>2020-06-02T08:00:22Z</time>
      </trkpt>
      <trkpt lat="42.758499" lon="0.552104">
        <ele>1963.3</ele>
        <time>2020-06-02T08:00:32Z</time>
      </trkpt>
      <trkpt lat="42.758481" lon="0.551990">
        <ele>1964.5</ele>
        <time>2020-06-02T08:00:43Z</time>
      </trkpt>
      <trkpt lat="42.758428" lon="0.551883">
        <ele>1966.2</ele>
        <time>2020-06-02T08:00:54Z</time>
      </trkpt>
      <trkpt lat="42.758399" lon="0.551766">
        <ele>1967.1</ele>
        <time>2020-06-02T08:01:04Z</time>
      </trkpt>
      <trkpt lat="42.758370" lon="0.551639">
        <ele>1968.8</ele>
        <time>2020-06-02T08:01:14Z</time>
      </trkpt>
      <trkpt lat="42.758355" lon="0.551514">
        <ele>1970.6</ele>
        <time>2020-06-02T08:01:26Z</time>
      </trkpt>
      <trkpt lat="42.758331" lon="0.551395">
        <ele>1973.4</ele>
        <time>2020-06-02T08:01:39Z</time>
      </trkpt>
      <trkpt lat="42.758295" lon="0.551271">
        <ele>1976.5</ele>
        <time>2020-06-02T08:01:53Z</time>
      </trkpt>
      <trkpt lat="42.758249" lon="0.551157">
        <ele>1978.1</ele>
        <time>2020-06-02T08:02:05Z</time>
      </trkpt>
      <trkpt lat="42.758197" lon="0.551046">
        <ele>1979.9</ele>
        <time>2020-06-02T08:02:17Z</time>
      </trkpt>
      <trkpt lat="42.758119" lon="0.550980">
        <ele>1981.6</ele>
        <time>2020-06-02T08:02:31Z</time>
      </trkpt>
      <trkpt lat="42.758043" lon="0.550915">
        <ele>1984.2</ele>
        <time>2020-06-02T08:02:45Z</time>
      </trkpt>
      <trkpt lat="42.757993" lon="0.550822">
        <ele>1986.8</ele>
        <time>2020-06-02T08:03:02Z</time>
      </trkpt>
      <trkpt lat="42.757942" lon="0.550718">
        <ele>1988.7</ele>
        <time>2020-06-02T08:03:17Z</time>
      </trkpt>
      <trkpt lat="42.757894" lon="0.550611">
        <ele>1990.5</ele>
        <time>2020-06-02T08:03:30Z</time>
      </trkpt>
      <trkpt lat="42.757826" lon="0.550514">
        <ele>1992.1</ele>
        <time>2020-06-02T08:03:44Z</time>
      </trkpt>
      <trkpt lat="42.757772" lon="0.550414">
        <ele>1994.8</ele>
        <time>2020-06-02T08:03:58Z</time>
      </trkpt>
      <trkpt lat="42.757715" lon="0.550304">
        <ele>1997.4</ele>
        <time>2020-06-02T08:04:13Z</time>
      </trkpt>
      <trkpt lat="42.757655" lon="0.550211">
        <ele>1998.4</ele>
        <time>2020-06-02T08:04:27Z</time>
      </trkpt>
      <trkpt lat="42.757613" lon="0.550141">
        <ele>2001.5</ele>
        <time>2020-06-02T08:05:35Z</time>
      </trkpt>
      <trkpt lat="42.757549" lon="0.550048">
        <ele>2002.4</ele>
        <time>2020-06-02T08:05:47Z</time>
      </trkpt>
      <trkpt lat="42.757480" lon="0.549963">
        <ele>2007.0</ele>
        <time>2020-06-02T08:06:05Z</time>
      </trkpt>
      <trkpt lat="42.757421" lon="0.549849">
        <ele>2008.8</ele>
        <time>2020-06-02T08:06:18Z</time>
      </trkpt>
      <trkpt lat="42.757374" lon="0.549731">
        <ele>2008.8</ele>
        <time>2020-06-02T08:06:29Z</time>
      </trkpt>
      <trkpt lat="42.757323" lon="0.549629">
        <ele>2010.4</ele>
        <time>2020-06-02T08:06:39Z</time>
      </trkpt>
      <trkpt lat="42.757276" lon="0.549521">
        <ele>2012.2</ele>
        <time>2020-06-02T08:06:51Z</time>
      </trkpt>
      <trkpt lat="42.757223" lon="0.549427">
        <ele>2016.9</ele>
        <time>2020-06-02T08:07:09Z</time>
      </trkpt>
      <trkpt lat="42.757183" lon="0.549307">
        <ele>2019.4</ele>
        <time>2020-06-02T08:07:23Z</time>
      </trkpt>
      <trkpt lat="42.757161" lon="0.549188">
        <ele>2021.1</ele>
        <time>2020-06-02T08:07:36Z</time>
      </trkpt>
      <trkpt lat="42.757128" lon="0.549069">
        <ele>2024.6</ele>
        <time>2020-06-02T08:07:53Z</time>
      </trkpt>
      <trkpt lat="42.757116" lon="0.548952">
        <ele>2028.2</ele>
        <time>2020-06-02T08:08:11Z</time>
      </trkpt>
      <trkpt lat="42.757071" lon="0.548833">
        <ele>2029.8</ele>
        <time>2020-06-02T08:08:24Z</time>
      </trkpt>
      <trkpt lat="42.757032" lon="0.548722">
        <ele>2033.4</ele>
        <time>2020-06-02T08:08:41Z</time>
      </trkpt>
      <trkpt lat="42.757003" lon="0.548612">
        <ele>2035.9</ele>
        <time>2020-06-02T08:08:57Z</time>
      </trkpt>
      <trkpt lat="42.756968" lon="0.548492">
        <ele>2039.6</ele>
        <time>2020-06-02T08:09:16Z</time>
      </trkpt>
      <trkpt lat="42.756963" lon="0.548368">
        <ele>2042.7</ele>
        <time>2020-06-02T08:09:35Z</time>
      </trkpt>
      <trkpt lat="42.756919" lon="0.548265">
        <ele>2047.8</ele>
        <time>2020-06-02T08:09:56Z</time>
      </trkpt>
      <trkpt lat="42.756879" lon="0.548149">
        <ele>2050.5</ele>
        <time>2020-06-02T08:10:13Z</time>
      </trkpt>
      <trkpt lat="42.756844" lon="0.548036">
        <ele>2054.1</ele>
        <time>2020-06-02T08:10:29Z</time>
      </trkpt>
      <trkpt lat="42.756804" lon="0.547920">
        <ele>2056.6</ele>
        <time>2020-06-02T08:10:45Z</time>
      </trkpt>
      <trkpt lat="42.756772" lon="0.547808">
        <ele>2059.3</ele>
        <time>2020-06-02T08:11:02Z</time>
      </trkpt>
      <trkpt lat="42.756754" lon="0.547713">
        <ele>2062.6</ele>
        <time>2020-06-02T08:11:21Z</time>
      </trkpt>
      <trkpt lat="42.756706" lon="0.547658">
        <ele>2067.7</ele>
        <time>2020-06-02T08:11:42Z</time>
      </trkpt>
      <trkpt lat="42.756624" lon="0.547608">
        <ele>2070.6</ele>
        <time>2020-06-02T08:12:18Z</time>
      </trkpt>
      <trkpt lat="42.756567" lon="0.547523">
        <ele>2073.2</ele>
        <time>2020-06-02T08:12:54Z</time>
      </trkpt>
      <trkpt lat="42.756502" lon="0.547447">
        <ele>2078.0</ele>
        <time>2020-06-02T08:13:19Z</time>
      </trkpt>
      <trkpt lat="42.756430" lon="0.547404">
        <ele>2082.2</ele>
        <time>2020-06-02T08:13:42Z</time>
      </trkpt>
      <trkpt lat="42.756369" lon="0.547325">
        <ele>2085.7</ele>
        <time>2020-06-02T08:14:05Z</time>
      </trkpt>
      <trkpt lat="42.756304" lon="0.547259">
        <ele>2090.1</ele>
        <time>2020-06-02T08:14:37Z</time>
      </trkpt>
      <trkpt lat="42.756306" lon="0.547166">
        <ele>2094.8</ele>
        <time>2020-06-02T08:15:09Z</time>
      </trkpt>
      <trkpt lat="42.756265" lon="0.547068">
        <ele>2099.0</ele>
        <time>2020-06-02T08:15:35Z</time>
      </trkpt>
      <trkpt lat="42.756245" lon="0.546964">
        <ele>2103.6</ele>
        <time>2020-06-02T08:15:57Z</time>
      </trkpt>
      <trkpt lat="42.756175" lon="0.546914">
        <ele>2107.7</ele>
        <time>2020-06-02T08:16:24Z</time>
      </trkpt>
      <trkpt lat="42.756152" lon="0.546841">
        <ele>2112.2</ele>
        <time>2020-06-02T08:16:50Z</time>
      </trkpt>
      <trkpt lat="42.756173" lon="0.546737">
        <ele>2113.9</ele>
        <time>2020-06-02T08:17:08Z</time>
      </trkpt>
      <trkpt lat="42.756178" lon="0.546616">
        <ele>2114.8</ele>
        <time>2020-06-02T08:17:26Z</time>
      </trkpt>
      <trkpt lat="42.756156" lon="0.546504">
        <ele>2116.5</ele>
        <time>2020-06-02T08:17:41Z</time>
      </trkpt>
      <trkpt lat="42.756131" lon="0.546385">
        <ele>2118.1</ele>
        <time>2020-06-02T08:17:57Z</time>
      </trkpt>
      <trkpt lat="42.756121" lon="0.546278">
        <ele>2119.8</ele>
        <time>2020-06-02T08:19:07Z</time>
      </trkpt>
      <trkpt lat="42.756103" lon="0.546154">
        <ele>2122.3</ele>
        <time>2020-06-02T08:19:29Z</time>
      </trkpt>
      <trkpt lat="42.756091" lon="0.546053">
        <ele>2124.1</ele>
        <time>2020-06-02T08:19:52Z</time>
      </trkpt>
      <trkpt lat="42.756060" lon="0.545973">
        <ele>2128.4</ele>
        <time>2020-06-02T08:20:15Z</time>
      </trkpt>
      <trkpt lat="42.756033" lon="0.545860">
        <ele>2133.0</ele>
        <time>2020-06-02T08:20:39Z</time>
      </trkpt>
      <trkpt lat="42.756003" lon="0.545747">
        <ele>2133.0</ele>
        <time>2020-06-02T08:21:12Z</time>
      </trkpt>
      <trkpt lat="42.755957" lon="0.545652">
        <ele>2133.0</ele>
        <time>2020-06-02T08:21:32Z</time>
      </trkpt>
      <trkpt lat="42.755948" lon="0.545569">
        <ele>2133.9</ele>
        <time>2020-06-02T08:22:01Z</time>
      </trkpt>
      <trkpt lat="42.755898" lon="0.545479">
        <ele>2137.7</ele>
        <time>2020-06-02T08:22:21Z</time>
      </trkpt>
      <trkpt lat="42.755855" lon="0.545414">
        <ele>2142.9</ele>
        <time>2020-06-02T08:22:48Z</time>
      </trkpt>
      <trkpt lat="42.755856" lon="0.545326">
        <ele>2149.0</ele>
        <time>2020-06-02T08:23:21Z</time>
      </trkpt>
      <trkpt lat="42.755898" lon="0.545204">
        <ele>2152.6</ele>
        <time>2020-06-02T08:23:47Z</time>
      </trkpt>
      <trkpt lat="42.755904" lon="0.545100">
        <ele>2156.6</ele>
        <time>2020-06-02T08:24:13Z</time>
      </trkpt>
      <trkpt lat="42.755911" lon="0.544996">
        <ele>2160.1</ele>
        <time>2020-06-02T08:24:35Z</time>
      </trkpt>
      <trkpt lat="42.755898" lon="0.544880">
        <ele>2161.7</ele>
        <time>2020-06-02T08:24:49Z</time>
      </trkpt>
      <trkpt lat="42.755910" lon="0.544760">
        <ele>2163.3</ele>
        <time>2020-06-02T08:25:04Z</time>
      </trkpt>
      <trkpt lat="42.755894" lon="0.544651">
        <ele>2165.7</ele>
        <time>2020-06-02T08:25:22Z</time>
      </trkpt>
      <trkpt lat="42.755861" lon="0.544556">
        <ele>2170.9</ele>
        <time>2020-06-02T08:25:49Z</time>
      </trkpt>
      <trkpt lat="42.755870" lon="0.544442">
        <ele>2176.2</ele>
        <time>2020-06-02T08:26:17Z</time>
      </trkpt>
      <trkpt lat="42.755889" lon="0.544333">
        <ele>2177.8</ele>
        <time>2020-06-02T08:26:37Z</time>
      </trkpt>
      <trkpt lat="42.755859" lon="0.544231">
        <ele>2173.1</ele>
        <time>2020-06-02T08:27:23Z</time>
      </trkpt>
      <trkpt lat="42.755800" lon="0.544112">
        <ele>2171.3</ele>
        <time>2020-06-02T08:27:45Z</time>
      </trkpt>
      <trkpt lat="42.755739" lon="0.544051">
        <ele>2179.0</ele>
        <time>2020-06-02T08:28:31Z</time>
      </trkpt>
      <trkpt lat="42.755735" lon="0.543994">
        <ele>2182.6</ele>
        <time>2020-06-02T08:29:15Z</time>
      </trkpt>
      <trkpt lat="42.755729" lon="0.543935">
        <ele>2189.6</ele>
        <time>2020-06-02T08:30:07Z</time>
      </trkpt>
      <trkpt lat="42.755761" lon="0.543826">
        <ele>2194.1</ele>
        <time>2020-06-02T08:30:38Z</time>
      </trkpt>
      <trkpt lat="42.755806" lon="0.543731">
        <ele>2198.6</ele>
        <time>2020-06-02T08:31:01Z</time>
      </trkpt>
      <trkpt lat="42.755847" lon="0.543626">
        <ele>2202.2</ele>
        <time>2020-06-02T08:31:26Z</time>
      </trkpt>
      <trkpt lat="42.755839" lon="0.543504">
        <ele>2207.1</ele>
        <time>2020-06-02T08:31:50Z</time>
      </trkpt>
      <trkpt lat="42.755844" lon="0.543373">
        <ele>2212.0</ele>
        <time>2020-06-02T08:32:18Z</time>
      </trkpt>
      <trkpt lat="42.755822" lon="0.543260">
        <ele>2215.6</ele>
        <time>2020-06-02T08:32:39Z</time>
      </trkpt>
      <trkpt lat="42.755784" lon="0.543182">
        <ele>2219.7</ele>
        <time>2020-06-02T08:33:15Z</time>
      </trkpt>
      <trkpt lat="42.755742" lon="0.543093">
        <ele>2226.2</ele>
        <time>2020-06-02T08:34:09Z</time>
      </trkpt>
      <trkpt lat="42.755738" lon="0.543017">
        <ele>2229.0</ele>
        <time>2020-06-02T08:35:38Z</time>
      </trkpt>
      <trkpt lat="42.755750" lon="0.542902">
        <ele>2234.9</ele>
        <time>2020-06-02T08:36:05Z</time>
      </trkpt>
      <trkpt lat="42.755761" lon="0.542801">
        <ele>2240.4</ele>
        <time>2020-06-02T08:36:50Z</time>
      </trkpt>
      <trkpt lat="42.755764" lon="0.542686">
        <ele>2246.1</ele>
        <time>2020-06-02T08:37:12Z</time>
      </trkpt>
      <trkpt lat="42.755735" lon="0.542610">
        <ele>2251.3</ele>
        <time>2020-06-02T08:37:35Z</time>
      </trkpt>
      <trkpt lat="42.755714" lon="0.542498">
        <ele>2256.6</ele>
        <time>2020-06-02T08:37:59Z</time>
      </trkpt>
      <trkpt lat="42.755725" lon="0.542379">
        <ele>2259.8</ele>
        <time>2020-06-02T08:38:25Z</time>
      </trkpt>
      <trkpt lat="42.755725" lon="0.542257">
        <ele>2261.5</ele>
        <time>2020-06-02T08:38:44Z</time>
      </trkpt>
      <trkpt lat="42.755720" lon="0.542133">
        <ele>2261.5</ele>
        <time>2020-06-02T08:39:00Z</time>
      </trkpt>
      <trkpt lat="42.755711" lon="0.542020">
        <ele>2265.4</ele>
        <time>2020-06-02T08:39:23Z</time>
      </trkpt>
      <trkpt lat="42.755694" lon="0.541915">
        <ele>2272.4</ele>
        <time>2020-06-02T08:40:02Z</time>
      </trkpt>
      <trkpt lat="42.755768" lon="0.541896">
        <ele>2277.6</ele>
        <time>2020-06-02T08:40:59Z</time>
      </trkpt>
      <trkpt lat="42.755798" lon="0.541878">
        <ele>2283.3</ele>
        <time>2020-06-02T08:43:57Z</time>
      </trkpt>
      <trkpt lat="42.755807" lon="0.541784">
        <ele>2288.4</ele>
        <time>2020-06-02T08:44:33Z</time>
      </trkpt>
      <trkpt lat="42.755814" lon="0.541683">
        <ele>2291.9</ele>
        <time>2020-06-02T08:45:03Z</time>
      </trkpt>
      <trkpt lat="42.755807" lon="0.541558">
        <ele>2295.7</ele>
        <time>2020-06-02T08:45:27Z</time>
      </trkpt>
      <trkpt lat="42.755837" lon="0.541465">
        <ele>2297.8</ele>
        <time>2020-06-02T08:46:44Z</time>
      </trkpt>
      <trkpt lat="42.755876" lon="0.541364">
        <ele>2300.5</ele>
        <time>2020-06-02T08:47:05Z</time>
      </trkpt>
      <trkpt lat="42.755914" lon="0.541272">
        <ele>2304.6</ele>
        <time>2020-06-02T08:47:26Z</time>
      </trkpt>
      <trkpt lat="42.755938" lon="0.541158">
        <ele>2308.1</ele>
        <time>2020-06-02T08:47:46Z</time>
      </trkpt>
      <trkpt lat="42.755966" lon="0.541047">
        <ele>2310.7</ele>
        <time>2020-06-02T08:48:05Z</time>
      </trkpt>
      <trkpt lat="42.755947" lon="0.540930">
        <ele>2311.6</ele>
        <time>2020-06-02T08:48:19Z</time>
      </trkpt>
      <trkpt lat="42.755943" lon="0.540800">
        <ele>2311.6</ele>
        <time>2020-06-02T08:48:32Z</time>
      </trkpt>
      <trkpt lat="42.755938" lon="0.540679">
        <ele>2309.4</ele>
        <time>2020-06-02T08:48:46Z</time>
      </trkpt>
      <trkpt lat="42.755951" lon="0.540572">
        <ele>2309.5</ele>
        <time>2020-06-02T08:49:05Z</time>
      </trkpt>
      <trkpt lat="42.755993" lon="0.540468">
        <ele>2309.6</ele>
        <time>2020-06-02T08:49:22Z</time>
      </trkpt>
      <trkpt lat="42.756037" lon="0.540370">
        <ele>2313.9</ele>
        <time>2020-06-02T08:49:36Z</time>
      </trkpt>
      <trkpt lat="42.756077" lon="0.540264">
        <ele>2314.7</ele>
        <time>2020-06-02T08:49:49Z</time>
      </trkpt>
      <trkpt lat="42.756098" lon="0.540147">
        <ele>2317.4</ele>
        <time>2020-06-02T08:50:04Z</time>
      </trkpt>
      <trkpt lat="42.756112" lon="0.540020">
        <ele>2318.6</ele>
        <time>2020-06-02T08:50:20Z</time>
      </trkpt>
      <trkpt lat="42.756127" lon="0.539890">
        <ele>2319.5</ele>
        <time>2020-06-02T08:50:33Z</time>
      </trkpt>
      <trkpt lat="42.756128" lon="0.539767">
        <ele>2319.5</ele>
        <time>2020-06-02T08:50:43Z</time>
      </trkpt>
      <trkpt lat="42.756120" lon="0.539646">
        <ele>2319.5</ele>
        <time>2020-06-02T08:50:54Z</time>
      </trkpt>
      <trkpt lat="42.756107" lon="0.539509">
        <ele>2319.5</ele>
        <time>2020-06-02T08:51:04Z</time>
      </trkpt>
      <trkpt lat="42.756104" lon="0.539394">
        <ele>2320.6</ele>
        <time>2020-06-02T08:51:17Z</time>
      </trkpt>
      <trkpt lat="42.756131" lon="0.539299">
        <ele>2324.3</ele>
        <time>2020-06-02T08:51:45Z</time>
      </trkpt>
      <trkpt lat="42.756146" lon="0.539215">
        <ele>2325.3</ele>
        <time>2020-06-02T08:52:04Z</time>
      </trkpt>
      <trkpt lat="42.756224" lon="0.539213">
        <ele>2331.8</ele>
        <time>2020-06-02T08:52:29Z</time>
      </trkpt>
      <trkpt lat="42.756284" lon="0.539119">
        <ele>2335.5</ele>
        <time>2020-06-02T08:52:45Z</time>
      </trkpt>
      <trkpt lat="42.756344" lon="0.539036">
        <ele>2339.7</ele>
        <time>2020-06-02T08:53:04Z</time>
      </trkpt>
      <trkpt lat="42.756407" lon="0.538966">
        <ele>2344.4</ele>
        <time>2020-06-02T08:53:30Z</time>
      </trkpt>
      <trkpt lat="42.756477" lon="0.538896">
        <ele>2351.9</ele>
        <time>2020-06-02T08:54:02Z</time>
      </trkpt>
      <trkpt lat="42.756549" lon="0.538811">
        <ele>2355.2</ele>
        <time>2020-06-02T08:54:44Z</time>
      </trkpt>
      <trkpt lat="42.756607" lon="0.538732">
        <ele>2357.6</ele>
        <time>2020-06-02T08:54:58Z</time>
      </trkpt>
      <trkpt lat="42.756686" lon="0.538712">
        <ele>2361.8</ele>
        <time>2020-06-02T08:55:19Z</time>
      </trkpt>
      <trkpt lat="42.756771" lon="0.538689">
        <ele>2366.2</ele>
        <time>2020-06-02T08:55:41Z</time>
      </trkpt>
      <trkpt lat="42.756862" lon="0.538700">
        <ele>2370.5</ele>
        <time>2020-06-02T08:56:00Z</time>
      </trkpt>
      <trkpt lat="42.756922" lon="0.538700">
        <ele>2374.9</ele>
        <time>2020-06-02T08:56:31Z</time>
      </trkpt>
      <trkpt lat="42.756972" lon="0.538614">
        <ele>2376.6</ele>
        <time>2020-06-02T08:56:57Z</time>
      </trkpt>
      <trkpt lat="42.757021" lon="0.538519">
        <ele>2381.2</ele>
        <time>2020-06-02T08:57:14Z</time>
      </trkpt>
      <trkpt lat="42.757024" lon="0.538399">
        <ele>2384.0</ele>
        <time>2020-06-02T08:57:57Z</time>
      </trkpt>
      <trkpt lat="42.757018" lon="0.538270">
        <ele>2386.8</ele>
        <time>2020-06-02T08:58:11Z</time>
      </trkpt>
      <trkpt lat="42.757031" lon="0.538143">
        <ele>2387.6</ele>
        <time>2020-06-02T08:58:22Z</time>
      </trkpt>
      <trkpt lat="42.757099" lon="0.538064">
        <ele>2389.4</ele>
        <time>2020-06-02T08:58:35Z</time>
      </trkpt>
      <trkpt lat="42.757174" lon="0.538010">
        <ele>2391.1</ele>
        <time>2020-06-02T08:58:46Z</time>
      </trkpt>
      <trkpt lat="42.757241" lon="0.538030">
        <ele>2396.0</ele>
        <time>2020-06-02T09:12:34Z</time>
      </trkpt>
      <trkpt lat="42.757152" lon="0.538041">
        <ele>2396.0</ele>
        <time>2020-06-02T09:12:44Z</time>
      </trkpt>
      <trkpt lat="42.757072" lon="0.538094">
        <ele>2393.6</ele>
        <time>2020-06-02T09:12:55Z</time>
      </trkpt>
      <trkpt lat="42.756983" lon="0.538105">
        <ele>2391.1</ele>
        <time>2020-06-02T09:13:06Z</time>
      </trkpt>
      <trkpt lat="42.756915" lon="0.538022">
        <ele>2387.0</ele>
        <time>2020-06-02T09:13:15Z</time>
      </trkpt>
      <trkpt lat="42.756847" lon="0.537942">
        <ele>2384.6</ele>
        <time>2020-06-02T09:13:24Z</time>
      </trkpt>
      <trkpt lat="42.756772" lon="0.537869">
        <ele>2383.4</ele>
        <time>2020-06-02T09:13:43Z</time>
      </trkpt>
      <trkpt lat="42.756695" lon="0.537804">
        <ele>2381.4</ele>
        <time>2020-06-02T09:13:53Z</time>
      </trkpt>
      <trkpt lat="42.756612" lon="0.537740">
        <ele>2377.7</ele>
        <time>2020-06-02T09:14:03Z</time>
      </trkpt>
      <trkpt lat="42.756533" lon="0.537666">
        <ele>2374.1</ele>
        <time>2020-06-02T09:14:13Z</time>
      </trkpt>
      <trkpt lat="42.756444" lon="0.537601">
        <ele>2370.9</ele>
        <time>2020-06-02T09:14:22Z</time>
      </trkpt>
      <trkpt lat="42.756363" lon="0.537531">
        <ele>2369.4</ele>
        <time>2020-06-02T09:14:31Z</time>
      </trkpt>
      <trkpt lat="42.756279" lon="0.537474">
        <ele>2366.7</ele>
        <time>2020-06-02T09:14:40Z</time>
      </trkpt>
      <trkpt lat="42.756200" lon="0.537393">
        <ele>2364.8</ele>
        <time>2020-06-02T09:14:48Z</time>
      </trkpt>
      <trkpt lat="42.756112" lon="0.537347">
        <ele>2365.0</ele>
        <time>2020-06-02T09:14:56Z</time>
      </trkpt>
      <trkpt lat="42.756026" lon="0.537304">
        <ele>2365.2</ele>
        <time>2020-06-02T09:15:27Z</time>
      </trkpt>
      <trkpt lat="42.755950" lon="0.537239">
        <ele>2365.2</ele>
        <time>2020-06-02T09:15:35Z</time>
      </trkpt>
      <trkpt lat="42.755868" lon="0.537188">
        <ele>2364.7</ele>
        <time>2020-06-02T09:16:53Z</time>
      </trkpt>
      <trkpt lat="42.755778" lon="0.537162">
        <ele>2364.8</ele>
        <time>2020-06-02T09:17:05Z</time>
      </trkpt>
      <trkpt lat="42.755700" lon="0.537116">
        <ele>2369.5</ele>
        <time>2020-06-02T09:17:20Z</time>
      </trkpt>
      <trkpt lat="42.755637" lon="0.537049">
        <ele>2372.0</ele>
        <time>2020-06-02T09:17:39Z</time>
      </trkpt>
      <trkpt lat="42.755602" lon="0.536977">
        <ele>2367.8</ele>
        <time>2020-06-02T09:17:59Z</time>
      </trkpt>
      <trkpt lat="42.755562" lon="0.536927">
        <ele>2364.2</ele>
        <time>2020-06-02T09:18:19Z</time>
      </trkpt>
      <trkpt lat="42.755494" lon="0.536865">
        <ele>2361.3</ele>
        <time>2020-06-02T09:18:32Z</time>
      </trkpt>
      <trkpt lat="42.755413" lon="0.536796">
        <ele>2358.6</ele>
        <time>2020-06-02T09:18:42Z</time>
      </trkpt>
      <trkpt lat="42.755343" lon="0.536714">
        <ele>2358.8</ele>
        <time>2020-06-02T09:18:52Z</time>
      </trkpt>
      <trkpt lat="42.755281" lon="0.536651">
        <ele>2359.0</ele>
        <time>2020-06-02T09:19:05Z</time>
      </trkpt>
      <trkpt lat="42.755210" lon="0.536621">
        <ele>2361.3</ele>
        <time>2020-06-02T09:19:23Z</time>
      </trkpt>
      <trkpt lat="42.755131" lon="0.536604">
        <ele>2357.2</ele>
        <time>2020-06-02T09:19:39Z</time>
      </trkpt>
      <trkpt lat="42.755072" lon="0.536554">
        <ele>2353.9</ele>
        <time>2020-06-02T09:19:55Z</time>
      </trkpt>
      <trkpt lat="42.755026" lon="0.536457">
        <ele>2349.4</ele>
        <time>2020-06-02T09:20:12Z</time>
      </trkpt>
      <trkpt lat="42.754982" lon="0.536367">
        <ele>2344.8</ele>
        <time>2020-06-02T09:20:26Z</time>
      </trkpt>
      <trkpt lat="42.754902" lon="0.536304">
        <ele>2340.4</ele>
        <time>2020-06-02T09:20:39Z</time>
      </trkpt>
      <trkpt lat="42.754822" lon="0.536234">
        <ele>2336.6</ele>
        <time>2020-06-02T09:20:49Z</time>
      </trkpt>
      <trkpt lat="42.754762" lon="0.536141">
        <ele>2334.9</ele>
        <time>2020-06-02T09:20:57Z</time>
      </trkpt>
      <trkpt lat="42.754742" lon="0.536013">
        <ele>2331.7</ele>
        <time>2020-06-02T09:21:05Z</time>
      </trkpt>
      <trkpt lat="42.754667" lon="0.535929">
        <ele>2330.0</ele>
        <time>2020-06-02T09:21:13Z</time>
      </trkpt>
      <trkpt lat="42.754619" lon="0.535822">
        <ele>2329.3</ele>
        <time>2020-06-02T09:21:21Z</time>
      </trkpt>
      <trkpt lat="42.754546" lon="0.535738">
        <ele>2327.7</ele>
        <time>2020-06-02T09:21:28Z</time>
      </trkpt>
      <trkpt lat="42.754489" lon="0.535639">
        <ele>2325.6</ele>
        <time>2020-06-02T09:21:35Z</time>
      </trkpt>
      <trkpt lat="42.754446" lon="0.535512">
        <ele>2324.9</ele>
        <time>2020-06-02T09:21:43Z</time>
      </trkpt>
      <trkpt lat="42.754395" lon="0.535408">
        <ele>2324.2</ele>
        <time>2020-06-02T09:21:51Z</time>
      </trkpt>
      <trkpt lat="42.754337" lon="0.535313">
        <ele>2323.4</ele>
        <time>2020-06-02T09:21:59Z</time>
      </trkpt>
      <trkpt lat="42.754276" lon="0.535221">
        <ele>2322.6</ele>
        <time>2020-06-02T09:22:07Z</time>
      </trkpt>
      <trkpt lat="42.754230" lon="0.535104">
        <ele>2320.8</ele>
        <time>2020-06-02T09:22:16Z</time>
      </trkpt>
      <trkpt lat="42.754171" lon="0.535000">
        <ele>2318.6</ele>
        <time>2020-06-02T09:22:25Z</time>
      </trkpt>
      <trkpt lat="42.754103" lon="0.534909">
        <ele>2316.8</ele>
        <time>2020-06-02T09:22:33Z</time>
      </trkpt>
      <trkpt lat="42.754041" lon="0.534820">
        <ele>2315.9</ele>
        <time>2020-06-02T09:22:40Z</time>
      </trkpt>
      <trkpt lat="42.753993" lon="0.534711">
        <ele>2314.2</ele>
        <time>2020-06-02T09:22:47Z</time>
      </trkpt>
      <trkpt lat="42.753976" lon="0.534590">
        <ele>2312.6</ele>
        <time>2020-06-02T09:22:54Z</time>
      </trkpt>
      <trkpt lat="42.753941" lon="0.534474">
        <ele>2311.7</ele>
        <time>2020-06-02T09:23:01Z</time>
      </trkpt>
      <trkpt lat="42.753904" lon="0.534351">
        <ele>2310.1</ele>
        <time>2020-06-02T09:23:09Z</time>
      </trkpt>
      <trkpt lat="42.753881" lon="0.534231">
        <ele>2310.2</ele>
        <time>2020-06-02T09:23:17Z</time>
      </trkpt>
      <trkpt lat="42.753810" lon="0.534154">
        <ele>2310.4</ele>
        <time>2020-06-02T09:23:26Z</time>
      </trkpt>
      <trkpt lat="42.753747" lon="0.534061">
        <ele>2313.5</ele>
        <time>2020-06-02T09:23:37Z</time>
      </trkpt>
      <trkpt lat="42.753718" lon="0.533943">
        <ele>2316.8</ele>
        <time>2020-06-02T09:23:49Z</time>
      </trkpt>
      <trkpt lat="42.753664" lon="0.533846">
        <ele>2319.5</ele>
        <time>2020-06-02T09:24:02Z</time>
      </trkpt>
      <trkpt lat="42.753632" lon="0.533726">
        <ele>2322.1</ele>
        <time>2020-06-02T09:24:53Z</time>
      </trkpt>
      <trkpt lat="42.753619" lon="0.533607">
        <ele>2324.6</ele>
        <time>2020-06-02T09:25:05Z</time>
      </trkpt>
      <trkpt lat="42.753614" lon="0.533491">
        <ele>2327.5</ele>
        <time>2020-06-02T09:25:20Z</time>
      </trkpt>
      <trkpt lat="42.753588" lon="0.533381">
        <ele>2330.1</ele>
        <time>2020-06-02T09:25:37Z</time>
      </trkpt>
      <trkpt lat="42.753547" lon="0.533288">
        <ele>2334.4</ele>
        <time>2020-06-02T09:25:55Z</time>
      </trkpt>
      <trkpt lat="42.753566" lon="0.533184">
        <ele>2336.1</ele>
        <time>2020-06-02T09:26:09Z</time>
      </trkpt>
      <trkpt lat="42.753507" lon="0.533115">
        <ele>2341.7</ele>
        <time>2020-06-02T09:26:33Z</time>
      </trkpt>
      <trkpt lat="42.753468" lon="0.533018">
        <ele>2346.1</ele>
        <time>2020-06-02T09:26:55Z</time>
      </trkpt>
      <trkpt lat="42.753459" lon="0.532908">
        <ele>2349.6</ele>
        <time>2020-06-02T09:27:14Z</time>
      </trkpt>
      <trkpt lat="42.753420" lon="0.532818">
        <ele>2354.1</ele>
        <time>2020-06-02T09:27:37Z</time>
      </trkpt>
      <trkpt lat="42.753410" lon="0.532770">
        <ele>2356.0</ele>
        <time>2020-06-02T09:28:10Z</time>
      </trkpt>
      <trkpt lat="42.753411" lon="0.532698">
        <ele>2356.1</ele>
        <time>2020-06-02T09:29:00Z</time>
      </trkpt>
      <trkpt lat="42.753406" lon="0.532566">
        <ele>2356.1</ele>
        <time>2020-06-02T09:29:11Z</time>
      </trkpt>
      <trkpt lat="42.753395" lon="0.532437">
        <ele>2356.1</ele>
        <time>2020-06-02T09:29:22Z</time>
      </trkpt>
      <trkpt lat="42.753385" lon="0.532322">
        <ele>2357.0</ele>
        <time>2020-06-02T09:29:34Z</time>
      </trkpt>
      <trkpt lat="42.753376" lon="0.532212">
        <ele>2356.9</ele>
        <time>2020-06-02T09:29:48Z</time>
      </trkpt>
      <trkpt lat="42.753359" lon="0.532082">
        <ele>2357.0</ele>
        <time>2020-06-02T09:29:57Z</time>
      </trkpt>
      <trkpt lat="42.753341" lon="0.531953">
        <ele>2357.1</ele>
        <time>2020-06-02T09:30:06Z</time>
      </trkpt>
      <trkpt lat="42.753322" lon="0.531825">
        <ele>2357.0</ele>
        <time>2020-06-02T09:30:14Z</time>
      </trkpt>
      <trkpt lat="42.753293" lon="0.531710">
        <ele>2357.1</ele>
        <time>2020-06-02T09:30:23Z</time>
      </trkpt>
      <trkpt lat="42.753286" lon="0.531582">
        <ele>2357.1</ele>
        <time>2020-06-02T09:30:33Z</time>
      </trkpt>
      <trkpt lat="42.753272" lon="0.531453">
        <ele>2357.9</ele>
        <time>2020-06-02T09:30:42Z</time>
      </trkpt>
      <trkpt lat="42.753248" lon="0.531329">
        <ele>2359.7</ele>
        <time>2020-06-02T09:30:52Z</time>
      </trkpt>
      <trkpt lat="42.753216" lon="0.531210">
        <ele>2360.5</ele>
        <time>2020-06-02T09:31:02Z</time>
      </trkpt>
      <trkpt lat="42.753190" lon="0.531090">
        <ele>2362.4</ele>
        <time>2020-06-02T09:31:14Z</time>
      </trkpt>
      <trkpt lat="42.753181" lon="0.530970">
        <ele>2364.2</ele>
        <time>2020-06-02T09:31:26Z</time>
      </trkpt>
      <trkpt lat="42.753157" lon="0.530852">
        <ele>2365.1</ele>
        <time>2020-06-02T09:31:37Z</time>
      </trkpt>
      <trkpt lat="42.753188" lon="0.530712">
        <ele>2366.1</ele>
        <time>2020-06-02T09:32:29Z</time>
      </trkpt>
      <trkpt lat="42.753178" lon="0.530602">
        <ele>2366.1</ele>
        <time>2020-06-02T09:32:39Z</time>
      </trkpt>
      <trkpt lat="42.753116" lon="0.530560">
        <ele>2366.3</ele>
        <time>2020-06-02T09:33:45Z</time>
      </trkpt>
      <trkpt lat="42.753041" lon="0.530502">
        <ele>2362.1</ele>
        <time>2020-06-02T09:34:00Z</time>
      </trkpt>
      <trkpt lat="42.752963" lon="0.530460">
        <ele>2357.1</ele>
        <time>2020-06-02T09:34:15Z</time>
      </trkpt>
      <trkpt lat="42.752882" lon="0.530391">
        <ele>2354.4</ele>
        <time>2020-06-02T09:34:26Z</time>
      </trkpt>
      <trkpt lat="42.752790" lon="0.530350">
        <ele>2351.2</ele>
        <time>2020-06-02T09:34:36Z</time>
      </trkpt>
      <trkpt lat="42.752706" lon="0.530312">
        <ele>2351.2</ele>
        <time>2020-06-02T09:34:48Z</time>
      </trkpt>
      <trkpt lat="42.752658" lon="0.530264">
        <ele>2348.8</ele>
        <time>2020-06-02T09:35:06Z</time>
      </trkpt>
      <trkpt lat="42.752640" lon="0.530206">
        <ele>2344.4</ele>
        <time>2020-06-02T09:35:29Z</time>
      </trkpt>
      <trkpt lat="42.752592" lon="0.530155">
        <ele>2340.4</ele>
        <time>2020-06-02T09:35:49Z</time>
      </trkpt>
      <trkpt lat="42.752523" lon="0.530103">
        <ele>2336.4</ele>
        <time>2020-06-02T09:36:07Z</time>
      </trkpt>
      <trkpt lat="42.752465" lon="0.530043">
        <ele>2333.1</ele>
        <time>2020-06-02T09:36:28Z</time>
      </trkpt>
      <trkpt lat="42.752382" lon="0.530007">
        <ele>2329.9</ele>
        <time>2020-06-02T09:36:43Z</time>
      </trkpt>
      <trkpt lat="42.752323" lon="0.529954">
        <ele>2326.5</ele>
        <time>2020-06-02T09:36:59Z</time>
      </trkpt>
      <trkpt lat="42.752272" lon="0.529878">
        <ele>2322.2</ele>
        <time>2020-06-02T09:37:13Z</time>
      </trkpt>
      <trkpt lat="42.752208" lon="0.529831">
        <ele>2319.7</ele>
        <time>2020-06-02T09:37:26Z</time>
      </trkpt>
      <trkpt lat="42.752145" lon="0.529801">
        <ele>2316.2</ele>
        <time>2020-06-02T09:37:39Z</time>
      </trkpt>
      <trkpt lat="42.752067" lon="0.529766">
        <ele>2313.2</ele>
        <time>2020-06-02T09:37:52Z</time>
      </trkpt>
      <trkpt lat="42.751978" lon="0.529742">
        <ele>2308.8</ele>
        <time>2020-06-02T09:38:05Z</time>
      </trkpt>
      <trkpt lat="42.751905" lon="0.529693">
        <ele>2306.0</ele>
        <time>2020-06-02T09:38:17Z</time>
      </trkpt>
      <trkpt lat="42.751823" lon="0.529665">
        <ele>2302.6</ele>
        <time>2020-06-02T09:38:30Z</time>
      </trkpt>
      <trkpt lat="42.751735" lon="0.529639">
        <ele>2299.2</ele>
        <time>2020-06-02T09:38:44Z</time>
      </trkpt>
      <trkpt lat="42.751646" lon="0.529616">
        <ele>2296.5</ele>
        <time>2020-06-02T09:38:55Z</time>
      </trkpt>
      <trkpt lat="42.751556" lon="0.529606">
        <ele>2294.0</ele>
        <time>2020-06-02T09:39:06Z</time>
      </trkpt>
      <trkpt lat="42.751476" lon="0.529597">
        <ele>2292.3</ele>
        <time>2020-06-02T09:39:21Z</time>
      </trkpt>
      <trkpt lat="42.751409" lon="0.529604">
        <ele>2289.6</ele>
        <time>2020-06-02T09:39:42Z</time>
      </trkpt>
      <trkpt lat="42.751376" lon="0.529528">
        <ele>2286.4</ele>
        <time>2020-06-02T09:39:57Z</time>
      </trkpt>
      <trkpt lat="42.751282" lon="0.529533">
        <ele>2284.8</ele>
        <time>2020-06-02T09:40:06Z</time>
      </trkpt>
      <trkpt lat="42.751187" lon="0.529532">
        <ele>2284.1</ele>
        <time>2020-06-02T09:40:16Z</time>
      </trkpt>
      <trkpt lat="42.751099" lon="0.529535">
        <ele>2283.0</ele>
        <time>2020-06-02T09:40:25Z</time>
      </trkpt>
      <trkpt lat="42.751017" lon="0.529493">
        <ele>2280.3</ele>
        <time>2020-06-02T09:40:35Z</time>
      </trkpt>
      <trkpt lat="42.750936" lon="0.529438">
        <ele>2278.6</ele>
        <time>2020-06-02T09:40:45Z</time>
      </trkpt>
      <trkpt lat="42.750865" lon="0.529365">
        <ele>2276.8</ele>
        <time>2020-06-02T09:40:55Z</time>
      </trkpt>
      <trkpt lat="42.750778" lon="0.529404">
        <ele>2276.8</ele>
        <time>2020-06-02T09:41:08Z</time>
      </trkpt>
      <trkpt lat="42.750688" lon="0.529387">
        <ele>2281.2</ele>
        <time>2020-06-02T09:41:22Z</time>
      </trkpt>
      <trkpt lat="42.750598" lon="0.529367">
        <ele>2283.8</ele>
        <time>2020-06-02T09:41:39Z</time>
      </trkpt>
      <trkpt lat="42.750515" lon="0.529325">
        <ele>2286.3</ele>
        <time>2020-06-02T09:41:56Z</time>
      </trkpt>
      <trkpt lat="42.750426" lon="0.529308">
        <ele>2288.8</ele>
        <time>2020-06-02T09:42:15Z</time>
      </trkpt>
      <trkpt lat="42.750338" lon="0.529321">
        <ele>2292.6</ele>
        <time>2020-06-02T09:42:36Z</time>
      </trkpt>
      <trkpt lat="42.750259" lon="0.529289">
        <ele>2296.0</ele>
        <time>2020-06-02T09:42:58Z</time>
      </trkpt>
      <trkpt lat="42.750177" lon="0.529256">
        <ele>2298.9</ele>
        <time>2020-06-02T09:43:18Z</time>
      </trkpt>
      <trkpt lat="42.750093" lon="0.529230">
        <ele>2301.8</ele>
        <time>2020-06-02T09:43:32Z</time>
      </trkpt>
      <trkpt lat="42.750006" lon="0.529238">
        <ele>2305.5</ele>
        <time>2020-06-02T09:43:49Z</time>
      </trkpt>
      <trkpt lat="42.749920" lon="0.529198">
        <ele>2308.0</ele>
        <time>2020-06-02T09:44:07Z</time>
      </trkpt>
      <trkpt lat="42.749835" lon="0.529156">
        <ele>2310.6</ele>
        <time>2020-06-02T09:44:21Z</time>
      </trkpt>
      <trkpt lat="42.749747" lon="0.529135">
        <ele>2312.6</ele>
        <time>2020-06-02T09:44:36Z</time>
      </trkpt>
      <trkpt lat="42.749656" lon="0.529131">
        <ele>2316.0</ele>
        <time>2020-06-02T09:44:53Z</time>
      </trkpt>
      <trkpt lat="42.749574" lon="0.529099">
        <ele>2318.6</ele>
        <time>2020-06-02T09:45:12Z</time>
      </trkpt>
      <trkpt lat="42.749487" lon="0.529080">
        <ele>2322.1</ele>
        <time>2020-06-02T09:45:31Z</time>
      </trkpt>
      <trkpt lat="42.749404" lon="0.529066">
        <ele>2325.5</ele>
        <time>2020-06-02T09:45:55Z</time>
      </trkpt>
      <trkpt lat="42.749319" lon="0.529112">
        <ele>2330.5</ele>
        <time>2020-06-02T09:46:21Z</time>
      </trkpt>
      <trkpt lat="42.749244" lon="0.529061">
        <ele>2336.8</ele>
        <time>2020-06-02T09:46:49Z</time>
      </trkpt>
      <trkpt lat="42.749157" lon="0.529055">
        <ele>2342.0</ele>
        <time>2020-06-02T09:47:21Z</time>
      </trkpt>
      <trkpt lat="42.749067" lon="0.529122">
        <ele>2346.3</ele>
        <time>2020-06-02T09:47:45Z</time>
      </trkpt>
      <trkpt lat="42.748983" lon="0.529144">
        <ele>2351.3</ele>
        <time>2020-06-02T09:48:07Z</time>
      </trkpt>
      <trkpt lat="42.748905" lon="0.529128">
        <ele>2356.2</ele>
        <time>2020-06-02T09:48:30Z</time>
      </trkpt>
      <trkpt lat="42.748826" lon="0.529115">
        <ele>2361.5</ele>
        <time>2020-06-02T09:48:51Z</time>
      </trkpt>
      <trkpt lat="42.748738" lon="0.529114">
        <ele>2365.0</ele>
        <time>2020-06-02T09:49:11Z</time>
      </trkpt>
      <trkpt lat="42.748658" lon="0.529122">
        <ele>2368.5</ele>
        <time>2020-06-02T09:49:30Z</time>
      </trkpt>
      <trkpt lat="42.748603" lon="0.529060">
        <ele>2372.6</ele>
        <time>2020-06-02T09:49:50Z</time>
      </trkpt>
      <trkpt lat="42.748529" lon="0.529010">
        <ele>2375.1</ele>
        <time>2020-06-02T09:50:05Z</time>
      </trkpt>
      <trkpt lat="42.748433" lon="0.528995">
        <ele>2376.6</ele>
        <time>2020-06-02T09:50:17Z</time>
      </trkpt>
      <trkpt lat="42.748342" lon="0.529020">
        <ele>2376.6</ele>
        <time>2020-06-02T09:50:27Z</time>
      </trkpt>
      <trkpt lat="42.748252" lon="0.529055">
        <ele>2377.5</ele>
        <time>2020-06-02T09:50:40Z</time>
      </trkpt>
      <trkpt lat="42.748155" lon="0.529041">
        <ele>2379.1</ele>
        <time>2020-06-02T09:50:55Z</time>
      </trkpt>
      <trkpt lat="42.748071" lon="0.528994">
        <ele>2384.1</ele>
        <time>2020-06-02T09:51:14Z</time>
      </trkpt>
      <trkpt lat="42.748024" lon="0.528904">
        <ele>2387.7</ele>
        <time>2020-06-02T09:51:35Z</time>
      </trkpt>
      <trkpt lat="42.747977" lon="0.528883">
        <ele>2392.0</ele>
        <time>2020-06-02T09:51:56Z</time>
      </trkpt>
      <trkpt lat="42.747925" lon="0.528980">
        <ele>2395.5</ele>
        <time>2020-06-02T09:52:17Z</time>
      </trkpt>
      <trkpt lat="42.747842" lon="0.529004">
        <ele>2399.8</ele>
        <time>2020-06-02T09:52:39Z</time>
      </trkpt>
      <trkpt lat="42.747767" lon="0.528941">
        <ele>2405.1</ele>
        <time>2020-06-02T09:53:05Z</time>
      </trkpt>
      <trkpt lat="42.747722" lon="0.528891">
        <ele>2407.4</ele>
        <time>2020-06-02T09:53:25Z</time>
      </trkpt>
      <trkpt lat="42.747649" lon="0.528840">
        <ele>2412.1</ele>
        <time>2020-06-02T09:53:51Z</time>
      </trkpt>
      <trkpt lat="42.747583" lon="0.528771">
        <ele>2416.4</ele>
        <time>2020-06-02T09:54:16Z</time>
      </trkpt>
      <trkpt lat="42.747497" lon="0.528738">
        <ele>2419.9</ele>
        <time>2020-06-02T09:54:33Z</time>
      </trkpt>
      <trkpt lat="42.747427" lon="0.528789">
        <ele>2419.8</ele>
        <time>2020-06-02T09:54:47Z</time>
      </trkpt>
      <trkpt lat="42.747412" lon="0.528798">
        <ele>2419.8</ele>
        <time>2020-06-02T09:55:52Z</time>
      </trkpt>
      <trkpt lat="42.747325" lon="0.528839">
        <ele>2416.5</ele>
        <time>2020-06-02T09:56:04Z</time>
      </trkpt>
      <trkpt lat="42.747233" lon="0.528805">
        <ele>2414.6</ele>
        <time>2020-06-02T09:56:13Z</time>
      </trkpt>
      <trkpt lat="42.747145" lon="0.528766">
        <ele>2414.0</ele>
        <time>2020-06-02T09:56:22Z</time>
      </trkpt>
      <trkpt lat="42.747062" lon="0.528709">
        <ele>2416.5</ele>
        <time>2020-06-02T09:56:35Z</time>
      </trkpt>
      <trkpt lat="42.746992" lon="0.528622">
        <ele>2419.3</ele>
        <time>2020-06-02T09:56:49Z</time>
      </trkpt>
      <trkpt lat="42.746955" lon="0.528518">
        <ele>2423.4</ele>
        <time>2020-06-02T09:57:08Z</time>
      </trkpt>
      <trkpt lat="42.746928" lon="0.528405">
        <ele>2426.8</ele>
        <time>2020-06-02T09:57:26Z</time>
      </trkpt>
      <trkpt lat="42.746863" lon="0.528347">
        <ele>2430.5</ele>
        <time>2020-06-02T10:00:26Z</time>
      </trkpt>
      <trkpt lat="42.746778" lon="0.528351">
        <ele>2430.4</ele>
        <time>2020-06-02T10:00:37Z</time>
      </trkpt>
      <trkpt lat="42.746698" lon="0.528342">
        <ele>2425.4</ele>
        <time>2020-06-02T10:00:50Z</time>
      </trkpt>
      <trkpt lat="42.746608" lon="0.528340">
        <ele>2422.6</ele>
        <time>2020-06-02T10:01:01Z</time>
      </trkpt>
      <trkpt lat="42.746510" lon="0.528319">
        <ele>2420.8</ele>
        <time>2020-06-02T10:01:10Z</time>
      </trkpt>
      <trkpt lat="42.746414" lon="0.528283">
        <ele>2420.1</ele>
        <time>2020-06-02T10:01:19Z</time>
      </trkpt>
      <trkpt lat="42.746327" lon="0.528242">
        <ele>2420.1</ele>
        <time>2020-06-02T10:01:28Z</time>
      </trkpt>
      <trkpt lat="42.746237" lon="0.528242">
        <ele>2420.1</ele>
        <time>2020-06-02T10:01:36Z</time>
      </trkpt>
      <trkpt lat="42.746149" lon="0.528210">
        <ele>2418.4</ele>
        <time>2020-06-02T10:01:44Z</time>
      </trkpt>
      <trkpt lat="42.746058" lon="0.528191">
        <ele>2417.6</ele>
        <time>2020-06-02T10:01:52Z</time>
      </trkpt>
      <trkpt lat="42.745959" lon="0.528185">
        <ele>2416.7</ele>
        <time>2020-06-02T10:02:00Z</time>
      </trkpt>
      <trkpt lat="42.745873" lon="0.528121">
        <ele>2415.9</ele>
        <time>2020-06-02T10:02:09Z</time>
      </trkpt>
      <trkpt lat="42.745792" lon="0.528065">
        <ele>2416.0</ele>
        <time>2020-06-02T10:02:18Z</time>
      </trkpt>
      <trkpt lat="42.745720" lon="0.527986">
        <ele>2416.1</ele>
        <time>2020-06-02T10:02:30Z</time>
      </trkpt>
      <trkpt lat="42.745656" lon="0.527907">
        <ele>2422.1</ele>
        <time>2020-06-02T10:02:47Z</time>
      </trkpt>
      <trkpt lat="42.745583" lon="0.527885">
        <ele>2425.8</ele>
        <time>2020-06-02T10:03:08Z</time>
      </trkpt>
      <trkpt lat="42.745559" lon="0.527782">
        <ele>2430.0</ele>
        <time>2020-06-02T10:03:29Z</time>
      </trkpt>
      <trkpt lat="42.745541" lon="0.527668">
        <ele>2432.6</ele>
        <time>2020-06-02T10:03:49Z</time>
      </trkpt>
      <trkpt lat="42.745516" lon="0.527553">
        <ele>2433.4</ele>
        <time>2020-06-02T10:04:06Z</time>
      </trkpt>
      <trkpt lat="42.745484" lon="0.527446">
        <ele>2435.1</ele>
        <time>2020-06-02T10:04:22Z</time>
      </trkpt>
      <trkpt lat="42.745459" lon="0.527332">
        <ele>2435.1</ele>
        <time>2020-06-02T10:04:36Z</time>
      </trkpt>
      <trkpt lat="42.745407" lon="0.527230">
        <ele>2436.0</ele>
        <time>2020-06-02T10:05:02Z</time>
      </trkpt>
      <trkpt lat="42.745403" lon="0.527114">
        <ele>2436.0</ele>
        <time>2020-06-02T10:05:33Z</time>
      </trkpt>
      <trkpt lat="42.745362" lon="0.527013">
        <ele>2433.7</ele>
        <time>2020-06-02T10:06:04Z</time>
      </trkpt>
      <trkpt lat="42.745304" lon="0.526917">
        <ele>2431.1</ele>
        <time>2020-06-02T10:06:32Z</time>
      </trkpt>
      <trkpt lat="42.745256" lon="0.526804">
        <ele>2426.8</ele>
        <time>2020-06-02T10:06:45Z</time>
      </trkpt>
      <trkpt lat="42.745209" lon="0.526724">
        <ele>2422.2</ele>
        <time>2020-06-02T10:07:08Z</time>
      </trkpt>
      <trkpt lat="42.745146" lon="0.526656">
        <ele>2417.5</ele>
        <time>2020-06-02T10:07:27Z</time>
      </trkpt>
      <trkpt lat="42.745101" lon="0.526547">
        <ele>2416.0</ele>
        <time>2020-06-02T10:07:36Z</time>
      </trkpt>
      <trkpt lat="42.745049" lon="0.526455">
        <ele>2413.4</ele>
        <time>2020-06-02T10:07:49Z</time>
      </trkpt>
      <trkpt lat="42.745030" lon="0.526328">
        <ele>2411.2</ele>
        <time>2020-06-02T10:07:58Z</time>
      </trkpt>
      <trkpt lat="42.744969" lon="0.526313">
        <ele>2408.5</ele>
        <time>2020-06-02T10:08:15Z</time>
      </trkpt>
      <trkpt lat="42.744902" lon="0.526274">
        <ele>2404.0</ele>
        <time>2020-06-02T10:08:33Z</time>
      </trkpt>
      <trkpt lat="42.744839" lon="0.526225">
        <ele>2399.4</ele>
        <time>2020-06-02T10:08:49Z</time>
      </trkpt>
      <trkpt lat="42.744758" lon="0.526154">
        <ele>2393.4</ele>
        <time>2020-06-02T10:09:00Z</time>
      </trkpt>
      <trkpt lat="42.744669" lon="0.526098">
        <ele>2389.3</ele>
        <time>2020-06-02T10:09:10Z</time>
      </trkpt>
      <trkpt lat="42.744579" lon="0.526049">
        <ele>2386.6</ele>
        <time>2020-06-02T10:09:20Z</time>
      </trkpt>
      <trkpt lat="42.744491" lon="0.525983">
        <ele>2384.9</ele>
        <time>2020-06-02T10:09:32Z</time>
      </trkpt>
      <trkpt lat="42.744430" lon="0.525887">
        <ele>2385.0</ele>
        <time>2020-06-02T10:09:47Z</time>
      </trkpt>
      <trkpt lat="42.744435" lon="0.525779">
        <ele>2390.9</ele>
        <time>2020-06-02T10:10:07Z</time>
      </trkpt>
      <trkpt lat="42.744409" lon="0.525664">
        <ele>2395.2</ele>
        <time>2020-06-02T10:10:28Z</time>
      </trkpt>
      <trkpt lat="42.744439" lon="0.525594">
        <ele>2398.9</ele>
        <time>2020-06-02T10:10:46Z</time>
      </trkpt>
      <trkpt lat="42.744411" lon="0.525491">
        <ele>2402.4</ele>
        <time>2020-06-02T10:11:04Z</time>
      </trkpt>
      <trkpt lat="42.744350" lon="0.525396">
        <ele>2402.3</ele>
        <time>2020-06-02T10:11:14Z</time>
      </trkpt>
      <trkpt lat="42.744299" lon="0.525294">
        <ele>2403.2</ele>
        <time>2020-06-02T10:11:24Z</time>
      </trkpt>
      <trkpt lat="42.744262" lon="0.525183">
        <ele>2403.2</ele>
        <time>2020-06-02T10:11:33Z</time>
      </trkpt>
      <trkpt lat="42.744216" lon="0.525069">
        <ele>2404.1</ele>
        <time>2020-06-02T10:11:44Z</time>
      </trkpt>
      <trkpt lat="42.744154" lon="0.524984">
        <ele>2405.9</ele>
        <time>2020-06-02T10:11:55Z</time>
      </trkpt>
      <trkpt lat="42.744084" lon="0.524899">
        <ele>2405.9</ele>
        <time>2020-06-02T10:12:08Z</time>
      </trkpt>
      <trkpt lat="42.744050" lon="0.524786">
        <ele>2403.7</ele>
        <time>2020-06-02T10:12:20Z</time>
      </trkpt>
      <trkpt lat="42.744003" lon="0.524693">
        <ele>2403.7</ele>
        <time>2020-06-02T10:12:31Z</time>
      </trkpt>
      <trkpt lat="42.743921" lon="0.524649">
        <ele>2402.8</ele>
        <time>2020-06-02T10:12:42Z</time>
      </trkpt>
      <trkpt lat="42.743844" lon="0.524595">
        <ele>2402.8</ele>
        <time>2020-06-02T10:12:56Z</time>
      </trkpt>
      <trkpt lat="42.743779" lon="0.524529">
        <ele>2408.8</ele>
        <time>2020-06-02T10:13:30Z</time>
      </trkpt>
      <trkpt lat="42.743708" lon="0.524453">
        <ele>2411.4</ele>
        <time>2020-06-02T10:13:49Z</time>
      </trkpt>
      <trkpt lat="42.743669" lon="0.524377">
        <ele>2412.4</ele>
        <time>2020-06-02T10:14:55Z</time>
      </trkpt>
      <trkpt lat="42.743663" lon="0.524271">
        <ele>2409.9</ele>
        <time>2020-06-02T10:15:22Z</time>
      </trkpt>
      <trkpt lat="42.743647" lon="0.524177">
        <ele>2407.5</ele>
        <time>2020-06-02T10:15:46Z</time>
      </trkpt>
      <trkpt lat="42.743616" lon="0.524077">
        <ele>2405.8</ele>
        <time>2020-06-02T10:16:03Z</time>
      </trkpt>
      <trkpt lat="42.743589" lon="0.523961">
        <ele>2402.3</ele>
        <time>2020-06-02T10:16:17Z</time>
      </trkpt>
      <trkpt lat="42.743595" lon="0.523840">
        <ele>2402.4</ele>
        <time>2020-06-02T10:16:30Z</time>
      </trkpt>
      <trkpt lat="42.743605" lon="0.523722">
        <ele>2402.4</ele>
        <time>2020-06-02T10:16:40Z</time>
      </trkpt>
      <trkpt lat="42.743612" lon="0.523591">
        <ele>2402.4</ele>
        <time>2020-06-02T10:16:50Z</time>
      </trkpt>
      <trkpt lat="42.743602" lon="0.523461">
        <ele>2401.5</ele>
        <time>2020-06-02T10:17:00Z</time>
      </trkpt>
      <trkpt lat="42.743592" lon="0.523341">
        <ele>2401.5</ele>
        <time>2020-06-02T10:17:10Z</time>
      </trkpt>
      <trkpt lat="42.743572" lon="0.523223">
        <ele>2401.5</ele>
        <time>2020-06-02T10:17:23Z</time>
      </trkpt>
      <trkpt lat="42.743561" lon="0.523109">
        <ele>2405.8</ele>
        <time>2020-06-02T10:17:38Z</time>
      </trkpt>
      <trkpt lat="42.743533" lon="0.523000">
        <ele>2407.4</ele>
        <time>2020-06-02T10:17:54Z</time>
      </trkpt>
      <trkpt lat="42.743495" lon="0.522882">
        <ele>2407.4</ele>
        <time>2020-06-02T10:18:07Z</time>
      </trkpt>
      <trkpt lat="42.743452" lon="0.522778">
        <ele>2409.3</ele>
        <time>2020-06-02T10:18:22Z</time>
      </trkpt>
      <trkpt lat="42.743435" lon="0.522684">
        <ele>2412.8</ele>
        <time>2020-06-02T10:18:44Z</time>
      </trkpt>
      <trkpt lat="42.743442" lon="0.522577">
        <ele>2416.2</ele>
        <time>2020-06-02T10:19:07Z</time>
      </trkpt>
      <trkpt lat="42.743433" lon="0.522466">
        <ele>2419.6</ele>
        <time>2020-06-02T10:19:27Z</time>
      </trkpt>
      <trkpt lat="42.743460" lon="0.522378">
        <ele>2421.3</ele>
        <time>2020-06-02T10:20:56Z</time>
      </trkpt>
      <trkpt lat="42.743465" lon="0.522328">
        <ele>2421.7</ele>
        <time>2020-06-02T10:23:57Z</time>
      </trkpt>
      <trkpt lat="42.743426" lon="0.522230">
        <ele>2421.7</ele>
        <time>2020-06-02T10:24:17Z</time>
      </trkpt>
      <trkpt lat="42.743380" lon="0.522117">
        <ele>2418.5</ele>
        <time>2020-06-02T10:24:27Z</time>
      </trkpt>
      <trkpt lat="42.743367" lon="0.522004">
        <ele>2417.8</ele>
        <time>2020-06-02T10:24:36Z</time>
      </trkpt>
      <trkpt lat="42.743315" lon="0.521891">
        <ele>2416.9</ele>
        <time>2020-06-02T10:24:45Z</time>
      </trkpt>
      <trkpt lat="42.743235" lon="0.521813">
        <ele>2417.0</ele>
        <time>2020-06-02T10:24:56Z</time>
      </trkpt>
      <trkpt lat="42.743152" lon="0.521759">
        <ele>2415.2</ele>
        <time>2020-06-02T10:25:08Z</time>
      </trkpt>
      <trkpt lat="42.743068" lon="0.521708">
        <ele>2412.4</ele>
        <time>2020-06-02T10:25:19Z</time>
      </trkpt>
      <trkpt lat="42.742975" lon="0.521658">
        <ele>2410.6</ele>
        <time>2020-06-02T10:25:30Z</time>
      </trkpt>
      <trkpt lat="42.742890" lon="0.521605">
        <ele>2407.8</ele>
        <time>2020-06-02T10:25:42Z</time>
      </trkpt>
      <trkpt lat="42.742803" lon="0.521574">
        <ele>2406.0</ele>
        <time>2020-06-02T10:25:55Z</time>
      </trkpt>
      <trkpt lat="42.742719" lon="0.521567">
        <ele>2406.1</ele>
        <time>2020-06-02T10:26:07Z</time>
      </trkpt>
      <trkpt lat="42.742630" lon="0.521552">
        <ele>2406.3</ele>
        <time>2020-06-02T10:26:21Z</time>
      </trkpt>
      <trkpt lat="42.742575" lon="0.521473">
        <ele>2408.7</ele>
        <time>2020-06-02T10:26:57Z</time>
      </trkpt>
      <trkpt lat="42.742555" lon="0.521390">
        <ele>2403.5</ele>
        <time>2020-06-02T10:27:23Z</time>
      </trkpt>
      <trkpt lat="42.742488" lon="0.521380">
        <ele>2400.3</ele>
        <time>2020-06-02T10:27:45Z</time>
      </trkpt>
      <trkpt lat="42.742417" lon="0.521335">
        <ele>2397.7</ele>
        <time>2020-06-02T10:28:27Z</time>
      </trkpt>
      <trkpt lat="42.742381" lon="0.521258">
        <ele>2393.1</ele>
        <time>2020-06-02T10:28:46Z</time>
      </trkpt>
      <trkpt lat="42.742323" lon="0.521179">
        <ele>2389.6</ele>
        <time>2020-06-02T10:29:10Z</time>
      </trkpt>
      <trkpt lat="42.742257" lon="0.521153">
        <ele>2387.0</ele>
        <time>2020-06-02T10:29:28Z</time>
      </trkpt>
      <trkpt lat="42.742181" lon="0.521119">
        <ele>2384.3</ele>
        <time>2020-06-02T10:29:44Z</time>
      </trkpt>
      <trkpt lat="42.742111" lon="0.521064">
        <ele>2380.8</ele>
        <time>2020-06-02T10:30:03Z</time>
      </trkpt>
      <trkpt lat="42.742028" lon="0.521033">
        <ele>2379.9</ele>
        <time>2020-06-02T10:30:32Z</time>
      </trkpt>
      <trkpt lat="42.741943" lon="0.520986">
        <ele>2378.2</ele>
        <time>2020-06-02T10:30:44Z</time>
      </trkpt>
      <trkpt lat="42.741855" lon="0.520949">
        <ele>2377.4</ele>
        <time>2020-06-02T10:30:56Z</time>
      </trkpt>
      <trkpt lat="42.741766" lon="0.520903">
        <ele>2377.5</ele>
        <time>2020-06-02T10:31:09Z</time>
      </trkpt>
      <trkpt lat="42.741688" lon="0.520835">
        <ele>2377.5</ele>
        <time>2020-06-02T10:31:35Z</time>
      </trkpt>
      <trkpt lat="42.741621" lon="0.520869">
        <ele>2380.8</ele>
        <time>2020-06-02T10:31:56Z</time>
      </trkpt>
      <trkpt lat="42.741566" lon="0.520852">
        <ele>2383.3</ele>
        <time>2020-06-02T10:32:20Z</time>
      </trkpt>
      <trkpt lat="42.741484" lon="0.520812">
        <ele>2386.6</ele>
        <time>2020-06-02T10:32:40Z</time>
      </trkpt>
      <trkpt lat="42.741435" lon="0.520853">
        <ele>2391.5</ele>
        <time>2020-06-02T10:33:04Z</time>
      </trkpt>
      <trkpt lat="42.741370" lon="0.520784">
        <ele>2392.3</ele>
        <time>2020-06-02T10:33:20Z</time>
      </trkpt>
      <trkpt lat="42.741311" lon="0.520705">
        <ele>2394.9</ele>
        <time>2020-06-02T10:33:37Z</time>
      </trkpt>
      <trkpt lat="42.741228" lon="0.520646">
        <ele>2396.6</ele>
        <time>2020-06-02T10:33:52Z</time>
      </trkpt>
      <trkpt lat="42.741151" lon="0.520607">
        <ele>2400.0</ele>
        <time>2020-06-02T10:34:15Z</time>
      </trkpt>
      <trkpt lat="42.741076" lon="0.520613">
        <ele>2405.6</ele>
        <time>2020-06-02T10:34:42Z</time>
      </trkpt>
      <trkpt lat="42.741013" lon="0.520619">
        <ele>2410.1</ele>
        <time>2020-06-02T10:35:06Z</time>
      </trkpt>
      <trkpt lat="42.740953" lon="0.520659">
        <ele>2415.4</ele>
        <time>2020-06-02T10:35:32Z</time>
      </trkpt>
      <trkpt lat="42.740948" lon="0.520746">
        <ele>2419.7</ele>
        <time>2020-06-02T10:35:55Z</time>
      </trkpt>
      <trkpt lat="42.740888" lon="0.520789">
        <ele>2423.4</ele>
        <time>2020-06-02T10:36:17Z</time>
      </trkpt>
      <trkpt lat="42.740841" lon="0.520892">
        <ele>2424.1</ele>
        <time>2020-06-02T10:36:32Z</time>
      </trkpt>
      <trkpt lat="42.740784" lon="0.520991">
        <ele>2422.1</ele>
        <time>2020-06-02T10:36:45Z</time>
      </trkpt>
      <trkpt lat="42.740698" lon="0.521042">
        <ele>2421.2</ele>
        <time>2020-06-02T10:36:58Z</time>
      </trkpt>
      <trkpt lat="42.740599" lon="0.521075">
        <ele>2420.2</ele>
        <time>2020-06-02T10:37:09Z</time>
      </trkpt>
      <trkpt lat="42.740508" lon="0.521117">
        <ele>2420.3</ele>
        <time>2020-06-02T10:37:20Z</time>
      </trkpt>
      <trkpt lat="42.740412" lon="0.521154">
        <ele>2422.6</ele>
        <time>2020-06-02T10:37:30Z</time>
      </trkpt>
      <trkpt lat="42.740318" lon="0.521191">
        <ele>2423.4</ele>
        <time>2020-06-02T10:37:40Z</time>
      </trkpt>
      <trkpt lat="42.740227" lon="0.521219">
        <ele>2424.1</ele>
        <time>2020-06-02T10:37:49Z</time>
      </trkpt>
      <trkpt lat="42.740139" lon="0.521255">
        <ele>2424.1</ele>
        <time>2020-06-02T10:37:59Z</time>
      </trkpt>
      <trkpt lat="42.740051" lon="0.521272">
        <ele>2425.8</ele>
        <time>2020-06-02T10:38:12Z</time>
      </trkpt>
      <trkpt lat="42.739969" lon="0.521310">
        <ele>2430.1</ele>
        <time>2020-06-02T10:38:30Z</time>
      </trkpt>
      <trkpt lat="42.739884" lon="0.521306">
        <ele>2433.4</ele>
        <time>2020-06-02T10:38:49Z</time>
      </trkpt>
      <trkpt lat="42.739796" lon="0.521293">
        <ele>2437.4</ele>
        <time>2020-06-02T10:39:09Z</time>
      </trkpt>
      <trkpt lat="42.739708" lon="0.521285">
        <ele>2441.7</ele>
        <time>2020-06-02T10:39:30Z</time>
      </trkpt>
      <trkpt lat="42.739653" lon="0.521339">
        <ele>2447.0</ele>
        <time>2020-06-02T10:39:55Z</time>
      </trkpt>
      <trkpt lat="42.739595" lon="0.521388">
        <ele>2450.9</ele>
        <time>2020-06-02T10:40:16Z</time>
      </trkpt>
      <trkpt lat="42.739516" lon="0.521410">
        <ele>2454.3</ele>
        <time>2020-06-02T10:40:38Z</time>
      </trkpt>
      <trkpt lat="42.739438" lon="0.521403">
        <ele>2459.4</ele>
        <time>2020-06-02T10:41:04Z</time>
      </trkpt>
      <trkpt lat="42.739364" lon="0.521384">
        <ele>2463.3</ele>
        <time>2020-06-02T10:41:28Z</time>
      </trkpt>
      <trkpt lat="42.739277" lon="0.521387">
        <ele>2467.5</ele>
        <time>2020-06-02T10:41:52Z</time>
      </trkpt>
      <trkpt lat="42.739183" lon="0.521379">
        <ele>2471.9</ele>
        <time>2020-06-02T10:42:15Z</time>
      </trkpt>
      <trkpt lat="42.739102" lon="0.521351">
        <ele>2475.6</ele>
        <time>2020-06-02T10:42:39Z</time>
      </trkpt>
      <trkpt lat="42.739020" lon="0.521321">
        <ele>2480.6</ele>
        <time>2020-06-02T10:43:04Z</time>
      </trkpt>
      <trkpt lat="42.738933" lon="0.521294">
        <ele>2484.9</ele>
        <time>2020-06-02T10:43:24Z</time>
      </trkpt>
      <trkpt lat="42.738856" lon="0.521265">
        <ele>2487.3</ele>
        <time>2020-06-02T10:43:41Z</time>
      </trkpt>
      <trkpt lat="42.738784" lon="0.521191">
        <ele>2489.1</ele>
        <time>2020-06-02T10:43:59Z</time>
      </trkpt>
      <trkpt lat="42.738725" lon="0.521105">
        <ele>2489.1</ele>
        <time>2020-06-02T10:44:14Z</time>
      </trkpt>
      <trkpt lat="42.738665" lon="0.521017">
        <ele>2491.5</ele>
        <time>2020-06-02T10:44:33Z</time>
      </trkpt>
      <trkpt lat="42.738615" lon="0.520914">
        <ele>2494.0</ele>
        <time>2020-06-02T10:44:47Z</time>
      </trkpt>
      <trkpt lat="42.738562" lon="0.520813">
        <ele>2495.9</ele>
        <time>2020-06-02T10:45:01Z</time>
      </trkpt>
      <trkpt lat="42.738507" lon="0.520720">
        <ele>2497.7</ele>
        <time>2020-06-02T10:45:19Z</time>
      </trkpt>
      <trkpt lat="42.738439" lon="0.520643">
        <ele>2500.5</ele>
        <time>2020-06-02T10:46:05Z</time>
      </trkpt>
      <trkpt lat="42.738356" lon="0.520621">
        <ele>2500.4</ele>
        <time>2020-06-02T10:46:26Z</time>
      </trkpt>
      <trkpt lat="42.738281" lon="0.520578">
        <ele>2496.3</ele>
        <time>2020-06-02T10:46:41Z</time>
      </trkpt>
      <trkpt lat="42.738204" lon="0.520566">
        <ele>2492.9</ele>
        <time>2020-06-02T10:47:01Z</time>
      </trkpt>
      <trkpt lat="42.738119" lon="0.520548">
        <ele>2489.5</ele>
        <time>2020-06-02T10:47:21Z</time>
      </trkpt>
      <trkpt lat="42.738027" lon="0.520531">
        <ele>2486.4</ele>
        <time>2020-06-02T10:47:37Z</time>
      </trkpt>
      <trkpt lat="42.737940" lon="0.520508">
        <ele>2484.7</ele>
        <time>2020-06-02T10:47:49Z</time>
      </trkpt>
      <trkpt lat="42.737849" lon="0.520479">
        <ele>2482.8</ele>
        <time>2020-06-02T10:48:02Z</time>
      </trkpt>
      <trkpt lat="42.737755" lon="0.520426">
        <ele>2481.0</ele>
        <time>2020-06-02T10:48:14Z</time>
      </trkpt>
      <trkpt lat="42.737670" lon="0.520365">
        <ele>2480.3</ele>
        <time>2020-06-02T10:48:24Z</time>
      </trkpt>
      <trkpt lat="42.737581" lon="0.520340">
        <ele>2480.3</ele>
        <time>2020-06-02T10:48:35Z</time>
      </trkpt>
      <trkpt lat="42.737494" lon="0.520301">
        <ele>2480.3</ele>
        <time>2020-06-02T10:48:47Z</time>
      </trkpt>
      <trkpt lat="42.737398" lon="0.520278">
        <ele>2480.3</ele>
        <time>2020-06-02T10:48:59Z</time>
      </trkpt>
      <trkpt lat="42.737306" lon="0.520245">
        <ele>2482.8</ele>
        <time>2020-06-02T10:49:11Z</time>
      </trkpt>
      <trkpt lat="42.737238" lon="0.520217">
        <ele>2485.1</ele>
        <time>2020-06-02T10:49:27Z</time>
      </trkpt>
      <trkpt lat="42.737175" lon="0.520170">
        <ele>2490.4</ele>
        <time>2020-06-02T10:49:52Z</time>
      </trkpt>
      <trkpt lat="42.737115" lon="0.520092">
        <ele>2494.9</ele>
        <time>2020-06-02T10:50:12Z</time>
      </trkpt>
      <trkpt lat="42.737071" lon="0.520013">
        <ele>2498.4</ele>
        <time>2020-06-02T10:50:32Z</time>
      </trkpt>
      <trkpt lat="42.737012" lon="0.519986">
        <ele>2503.5</ele>
        <time>2020-06-02T10:51:35Z</time>
      </trkpt>
      <trkpt lat="42.736933" lon="0.519971">
        <ele>2506.9</ele>
        <time>2020-06-02T10:51:54Z</time>
      </trkpt>
      <trkpt lat="42.736854" lon="0.519920">
        <ele>2511.4</ele>
        <time>2020-06-02T10:52:16Z</time>
      </trkpt>
      <trkpt lat="42.736767" lon="0.519899">
        <ele>2515.7</ele>
        <time>2020-06-02T10:52:39Z</time>
      </trkpt>
      <trkpt lat="42.736679" lon="0.519874">
        <ele>2518.3</ele>
        <time>2020-06-02T10:52:58Z</time>
      </trkpt>
      <trkpt lat="42.736596" lon="0.519829">
        <ele>2521.4</ele>
        <time>2020-06-02T10:53:16Z</time>
      </trkpt>
      <trkpt lat="42.736516" lon="0.519871">
        <ele>2521.5</ele>
        <time>2020-06-02T10:53:29Z</time>
      </trkpt>
      <trkpt lat="42.736490" lon="0.519955">
        <ele>2519.2</ele>
        <time>2020-06-02T10:54:25Z</time>
      </trkpt>
      <trkpt lat="42.736446" lon="0.520017">
        <ele>2513.8</ele>
        <time>2020-06-02T10:55:09Z</time>
      </trkpt>
      <trkpt lat="42.736395" lon="0.520055">
        <ele>2514.2</ele>
        <time>2020-06-02T11:02:32Z</time>
      </trkpt>
      <trkpt lat="42.736331" lon="0.520099">
        <ele>2511.3</ele>
        <time>2020-06-02T11:02:49Z</time>
      </trkpt>
      <trkpt lat="42.736249" lon="0.520058">
        <ele>2510.5</ele>
        <time>2020-06-02T11:03:07Z</time>
      </trkpt>
      <trkpt lat="42.736163" lon="0.520023">
        <ele>2508.7</ele>
        <time>2020-06-02T11:03:21Z</time>
      </trkpt>
      <trkpt lat="42.736073" lon="0.519973">
        <ele>2511.2</ele>
        <time>2020-06-02T11:03:45Z</time>
      </trkpt>
      <trkpt lat="42.736004" lon="0.519942">
        <ele>2515.7</ele>
        <time>2020-06-02T11:04:12Z</time>
      </trkpt>
      <trkpt lat="42.735938" lon="0.519932">
        <ele>2515.5</ele>
        <time>2020-06-02T11:04:31Z</time>
      </trkpt>
      <trkpt lat="42.735852" lon="0.519975">
        <ele>2513.1</ele>
        <time>2020-06-02T11:04:55Z</time>
      </trkpt>
      <trkpt lat="42.735778" lon="0.519928">
        <ele>2512.1</ele>
        <time>2020-06-02T11:05:14Z</time>
      </trkpt>
      <trkpt lat="42.735715" lon="0.519884">
        <ele>2517.9</ele>
        <time>2020-06-02T11:05:41Z</time>
      </trkpt>
      <trkpt lat="42.735646" lon="0.519873">
        <ele>2519.5</ele>
        <time>2020-06-02T11:06:09Z</time>
      </trkpt>
      <trkpt lat="42.735572" lon="0.519823">
        <ele>2519.4</ele>
        <time>2020-06-02T11:06:27Z</time>
      </trkpt>
      <trkpt lat="42.735491" lon="0.519812">
        <ele>2520.4</ele>
        <time>2020-06-02T11:06:53Z</time>
      </trkpt>
      <trkpt lat="42.735408" lon="0.519785">
        <ele>2517.8</ele>
        <time>2020-06-02T11:07:13Z</time>
      </trkpt>
      <trkpt lat="42.735338" lon="0.519724">
        <ele>2520.4</ele>
        <time>2020-06-02T11:07:35Z</time>
      </trkpt>
      <trkpt lat="42.735243" lon="0.519739">
        <ele>2522.2</ele>
        <time>2020-06-02T11:07:57Z</time>
      </trkpt>
      <trkpt lat="42.735161" lon="0.519702">
        <ele>2522.3</ele>
        <time>2020-06-02T11:08:15Z</time>
      </trkpt>
      <trkpt lat="42.735078" lon="0.519702">
        <ele>2524.7</ele>
        <time>2020-06-02T11:08:37Z</time>
      </trkpt>
      <trkpt lat="42.735035" lon="0.519663">
        <ele>2527.3</ele>
        <time>2020-06-02T11:08:59Z</time>
      </trkpt>
      <trkpt lat="42.734952" lon="0.519612">
        <ele>2529.8</ele>
        <time>2020-06-02T11:09:22Z</time>
      </trkpt>
      <trkpt lat="42.734914" lon="0.519528">
        <ele>2535.0</ele>
        <time>2020-06-02T11:10:05Z</time>
      </trkpt>
      <trkpt lat="42.734878" lon="0.519409">
        <ele>2539.2</ele>
        <time>2020-06-02T11:10:44Z</time>
      </trkpt>
      <trkpt lat="42.734857" lon="0.519305">
        <ele>2543.6</ele>
        <time>2020-06-02T11:11:18Z</time>
      </trkpt>
      <trkpt lat="42.734778" lon="0.519246">
        <ele>2544.3</ele>
        <time>2020-06-02T11:11:46Z</time>
      </trkpt>
      <trkpt lat="42.734702" lon="0.519204">
        <ele>2545.0</ele>
        <time>2020-06-02T11:12:17Z</time>
      </trkpt>
      <trkpt lat="42.734636" lon="0.519166">
        <ele>2540.8</ele>
        <time>2020-06-02T11:12:36Z</time>
      </trkpt>
      <trkpt lat="42.734563" lon="0.519087">
        <ele>2539.9</ele>
        <time>2020-06-02T11:12:58Z</time>
      </trkpt>
      <trkpt lat="42.734512" lon="0.519016">
        <ele>2544.2</ele>
        <time>2020-06-02T11:13:21Z</time>
      </trkpt>
      <trkpt lat="42.734434" lon="0.518930">
        <ele>2549.3</ele>
        <time>2020-06-02T11:13:58Z</time>
      </trkpt>
      <trkpt lat="42.734342" lon="0.518885">
        <ele>2552.4</ele>
        <time>2020-06-02T11:14:28Z</time>
      </trkpt>
      <trkpt lat="42.734265" lon="0.518878">
        <ele>2555.1</ele>
        <time>2020-06-02T11:15:12Z</time>
      </trkpt>
      <trkpt lat="42.734229" lon="0.518817">
        <ele>2556.8</ele>
        <time>2020-06-02T11:15:53Z</time>
      </trkpt>
      <trkpt lat="42.734145" lon="0.518805">
        <ele>2556.7</ele>
        <time>2020-06-02T11:16:19Z</time>
      </trkpt>
      <trkpt lat="42.734098" lon="0.518789">
        <ele>2554.4</ele>
        <time>2020-06-02T11:16:51Z</time>
      </trkpt>
      <trkpt lat="42.734018" lon="0.518749">
        <ele>2561.9</ele>
        <time>2020-06-02T11:17:55Z</time>
      </trkpt>
      <trkpt lat="42.733952" lon="0.518761">
        <ele>2568.0</ele>
        <time>2020-06-02T11:18:30Z</time>
      </trkpt>
      <trkpt lat="42.733930" lon="0.518733">
        <ele>2570.6</ele>
        <time>2020-06-02T11:21:41Z</time>
      </trkpt>
      <trkpt lat="42.733947" lon="0.518631">
        <ele>2575.5</ele>
        <time>2020-06-02T11:22:09Z</time>
      </trkpt>
      <trkpt lat="42.733996" lon="0.518531">
        <ele>2579.7</ele>
        <time>2020-06-02T11:22:33Z</time>
      </trkpt>
      <trkpt lat="42.733994" lon="0.518429">
        <ele>2583.6</ele>
        <time>2020-06-02T11:22:56Z</time>
      </trkpt>
      <trkpt lat="42.733977" lon="0.518317">
        <ele>2587.3</ele>
        <time>2020-06-02T11:23:20Z</time>
      </trkpt>
      <trkpt lat="42.733918" lon="0.518221">
        <ele>2590.8</ele>
        <time>2020-06-02T11:23:44Z</time>
      </trkpt>
      <trkpt lat="42.733884" lon="0.518099">
        <ele>2596.3</ele>
        <time>2020-06-02T11:24:13Z</time>
      </trkpt>
      <trkpt lat="42.733903" lon="0.518003">
        <ele>2599.6</ele>
        <time>2020-06-02T11:24:37Z</time>
      </trkpt>
      <trkpt lat="42.733865" lon="0.517897">
        <ele>2603.8</ele>
        <time>2020-06-02T11:25:04Z</time>
      </trkpt>
      <trkpt lat="42.733827" lon="0.517807">
        <ele>2608.0</ele>
        <time>2020-06-02T11:25:30Z</time>
      </trkpt>
      <trkpt lat="42.733811" lon="0.517704">
        <ele>2613.1</ele>
        <time>2020-06-02T11:25:59Z</time>
      </trkpt>
      <trkpt lat="42.733782" lon="0.517591">
        <ele>2618.0</ele>
        <time>2020-06-02T11:26:29Z</time>
      </trkpt>
      <trkpt lat="42.733747" lon="0.517472">
        <ele>2621.2</ele>
        <time>2020-06-02T11:26:52Z</time>
      </trkpt>
      <trkpt lat="42.733743" lon="0.517360">
        <ele>2625.6</ele>
        <time>2020-06-02T11:27:25Z</time>
      </trkpt>
      <trkpt lat="42.733747" lon="0.517277">
        <ele>2629.0</ele>
        <time>2020-06-02T11:27:53Z</time>
      </trkpt>
      <trkpt lat="42.733717" lon="0.517158">
        <ele>2633.2</ele>
        <time>2020-06-02T11:28:26Z</time>
      </trkpt>
      <trkpt lat="42.733697" lon="0.517037">
        <ele>2637.8</ele>
        <time>2020-06-02T11:28:59Z</time>
      </trkpt>
      <trkpt lat="42.733680" lon="0.516924">
        <ele>2640.4</ele>
        <time>2020-06-02T11:29:24Z</time>
      </trkpt>
      <trkpt lat="42.733666" lon="0.516824">
        <ele>2643.6</ele>
        <time>2020-06-02T11:29:46Z</time>
      </trkpt>
      <trkpt lat="42.733630" lon="0.516727">
        <ele>2646.2</ele>
        <time>2020-06-02T11:30:06Z</time>
      </trkpt>
      <trkpt lat="42.733615" lon="0.516638">
        <ele>2650.9</ele>
        <time>2020-06-02T11:30:34Z</time>
      </trkpt>
      <trkpt lat="42.733586" lon="0.516559">
        <ele>2654.7</ele>
        <time>2020-06-02T11:31:03Z</time>
      </trkpt>
      <trkpt lat="42.733560" lon="0.516484">
        <ele>2659.8</ele>
        <time>2020-06-02T11:31:38Z</time>
      </trkpt>
      <trkpt lat="42.733558" lon="0.516389">
        <ele>2664.0</ele>
        <time>2020-06-02T11:32:07Z</time>
      </trkpt>
      <trkpt lat="42.733553" lon="0.516286">
        <ele>2669.2</ele>
        <time>2020-06-02T11:32:57Z</time>
      </trkpt>
      <trkpt lat="42.733546" lon="0.516174">
        <ele>2675.7</ele>
        <time>2020-06-02T11:33:34Z</time>
      </trkpt>
      <trkpt lat="42.733532" lon="0.516070">
        <ele>2679.9</ele>
        <time>2020-06-02T11:34:23Z</time>
      </trkpt>
      <trkpt lat="42.733504" lon="0.515972">
        <ele>2682.5</ele>
        <time>2020-06-02T11:34:43Z</time>
      </trkpt>
      <trkpt lat="42.733467" lon="0.515880">
        <ele>2687.1</ele>
        <time>2020-06-02T11:35:03Z</time>
      </trkpt>
      <trkpt lat="42.733486" lon="0.515766">
        <ele>2688.8</ele>
        <time>2020-06-02T11:35:22Z</time>
      </trkpt>
      <trkpt lat="42.733510" lon="0.515736">
        <ele>2692.1</ele>
        <time>2020-06-02T12:15:34Z</time>
      </trkpt>
      <trkpt lat="42.733470" lon="0.515826">
        <ele>2692.1</ele>
        <time>2020-06-02T12:16:27Z</time>
      </trkpt>
      <trkpt lat="42.733428" lon="0.515889">
        <ele>2688.7</ele>
        <time>2020-06-02T12:16:45Z</time>
      </trkpt>
      <trkpt lat="42.733366" lon="0.515944">
        <ele>2685.0</ele>
        <time>2020-06-02T12:17:02Z</time>
      </trkpt>
      <trkpt lat="42.733294" lon="0.515983">
        <ele>2683.3</ele>
        <time>2020-06-02T12:17:19Z</time>
      </trkpt>
      <trkpt lat="42.733217" lon="0.515984">
        <ele>2680.4</ele>
        <time>2020-06-02T12:17:35Z</time>
      </trkpt>
      <trkpt lat="42.733133" lon="0.516007">
        <ele>2677.8</ele>
        <time>2020-06-02T12:17:52Z</time>
      </trkpt>
      <trkpt lat="42.733050" lon="0.516023">
        <ele>2673.9</ele>
        <time>2020-06-02T12:18:06Z</time>
      </trkpt>
      <trkpt lat="42.732968" lon="0.515991">
        <ele>2672.3</ele>
        <time>2020-06-02T12:18:21Z</time>
      </trkpt>
      <trkpt lat="42.732915" lon="0.516020">
        <ele>2668.6</ele>
        <time>2020-06-02T12:18:46Z</time>
      </trkpt>
      <trkpt lat="42.732845" lon="0.516018">
        <ele>2665.1</ele>
        <time>2020-06-02T12:19:03Z</time>
      </trkpt>
      <trkpt lat="42.732759" lon="0.515999">
        <ele>2661.0</ele>
        <time>2020-06-02T12:19:20Z</time>
      </trkpt>
      <trkpt lat="42.732681" lon="0.515938">
        <ele>2657.6</ele>
        <time>2020-06-02T12:19:39Z</time>
      </trkpt>
      <trkpt lat="42.732637" lon="0.516008">
        <ele>2655.1</ele>
        <time>2020-06-02T12:20:16Z</time>
      </trkpt>
      <trkpt lat="42.732553" lon="0.516064">
        <ele>2651.5</ele>
        <time>2020-06-02T12:20:28Z</time>
      </trkpt>
      <trkpt lat="42.732461" lon="0.516080">
        <ele>2650.8</ele>
        <time>2020-06-02T12:20:41Z</time>
      </trkpt>
      <trkpt lat="42.732376" lon="0.516125">
        <ele>2649.1</ele>
        <time>2020-06-02T12:20:53Z</time>
      </trkpt>
      <trkpt lat="42.732282" lon="0.516099">
        <ele>2647.2</ele>
        <time>2020-06-02T12:21:05Z</time>
      </trkpt>
      <trkpt lat="42.732197" lon="0.516135">
        <ele>2645.5</ele>
        <time>2020-06-02T12:21:19Z</time>
      </trkpt>
      <trkpt lat="42.732107" lon="0.516115">
        <ele>2642.1</ele>
        <time>2020-06-02T12:21:47Z</time>
      </trkpt>
      <trkpt lat="42.732012" lon="0.516130">
        <ele>2642.2</ele>
        <time>2020-06-02T12:22:22Z</time>
      </trkpt>
      <trkpt lat="42.731925" lon="0.516140">
        <ele>2641.4</ele>
        <time>2020-06-02T12:22:37Z</time>
      </trkpt>
      <trkpt lat="42.731859" lon="0.516168">
        <ele>2641.4</ele>
        <time>2020-06-02T12:22:58Z</time>
      </trkpt>
      <trkpt lat="42.731792" lon="0.516195">
        <ele>2640.0</ele>
        <time>2020-06-02T12:23:50Z</time>
      </trkpt>
      <trkpt lat="42.731729" lon="0.516197">
        <ele>2644.0</ele>
        <time>2020-06-02T12:25:05Z</time>
      </trkpt>
      <trkpt lat="42.731652" lon="0.516237">
        <ele>2648.4</ele>
        <time>2020-06-02T12:25:35Z</time>
      </trkpt>
      <trkpt lat="42.731579" lon="0.516274">
        <ele>2648.3</ele>
        <time>2020-06-02T12:26:02Z</time>
      </trkpt>
      <trkpt lat="42.731518" lon="0.516307">
        <ele>2648.3</ele>
        <time>2020-06-02T12:27:18Z</time>
      </trkpt>
      <trkpt lat="42.731444" lon="0.516285">
        <ele>2651.9</ele>
        <time>2020-06-02T12:27:50Z</time>
      </trkpt>
      <trkpt lat="42.731361" lon="0.516253">
        <ele>2656.5</ele>
        <time>2020-06-02T12:28:16Z</time>
      </trkpt>
      <trkpt lat="42.731281" lon="0.516254">
        <ele>2659.2</ele>
        <time>2020-06-02T12:28:41Z</time>
      </trkpt>
      <trkpt lat="42.731192" lon="0.516273">
        <ele>2664.5</ele>
        <time>2020-06-02T12:29:11Z</time>
      </trkpt>
      <trkpt lat="42.731112" lon="0.516247">
        <ele>2668.7</ele>
        <time>2020-06-02T12:29:38Z</time>
      </trkpt>
      <trkpt lat="42.731034" lon="0.516287">
        <ele>2671.3</ele>
        <time>2020-06-02T12:29:56Z</time>
      </trkpt>
      <trkpt lat="42.730972" lon="0.516309">
        <ele>2672.1</ele>
        <time>2020-06-02T12:30:17Z</time>
      </trkpt>
      <trkpt lat="42.730945" lon="0.516382">
        <ele>2672.0</ele>
        <time>2020-06-02T12:34:57Z</time>
      </trkpt>
      <trkpt lat="42.730849" lon="0.516391">
        <ele>2668.9</ele>
        <time>2020-06-02T12:35:11Z</time>
      </trkpt>
      <trkpt lat="42.730753" lon="0.516358">
        <ele>2668.9</ele>
        <time>2020-06-02T12:35:21Z</time>
      </trkpt>
      <trkpt lat="42.730681" lon="0.516396">
        <ele>2668.1</ele>
        <time>2020-06-02T12:35:30Z</time>
      </trkpt>
      <trkpt lat="42.730638" lon="0.516499">
        <ele>2664.6</ele>
        <time>2020-06-02T12:35:41Z</time>
      </trkpt>
      <trkpt lat="42.730607" lon="0.516613">
        <ele>2660.8</ele>
        <time>2020-06-02T12:35:53Z</time>
      </trkpt>
      <trkpt lat="42.730560" lon="0.516718">
        <ele>2657.5</ele>
        <time>2020-06-02T12:36:04Z</time>
      </trkpt>
      <trkpt lat="42.730509" lon="0.516828">
        <ele>2653.8</ele>
        <time>2020-06-02T12:36:16Z</time>
      </trkpt>
      <trkpt lat="42.730457" lon="0.516924">
        <ele>2651.1</ele>
        <time>2020-06-02T12:36:31Z</time>
      </trkpt>
      <trkpt lat="42.730429" lon="0.517038">
        <ele>2648.6</ele>
        <time>2020-06-02T12:36:42Z</time>
      </trkpt>
      <trkpt lat="42.730394" lon="0.517155">
        <ele>2645.8</ele>
        <time>2020-06-02T12:36:54Z</time>
      </trkpt>
      <trkpt lat="42.730356" lon="0.517262">
        <ele>2644.0</ele>
        <time>2020-06-02T12:37:04Z</time>
      </trkpt>
      <trkpt lat="42.730320" lon="0.517374">
        <ele>2641.4</ele>
        <time>2020-06-02T12:37:15Z</time>
      </trkpt>
      <trkpt lat="42.730290" lon="0.517492">
        <ele>2638.9</ele>
        <time>2020-06-02T12:37:24Z</time>
      </trkpt>
      <trkpt lat="42.730261" lon="0.517617">
        <ele>2635.1</ele>
        <time>2020-06-02T12:37:33Z</time>
      </trkpt>
      <trkpt lat="42.730243" lon="0.517735">
        <ele>2633.5</ele>
        <time>2020-06-02T12:37:41Z</time>
      </trkpt>
      <trkpt lat="42.730243" lon="0.517854">
        <ele>2630.8</ele>
        <time>2020-06-02T12:37:53Z</time>
      </trkpt>
      <trkpt lat="42.730229" lon="0.517987">
        <ele>2629.0</ele>
        <time>2020-06-02T12:38:03Z</time>
      </trkpt>
      <trkpt lat="42.730199" lon="0.518095">
        <ele>2628.2</ele>
        <time>2020-06-02T12:38:13Z</time>
      </trkpt>
      <trkpt lat="42.730164" lon="0.518201">
        <ele>2628.2</ele>
        <time>2020-06-02T12:38:27Z</time>
      </trkpt>
      <trkpt lat="42.730197" lon="0.518304">
        <ele>2626.3</ele>
        <time>2020-06-02T12:39:12Z</time>
      </trkpt>
      <trkpt lat="42.730232" lon="0.518410">
        <ele>2624.6</ele>
        <time>2020-06-02T12:39:23Z</time>
      </trkpt>
      <trkpt lat="42.730251" lon="0.518516">
        <ele>2622.3</ele>
        <time>2020-06-02T12:40:09Z</time>
      </trkpt>
      <trkpt lat="42.730306" lon="0.518634">
        <ele>2619.7</ele>
        <time>2020-06-02T12:40:22Z</time>
      </trkpt>
      <trkpt lat="42.730339" lon="0.518756">
        <ele>2619.7</ele>
        <time>2020-06-02T12:40:34Z</time>
      </trkpt>
      <trkpt lat="42.730371" lon="0.518880">
        <ele>2619.7</ele>
        <time>2020-06-02T12:40:45Z</time>
      </trkpt>
      <trkpt lat="42.730395" lon="0.518998">
        <ele>2622.0</ele>
        <time>2020-06-02T12:40:57Z</time>
      </trkpt>
      <trkpt lat="42.730441" lon="0.519111">
        <ele>2623.6</ele>
        <time>2020-06-02T12:41:22Z</time>
      </trkpt>
      <trkpt lat="42.730473" lon="0.519227">
        <ele>2624.4</ele>
        <time>2020-06-02T12:41:35Z</time>
      </trkpt>
      <trkpt lat="42.730526" lon="0.519333">
        <ele>2626.2</ele>
        <time>2020-06-02T12:41:52Z</time>
      </trkpt>
      <trkpt lat="42.730550" lon="0.519434">
        <ele>2628.2</ele>
        <time>2020-06-02T12:42:09Z</time>
      </trkpt>
      <trkpt lat="42.730615" lon="0.519526">
        <ele>2629.9</ele>
        <time>2020-06-02T12:42:27Z</time>
      </trkpt>
      <trkpt lat="42.730630" lon="0.519638">
        <ele>2631.6</ele>
        <time>2020-06-02T12:42:44Z</time>
      </trkpt>
      <trkpt lat="42.730662" lon="0.519732">
        <ele>2634.4</ele>
        <time>2020-06-02T12:43:01Z</time>
      </trkpt>
      <trkpt lat="42.730684" lon="0.519843">
        <ele>2635.8</ele>
        <time>2020-06-02T12:43:15Z</time>
      </trkpt>
      <trkpt lat="42.730695" lon="0.519961">
        <ele>2638.4</ele>
        <time>2020-06-02T12:43:31Z</time>
      </trkpt>
      <trkpt lat="42.730695" lon="0.520077">
        <ele>2641.0</ele>
        <time>2020-06-02T12:43:49Z</time>
      </trkpt>
      <trkpt lat="42.730706" lon="0.520183">
        <ele>2644.7</ele>
        <time>2020-06-02T12:44:09Z</time>
      </trkpt>
      <trkpt lat="42.730720" lon="0.520300">
        <ele>2647.3</ele>
        <time>2020-06-02T12:44:25Z</time>
      </trkpt>
      <trkpt lat="42.730716" lon="0.520410">
        <ele>2649.7</ele>
        <time>2020-06-02T12:44:45Z</time>
      </trkpt>
      <trkpt lat="42.730683" lon="0.520502">
        <ele>2652.9</ele>
        <time>2020-06-02T12:45:09Z</time>
      </trkpt>
      <trkpt lat="42.730696" lon="0.520600">
        <ele>2656.2</ele>
        <time>2020-06-02T12:45:35Z</time>
      </trkpt>
      <trkpt lat="42.730692" lon="0.520711">
        <ele>2659.4</ele>
        <time>2020-06-02T12:45:57Z</time>
      </trkpt>
      <trkpt lat="42.730679" lon="0.520814">
        <ele>2661.1</ele>
        <time>2020-06-02T12:46:16Z</time>
      </trkpt>
      <trkpt lat="42.730690" lon="0.520924">
        <ele>2663.7</ele>
        <time>2020-06-02T12:46:34Z</time>
      </trkpt>
      <trkpt lat="42.730706" lon="0.521038">
        <ele>2666.0</ele>
        <time>2020-06-02T12:46:50Z</time>
      </trkpt>
      <trkpt lat="42.730728" lon="0.521155">
        <ele>2666.0</ele>
        <time>2020-06-02T12:47:04Z</time>
      </trkpt>
      <trkpt lat="42.730713" lon="0.521276">
        <ele>2667.6</ele>
        <time>2020-06-02T12:47:20Z</time>
      </trkpt>
      <trkpt lat="42.730728" lon="0.521400">
        <ele>2669.5</ele>
        <time>2020-06-02T12:47:34Z</time>
      </trkpt>
      <trkpt lat="42.730721" lon="0.521523">
        <ele>2670.3</ele>
        <time>2020-06-02T12:47:50Z</time>
      </trkpt>
      <trkpt lat="42.730712" lon="0.521641">
        <ele>2671.1</ele>
        <time>2020-06-02T12:48:06Z</time>
      </trkpt>
      <trkpt lat="42.730723" lon="0.521764">
        <ele>2671.0</ele>
        <time>2020-06-02T12:48:18Z</time>
      </trkpt>
      <trkpt lat="42.730729" lon="0.521874">
        <ele>2668.6</ele>
        <time>2020-06-02T12:48:31Z</time>
      </trkpt>
      <trkpt lat="42.730711" lon="0.521995">
        <ele>2668.6</ele>
        <time>2020-06-02T12:48:44Z</time>
      </trkpt>
      <trkpt lat="42.730724" lon="0.522111">
        <ele>2668.7</ele>
        <time>2020-06-02T12:49:01Z</time>
      </trkpt>
      <trkpt lat="42.730719" lon="0.522232">
        <ele>2668.6</ele>
        <time>2020-06-02T12:49:14Z</time>
      </trkpt>
      <trkpt lat="42.730747" lon="0.522330">
        <ele>2668.6</ele>
        <time>2020-06-02T12:49:28Z</time>
      </trkpt>
      <trkpt lat="42.730753" lon="0.522384">
        <ele>2669.3</ele>
        <time>2020-06-02T12:55:09Z</time>
      </trkpt>
      <trkpt lat="42.730796" lon="0.522481">
        <ele>2666.9</ele>
        <time>2020-06-02T12:55:30Z</time>
      </trkpt>
      <trkpt lat="42.730790" lon="0.522599">
        <ele>2665.9</ele>
        <time>2020-06-02T12:55:45Z</time>
      </trkpt>
      <trkpt lat="42.730775" lon="0.522708">
        <ele>2663.3</ele>
        <time>2020-06-02T12:56:01Z</time>
      </trkpt>
      <trkpt lat="42.730738" lon="0.522778">
        <ele>2659.4</ele>
        <time>2020-06-02T12:57:06Z</time>
      </trkpt>
      <trkpt lat="42.730724" lon="0.522880">
        <ele>2657.6</ele>
        <time>2020-06-02T12:57:27Z</time>
      </trkpt>
      <trkpt lat="42.730698" lon="0.523003">
        <ele>2656.1</ele>
        <time>2020-06-02T12:57:40Z</time>
      </trkpt>
      <trkpt lat="42.730666" lon="0.523114">
        <ele>2654.3</ele>
        <time>2020-06-02T12:57:53Z</time>
      </trkpt>
      <trkpt lat="42.730618" lon="0.523236">
        <ele>2652.8</ele>
        <time>2020-06-02T12:58:03Z</time>
      </trkpt>
      <trkpt lat="42.730602" lon="0.523363">
        <ele>2651.0</ele>
        <time>2020-06-02T12:58:15Z</time>
      </trkpt>
      <trkpt lat="42.730586" lon="0.523491">
        <ele>2649.4</ele>
        <time>2020-06-02T12:58:26Z</time>
      </trkpt>
      <trkpt lat="42.730568" lon="0.523613">
        <ele>2647.5</ele>
        <time>2020-06-02T12:58:35Z</time>
      </trkpt>
      <trkpt lat="42.730540" lon="0.523728">
        <ele>2647.6</ele>
        <time>2020-06-02T12:58:46Z</time>
      </trkpt>
      <trkpt lat="42.730545" lon="0.523847">
        <ele>2647.6</ele>
        <time>2020-06-02T12:58:59Z</time>
      </trkpt>
      <trkpt lat="42.730539" lon="0.523957">
        <ele>2646.7</ele>
        <time>2020-06-02T12:59:14Z</time>
      </trkpt>
      <trkpt lat="42.730526" lon="0.524074">
        <ele>2644.8</ele>
        <time>2020-06-02T12:59:26Z</time>
      </trkpt>
      <trkpt lat="42.730522" lon="0.524194">
        <ele>2643.1</ele>
        <time>2020-06-02T12:59:37Z</time>
      </trkpt>
      <trkpt lat="42.730465" lon="0.524301">
        <ele>2642.4</ele>
        <time>2020-06-02T12:59:50Z</time>
      </trkpt>
      <trkpt lat="42.730435" lon="0.524416">
        <ele>2641.6</ele>
        <time>2020-06-02T13:00:01Z</time>
      </trkpt>
      <trkpt lat="42.730394" lon="0.524515">
        <ele>2639.8</ele>
        <time>2020-06-02T13:00:12Z</time>
      </trkpt>
      <trkpt lat="42.730394" lon="0.524625">
        <ele>2638.1</ele>
        <time>2020-06-02T13:00:42Z</time>
      </trkpt>
      <trkpt lat="42.730386" lon="0.524744">
        <ele>2638.0</ele>
        <time>2020-06-02T13:01:13Z</time>
      </trkpt>
      <trkpt lat="42.730364" lon="0.524859">
        <ele>2637.1</ele>
        <time>2020-06-02T13:01:24Z</time>
      </trkpt>
      <trkpt lat="42.730336" lon="0.524976">
        <ele>2637.1</ele>
        <time>2020-06-02T13:01:36Z</time>
      </trkpt>
      <trkpt lat="42.730339" lon="0.525091">
        <ele>2634.4</ele>
        <time>2020-06-02T13:01:48Z</time>
      </trkpt>
      <trkpt lat="42.730320" lon="0.525206">
        <ele>2631.8</ele>
        <time>2020-06-02T13:02:07Z</time>
      </trkpt>
      <trkpt lat="42.730299" lon="0.525326">
        <ele>2630.2</ele>
        <time>2020-06-02T13:02:23Z</time>
      </trkpt>
      <trkpt lat="42.730260" lon="0.525435">
        <ele>2627.4</ele>
        <time>2020-06-02T13:03:01Z</time>
      </trkpt>
      <trkpt lat="42.730219" lon="0.525553">
        <ele>2625.7</ele>
        <time>2020-06-02T13:03:12Z</time>
      </trkpt>
      <trkpt lat="42.730190" lon="0.525656">
        <ele>2623.8</ele>
        <time>2020-06-02T13:03:33Z</time>
      </trkpt>
      <trkpt lat="42.730145" lon="0.525772">
        <ele>2621.9</ele>
        <time>2020-06-02T13:05:10Z</time>
      </trkpt>
      <trkpt lat="42.730107" lon="0.525873">
        <ele>2617.8</ele>
        <time>2020-06-02T13:05:31Z</time>
      </trkpt>
      <trkpt lat="42.730073" lon="0.525983">
        <ele>2616.1</ele>
        <time>2020-06-02T13:05:48Z</time>
      </trkpt>
      <trkpt lat="42.730043" lon="0.526092">
        <ele>2614.4</ele>
        <time>2020-06-02T13:06:01Z</time>
      </trkpt>
      <trkpt lat="42.730013" lon="0.526209">
        <ele>2612.7</ele>
        <time>2020-06-02T13:06:18Z</time>
      </trkpt>
      <trkpt lat="42.729978" lon="0.526322">
        <ele>2610.0</ele>
        <time>2020-06-02T13:06:33Z</time>
      </trkpt>
      <trkpt lat="42.729949" lon="0.526435">
        <ele>2606.6</ele>
        <time>2020-06-02T13:06:49Z</time>
      </trkpt>
      <trkpt lat="42.729939" lon="0.526544">
        <ele>2606.7</ele>
        <time>2020-06-02T13:08:01Z</time>
      </trkpt>
      <trkpt lat="42.729911" lon="0.526656">
        <ele>2605.7</ele>
        <time>2020-06-02T13:08:15Z</time>
      </trkpt>
      <trkpt lat="42.729867" lon="0.526758">
        <ele>2604.1</ele>
        <time>2020-06-02T13:08:31Z</time>
      </trkpt>
      <trkpt lat="42.729832" lon="0.526860">
        <ele>2603.3</ele>
        <time>2020-06-02T13:08:46Z</time>
      </trkpt>
      <trkpt lat="42.729789" lon="0.526977">
        <ele>2602.6</ele>
        <time>2020-06-02T13:09:01Z</time>
      </trkpt>
      <trkpt lat="42.729769" lon="0.527074">
        <ele>2601.6</ele>
        <time>2020-06-02T13:10:16Z</time>
      </trkpt>
      <trkpt lat="42.729737" lon="0.527179">
        <ele>2599.0</ele>
        <time>2020-06-02T13:10:35Z</time>
      </trkpt>
      <trkpt lat="42.729747" lon="0.527308">
        <ele>2595.1</ele>
        <time>2020-06-02T13:11:00Z</time>
      </trkpt>
      <trkpt lat="42.729721" lon="0.527405">
        <ele>2591.4</ele>
        <time>2020-06-02T13:11:21Z</time>
      </trkpt>
      <trkpt lat="42.729735" lon="0.527498">
        <ele>2589.8</ele>
        <time>2020-06-02T13:11:56Z</time>
      </trkpt>
      <trkpt lat="42.729738" lon="0.527615">
        <ele>2589.8</ele>
        <time>2020-06-02T13:12:09Z</time>
      </trkpt>
      <trkpt lat="42.729730" lon="0.527744">
        <ele>2589.8</ele>
        <time>2020-06-02T13:12:21Z</time>
      </trkpt>
      <trkpt lat="42.729727" lon="0.527867">
        <ele>2589.8</ele>
        <time>2020-06-02T13:12:33Z</time>
      </trkpt>
      <trkpt lat="42.729726" lon="0.527996">
        <ele>2589.8</ele>
        <time>2020-06-02T13:12:51Z</time>
      </trkpt>
      <trkpt lat="42.729744" lon="0.528112">
        <ele>2589.8</ele>
        <time>2020-06-02T13:13:03Z</time>
      </trkpt>
      <trkpt lat="42.729759" lon="0.528228">
        <ele>2592.2</ele>
        <time>2020-06-02T13:13:17Z</time>
      </trkpt>
      <trkpt lat="42.729783" lon="0.528344">
        <ele>2594.0</ele>
        <time>2020-06-02T13:13:32Z</time>
      </trkpt>
      <trkpt lat="42.729788" lon="0.528458">
        <ele>2595.7</ele>
        <time>2020-06-02T13:13:49Z</time>
      </trkpt>
      <trkpt lat="42.729787" lon="0.528590">
        <ele>2597.3</ele>
        <time>2020-06-02T13:14:02Z</time>
      </trkpt>
      <trkpt lat="42.729789" lon="0.528711">
        <ele>2598.2</ele>
        <time>2020-06-02T13:15:10Z</time>
      </trkpt>
      <trkpt lat="42.729808" lon="0.528830">
        <ele>2598.2</ele>
        <time>2020-06-02T13:15:21Z</time>
      </trkpt>
      <trkpt lat="42.729823" lon="0.528953">
        <ele>2598.2</ele>
        <time>2020-06-02T13:15:35Z</time>
      </trkpt>
      <trkpt lat="42.729822" lon="0.529031">
        <ele>2599.0</ele>
        <time>2020-06-02T13:16:54Z</time>
      </trkpt>
      <trkpt lat="42.729808" lon="0.529088">
        <ele>2595.7</ele>
        <time>2020-06-02T13:19:43Z</time>
      </trkpt>
      <trkpt lat="42.729764" lon="0.529154">
        <ele>2594.2</ele>
        <time>2020-06-02T13:20:51Z</time>
      </trkpt>
      <trkpt lat="42.729711" lon="0.529260">
        <ele>2588.9</ele>
        <time>2020-06-02T13:21:08Z</time>
      </trkpt>
      <trkpt lat="42.729661" lon="0.529354">
        <ele>2584.4</ele>
        <time>2020-06-02T13:21:22Z</time>
      </trkpt>
      <trkpt lat="42.729609" lon="0.529452">
        <ele>2579.4</ele>
        <time>2020-06-02T13:21:36Z</time>
      </trkpt>
      <trkpt lat="42.729557" lon="0.529554">
        <ele>2574.5</ele>
        <time>2020-06-02T13:21:51Z</time>
      </trkpt>
      <trkpt lat="42.729503" lon="0.529638">
        <ele>2569.5</ele>
        <time>2020-06-02T13:22:07Z</time>
      </trkpt>
      <trkpt lat="42.729446" lon="0.529733">
        <ele>2564.7</ele>
        <time>2020-06-02T13:22:20Z</time>
      </trkpt>
      <trkpt lat="42.729409" lon="0.529845">
        <ele>2560.4</ele>
        <time>2020-06-02T13:22:33Z</time>
      </trkpt>
      <trkpt lat="42.729360" lon="0.529950">
        <ele>2556.9</ele>
        <time>2020-06-02T13:22:45Z</time>
      </trkpt>
      <trkpt lat="42.729300" lon="0.530047">
        <ele>2552.5</ele>
        <time>2020-06-02T13:22:59Z</time>
      </trkpt>
      <trkpt lat="42.729249" lon="0.530147">
        <ele>2547.3</ele>
        <time>2020-06-02T13:23:16Z</time>
      </trkpt>
      <trkpt lat="42.729188" lon="0.530236">
        <ele>2542.3</ele>
        <time>2020-06-02T13:23:32Z</time>
      </trkpt>
      <trkpt lat="42.729125" lon="0.530311">
        <ele>2538.3</ele>
        <time>2020-06-02T13:24:23Z</time>
      </trkpt>
      <trkpt lat="42.729097" lon="0.530417">
        <ele>2532.1</ele>
        <time>2020-06-02T13:24:56Z</time>
      </trkpt>
      <trkpt lat="42.729068" lon="0.530522">
        <ele>2527.8</ele>
        <time>2020-06-02T13:25:14Z</time>
      </trkpt>
      <trkpt lat="42.729029" lon="0.530615">
        <ele>2524.3</ele>
        <time>2020-06-02T13:25:47Z</time>
      </trkpt>
      <trkpt lat="42.729025" lon="0.530689">
        <ele>2519.0</ele>
        <time>2020-06-02T13:26:24Z</time>
      </trkpt>
      <trkpt lat="42.729005" lon="0.530802">
        <ele>2518.2</ele>
        <time>2020-06-02T13:26:38Z</time>
      </trkpt>
      <trkpt lat="42.728972" lon="0.530905">
        <ele>2514.8</ele>
        <time>2020-06-02T13:26:59Z</time>
      </trkpt>
      <trkpt lat="42.728902" lon="0.530972">
        <ele>2510.4</ele>
        <time>2020-06-02T13:27:23Z</time>
      </trkpt>
      <trkpt lat="42.728854" lon="0.531076">
        <ele>2502.5</ele>
        <time>2020-06-02T13:28:14Z</time>
      </trkpt>
      <trkpt lat="42.728803" lon="0.531172">
        <ele>2497.9</ele>
        <time>2020-06-02T13:28:31Z</time>
      </trkpt>
      <trkpt lat="42.728762" lon="0.531256">
        <ele>2495.3</ele>
        <time>2020-06-02T13:29:23Z</time>
      </trkpt>
      <trkpt lat="42.728726" lon="0.531339">
        <ele>2489.6</ele>
        <time>2020-06-02T13:29:43Z</time>
      </trkpt>
      <trkpt lat="42.728653" lon="0.531418">
        <ele>2487.1</ele>
        <time>2020-06-02T13:29:56Z</time>
      </trkpt>
      <trkpt lat="42.728600" lon="0.531511">
        <ele>2483.3</ele>
        <time>2020-06-02T13:30:11Z</time>
      </trkpt>
      <trkpt lat="42.728553" lon="0.531599">
        <ele>2480.0</ele>
        <time>2020-06-02T13:30:28Z</time>
      </trkpt>
      <trkpt lat="42.728493" lon="0.531675">
        <ele>2475.7</ele>
        <time>2020-06-02T13:30:47Z</time>
      </trkpt>
      <trkpt lat="42.728463" lon="0.531795">
        <ele>2470.5</ele>
        <time>2020-06-02T13:31:15Z</time>
      </trkpt>
      <trkpt lat="42.728435" lon="0.531903">
        <ele>2466.9</ele>
        <time>2020-06-02T13:31:28Z</time>
      </trkpt>
      <trkpt lat="42.728424" lon="0.532023">
        <ele>2464.1</ele>
        <time>2020-06-02T13:31:41Z</time>
      </trkpt>
      <trkpt lat="42.728414" lon="0.532145">
        <ele>2461.0</ele>
        <time>2020-06-02T13:31:52Z</time>
      </trkpt>
      <trkpt lat="42.728366" lon="0.532258">
        <ele>2457.6</ele>
        <time>2020-06-02T13:32:03Z</time>
      </trkpt>
      <trkpt lat="42.728311" lon="0.532361">
        <ele>2454.0</ele>
        <time>2020-06-02T13:32:12Z</time>
      </trkpt>
      <trkpt lat="42.728273" lon="0.532470">
        <ele>2451.5</ele>
        <time>2020-06-02T13:32:23Z</time>
      </trkpt>
      <trkpt lat="42.728287" lon="0.532557">
        <ele>2444.7</ele>
        <time>2020-06-02T13:32:51Z</time>
      </trkpt>
      <trkpt lat="42.728294" lon="0.532666">
        <ele>2440.0</ele>
        <time>2020-06-02T13:33:41Z</time>
      </trkpt>
      <trkpt lat="42.728260" lon="0.532787">
        <ele>2438.0</ele>
        <time>2020-06-02T13:33:49Z</time>
      </trkpt>
      <trkpt lat="42.728214" lon="0.532897">
        <ele>2437.0</ele>
        <time>2020-06-02T13:33:58Z</time>
      </trkpt>
      <trkpt lat="42.728172" lon="0.532989">
        <ele>2435.1</ele>
        <time>2020-06-02T13:34:16Z</time>
      </trkpt>
      <trkpt lat="42.728154" lon="0.533131">
        <ele>2432.9</ele>
        <time>2020-06-02T13:34:29Z</time>
      </trkpt>
      <trkpt lat="42.728168" lon="0.533229">
        <ele>2428.8</ele>
        <time>2020-06-02T13:37:56Z</time>
      </trkpt>
      <trkpt lat="42.728112" lon="0.533311">
        <ele>2422.9</ele>
        <time>2020-06-02T13:40:52Z</time>
      </trkpt>
      <trkpt lat="42.728038" lon="0.533352">
        <ele>2417.0</ele>
        <time>2020-06-02T13:41:45Z</time>
      </trkpt>
      <trkpt lat="42.727972" lon="0.533426">
        <ele>2411.5</ele>
        <time>2020-06-02T13:42:04Z</time>
      </trkpt>
      <trkpt lat="42.727920" lon="0.533499">
        <ele>2406.9</ele>
        <time>2020-06-02T13:42:27Z</time>
      </trkpt>
      <trkpt lat="42.727859" lon="0.533589">
        <ele>2401.6</ele>
        <time>2020-06-02T13:42:52Z</time>
      </trkpt>
      <trkpt lat="42.727808" lon="0.533673">
        <ele>2393.4</ele>
        <time>2020-06-02T13:43:37Z</time>
      </trkpt>
      <trkpt lat="42.727741" lon="0.533719">
        <ele>2386.0</ele>
        <time>2020-06-02T13:44:40Z</time>
      </trkpt>
      <trkpt lat="42.727689" lon="0.533736">
        <ele>2381.4</ele>
        <time>2020-06-02T13:45:14Z</time>
      </trkpt>
      <trkpt lat="42.727675" lon="0.533782">
        <ele>2376.7</ele>
        <time>2020-06-02T13:46:18Z</time>
      </trkpt>
      <trkpt lat="42.727664" lon="0.533869">
        <ele>2373.1</ele>
        <time>2020-06-02T13:46:45Z</time>
      </trkpt>
      <trkpt lat="42.727632" lon="0.533932">
        <ele>2369.6</ele>
        <time>2020-06-02T13:49:09Z</time>
      </trkpt>
      <trkpt lat="42.727614" lon="0.534038">
        <ele>2364.0</ele>
        <time>2020-06-02T13:49:32Z</time>
      </trkpt>
      <trkpt lat="42.727572" lon="0.534164">
        <ele>2359.4</ele>
        <time>2020-06-02T13:49:47Z</time>
      </trkpt>
      <trkpt lat="42.727513" lon="0.534283">
        <ele>2358.2</ele>
        <time>2020-06-02T13:49:54Z</time>
      </trkpt>
      <trkpt lat="42.727477" lon="0.534404">
        <ele>2358.2</ele>
        <time>2020-06-02T13:50:04Z</time>
      </trkpt>
      <trkpt lat="42.727452" lon="0.534520">
        <ele>2355.4</ele>
        <time>2020-06-02T13:50:28Z</time>
      </trkpt>
      <trkpt lat="42.727440" lon="0.534613">
        <ele>2352.2</ele>
        <time>2020-06-02T13:51:25Z</time>
      </trkpt>
      <trkpt lat="42.727431" lon="0.534696">
        <ele>2347.5</ele>
        <time>2020-06-02T13:53:32Z</time>
      </trkpt>
      <trkpt lat="42.727387" lon="0.534804">
        <ele>2344.1</ele>
        <time>2020-06-02T13:53:59Z</time>
      </trkpt>
      <trkpt lat="42.727340" lon="0.534897">
        <ele>2339.1</ele>
        <time>2020-06-02T13:54:13Z</time>
      </trkpt>
      <trkpt lat="42.727323" lon="0.534972">
        <ele>2339.3</ele>
        <time>2020-06-02T13:55:39Z</time>
      </trkpt>
      <trkpt lat="42.727285" lon="0.535071">
        <ele>2335.4</ele>
        <time>2020-06-02T13:55:50Z</time>
      </trkpt>
      <trkpt lat="42.727371" lon="0.535030">
        <ele>2331.6</ele>
        <time>2020-06-02T13:55:59Z</time>
      </trkpt>
      <trkpt lat="42.727441" lon="0.534946">
        <ele>2329.9</ele>
        <time>2020-06-02T13:56:09Z</time>
      </trkpt>
      <trkpt lat="42.727517" lon="0.534873">
        <ele>2329.9</ele>
        <time>2020-06-02T13:56:19Z</time>
      </trkpt>
      <trkpt lat="42.727566" lon="0.534764">
        <ele>2330.1</ele>
        <time>2020-06-02T13:56:36Z</time>
      </trkpt>
      <trkpt lat="42.727650" lon="0.534674">
        <ele>2330.0</ele>
        <time>2020-06-02T13:56:45Z</time>
      </trkpt>
      <trkpt lat="42.727725" lon="0.534578">
        <ele>2330.0</ele>
        <time>2020-06-02T13:56:54Z</time>
      </trkpt>
      <trkpt lat="42.727787" lon="0.534475">
        <ele>2330.0</ele>
        <time>2020-06-02T13:57:03Z</time>
      </trkpt>
      <trkpt lat="42.727860" lon="0.534389">
        <ele>2330.8</ele>
        <time>2020-06-02T13:57:16Z</time>
      </trkpt>
      <trkpt lat="42.727958" lon="0.534338">
        <ele>2330.5</ele>
        <time>2020-06-02T13:57:31Z</time>
      </trkpt>
      <trkpt lat="42.728032" lon="0.534398">
        <ele>2325.9</ele>
        <time>2020-06-02T13:57:47Z</time>
      </trkpt>
      <trkpt lat="42.728102" lon="0.534372">
        <ele>2325.8</ele>
        <time>2020-06-02T13:58:27Z</time>
      </trkpt>
      <trkpt lat="42.728193" lon="0.534315">
        <ele>2329.0</ele>
        <time>2020-06-02T13:58:50Z</time>
      </trkpt>
      <trkpt lat="42.728282" lon="0.534339">
        <ele>2328.7</ele>
        <time>2020-06-02T13:59:10Z</time>
      </trkpt>
      <trkpt lat="42.728371" lon="0.534349">
        <ele>2330.5</ele>
        <time>2020-06-02T13:59:33Z</time>
      </trkpt>
      <trkpt lat="42.728430" lon="0.534453">
        <ele>2332.9</ele>
        <time>2020-06-02T13:59:47Z</time>
      </trkpt>
      <trkpt lat="42.728463" lon="0.534408">
        <ele>2334.2</ele>
        <time>2020-06-02T14:00:52Z</time>
      </trkpt>
      <trkpt lat="42.728461" lon="0.534323">
        <ele>2337.4</ele>
        <time>2020-06-02T14:01:45Z</time>
      </trkpt>
      <trkpt lat="42.728458" lon="0.534193">
        <ele>2340.9</ele>
        <time>2020-06-02T14:02:07Z</time>
      </trkpt>
      <trkpt lat="42.728463" lon="0.534118">
        <ele>2345.3</ele>
        <time>2020-06-02T14:02:29Z</time>
      </trkpt>
      <trkpt lat="42.728538" lon="0.534210">
        <ele>2347.0</ele>
        <time>2020-06-02T14:02:47Z</time>
      </trkpt>
      <trkpt lat="42.728565" lon="0.534215">
        <ele>2350.4</ele>
        <time>2020-06-02T14:03:04Z</time>
      </trkpt>
      <trkpt lat="42.728553" lon="0.534139">
        <ele>2352.7</ele>
        <time>2020-06-02T14:03:44Z</time>
      </trkpt>
      <trkpt lat="42.728550" lon="0.534064">
        <ele>2353.2</ele>
        <time>2020-06-02T14:05:07Z</time>
      </trkpt>
      <trkpt lat="42.728559" lon="0.533946">
        <ele>2350.7</ele>
        <time>2020-06-02T14:05:19Z</time>
      </trkpt>
      <trkpt lat="42.728573" lon="0.533820">
        <ele>2348.9</ele>
        <time>2020-06-02T14:05:33Z</time>
      </trkpt>
      <trkpt lat="42.728601" lon="0.533702">
        <ele>2348.1</ele>
        <time>2020-06-02T14:05:46Z</time>
      </trkpt>
      <trkpt lat="42.728653" lon="0.533599">
        <ele>2346.2</ele>
        <time>2020-06-02T14:05:58Z</time>
      </trkpt>
      <trkpt lat="42.728713" lon="0.533509">
        <ele>2343.8</ele>
        <time>2020-06-02T14:06:26Z</time>
      </trkpt>
      <trkpt lat="42.728778" lon="0.533421">
        <ele>2343.0</ele>
        <time>2020-06-02T14:06:40Z</time>
      </trkpt>
      <trkpt lat="42.728828" lon="0.533395">
        <ele>2341.1</ele>
        <time>2020-06-02T14:07:16Z</time>
      </trkpt>
      <trkpt lat="42.728795" lon="0.533513">
        <ele>2338.7</ele>
        <time>2020-06-02T14:07:27Z</time>
      </trkpt>
      <trkpt lat="42.728794" lon="0.533599">
        <ele>2335.9</ele>
        <time>2020-06-02T14:07:39Z</time>
      </trkpt>
      <trkpt lat="42.728865" lon="0.533530">
        <ele>2333.3</ele>
        <time>2020-06-02T14:07:56Z</time>
      </trkpt>
      <trkpt lat="42.728902" lon="0.533590">
        <ele>2329.7</ele>
        <time>2020-06-02T14:08:37Z</time>
      </trkpt>
      <trkpt lat="42.728895" lon="0.533676">
        <ele>2327.3</ele>
        <time>2020-06-02T14:09:15Z</time>
      </trkpt>
      <trkpt lat="42.728956" lon="0.533753">
        <ele>2322.7</ele>
        <time>2020-06-02T14:09:35Z</time>
      </trkpt>
      <trkpt lat="42.729031" lon="0.533687">
        <ele>2319.9</ele>
        <time>2020-06-02T14:10:49Z</time>
      </trkpt>
      <trkpt lat="42.729100" lon="0.533600">
        <ele>2318.1</ele>
        <time>2020-06-02T14:10:58Z</time>
      </trkpt>
      <trkpt lat="42.729164" lon="0.533496">
        <ele>2317.3</ele>
        <time>2020-06-02T14:11:06Z</time>
      </trkpt>
      <trkpt lat="42.729216" lon="0.533399">
        <ele>2316.5</ele>
        <time>2020-06-02T14:11:13Z</time>
      </trkpt>
      <trkpt lat="42.729266" lon="0.533297">
        <ele>2314.0</ele>
        <time>2020-06-02T14:11:20Z</time>
      </trkpt>
      <trkpt lat="42.729317" lon="0.533205">
        <ele>2312.8</ele>
        <time>2020-06-02T14:11:29Z</time>
      </trkpt>
      <trkpt lat="42.729358" lon="0.533084">
        <ele>2311.0</ele>
        <time>2020-06-02T14:11:43Z</time>
      </trkpt>
      <trkpt lat="42.729430" lon="0.533037">
        <ele>2308.4</ele>
        <time>2020-06-02T14:11:55Z</time>
      </trkpt>
      <trkpt lat="42.729491" lon="0.532975">
        <ele>2307.2</ele>
        <time>2020-06-02T14:12:09Z</time>
      </trkpt>
      <trkpt lat="42.729545" lon="0.532877">
        <ele>2306.4</ele>
        <time>2020-06-02T14:12:20Z</time>
      </trkpt>
      <trkpt lat="42.729570" lon="0.532811">
        <ele>2304.4</ele>
        <time>2020-06-02T14:14:31Z</time>
      </trkpt>
      <trkpt lat="42.729604" lon="0.532698">
        <ele>2304.3</ele>
        <time>2020-06-02T14:14:45Z</time>
      </trkpt>
      <trkpt lat="42.729701" lon="0.532651">
        <ele>2304.3</ele>
        <time>2020-06-02T14:14:57Z</time>
      </trkpt>
      <trkpt lat="42.729799" lon="0.532595">
        <ele>2303.1</ele>
        <time>2020-06-02T14:15:09Z</time>
      </trkpt>
      <trkpt lat="42.729895" lon="0.532549">
        <ele>2300.6</ele>
        <time>2020-06-02T14:15:21Z</time>
      </trkpt>
      <trkpt lat="42.729982" lon="0.532497">
        <ele>2298.1</ele>
        <time>2020-06-02T14:15:35Z</time>
      </trkpt>
      <trkpt lat="42.730064" lon="0.532503">
        <ele>2296.1</ele>
        <time>2020-06-02T14:15:47Z</time>
      </trkpt>
      <trkpt lat="42.730162" lon="0.532485">
        <ele>2294.5</ele>
        <time>2020-06-02T14:16:00Z</time>
      </trkpt>
      <trkpt lat="42.730247" lon="0.532471">
        <ele>2292.8</ele>
        <time>2020-06-02T14:16:15Z</time>
      </trkpt>
      <trkpt lat="42.730338" lon="0.532491">
        <ele>2290.9</ele>
        <time>2020-06-02T14:16:29Z</time>
      </trkpt>
      <trkpt lat="42.730379" lon="0.532521">
        <ele>2285.9</ele>
        <time>2020-06-02T14:16:49Z</time>
      </trkpt>
      <trkpt lat="42.730424" lon="0.532588">
        <ele>2282.2</ele>
        <time>2020-06-02T14:17:12Z</time>
      </trkpt>
      <trkpt lat="42.730470" lon="0.532698">
        <ele>2276.4</ele>
        <time>2020-06-02T14:17:29Z</time>
      </trkpt>
      <trkpt lat="42.730539" lon="0.532729">
        <ele>2271.0</ele>
        <time>2020-06-02T14:18:01Z</time>
      </trkpt>
      <trkpt lat="42.730552" lon="0.532770">
        <ele>2268.9</ele>
        <time>2020-06-02T14:18:21Z</time>
      </trkpt>
      <trkpt lat="42.730587" lon="0.532869">
        <ele>2263.4</ele>
        <time>2020-06-02T14:18:47Z</time>
      </trkpt>
      <trkpt lat="42.730635" lon="0.532943">
        <ele>2258.9</ele>
        <time>2020-06-02T14:19:04Z</time>
      </trkpt>
      <trkpt lat="42.730717" lon="0.532950">
        <ele>2253.7</ele>
        <time>2020-06-02T14:19:31Z</time>
      </trkpt>
      <trkpt lat="42.730759" lon="0.533008">
        <ele>2250.9</ele>
        <time>2020-06-02T14:20:01Z</time>
      </trkpt>
      <trkpt lat="42.730819" lon="0.533056">
        <ele>2248.2</ele>
        <time>2020-06-02T14:20:21Z</time>
      </trkpt>
      <trkpt lat="42.730837" lon="0.533170">
        <ele>2243.3</ele>
        <time>2020-06-02T14:20:38Z</time>
      </trkpt>
      <trkpt lat="42.730851" lon="0.533266">
        <ele>2237.9</ele>
        <time>2020-06-02T14:21:01Z</time>
      </trkpt>
      <trkpt lat="42.730885" lon="0.533369">
        <ele>2233.4</ele>
        <time>2020-06-02T14:21:27Z</time>
      </trkpt>
      <trkpt lat="42.730963" lon="0.533419">
        <ele>2227.5</ele>
        <time>2020-06-02T14:21:46Z</time>
      </trkpt>
      <trkpt lat="42.731050" lon="0.533399">
        <ele>2224.6</ele>
        <time>2020-06-02T14:22:03Z</time>
      </trkpt>
      <trkpt lat="42.731140" lon="0.533399">
        <ele>2220.4</ele>
        <time>2020-06-02T14:22:38Z</time>
      </trkpt>
      <trkpt lat="42.731228" lon="0.533367">
        <ele>2217.5</ele>
        <time>2020-06-02T14:22:51Z</time>
      </trkpt>
      <trkpt lat="42.731304" lon="0.533311">
        <ele>2216.7</ele>
        <time>2020-06-02T14:23:04Z</time>
      </trkpt>
      <trkpt lat="42.731382" lon="0.533277">
        <ele>2215.1</ele>
        <time>2020-06-02T14:23:24Z</time>
      </trkpt>
      <trkpt lat="42.731468" lon="0.533254">
        <ele>2215.0</ele>
        <time>2020-06-02T14:23:49Z</time>
      </trkpt>
      <trkpt lat="42.731556" lon="0.533210">
        <ele>2214.7</ele>
        <time>2020-06-02T14:25:42Z</time>
      </trkpt>
      <trkpt lat="42.731647" lon="0.533198">
        <ele>2214.7</ele>
        <time>2020-06-02T14:25:52Z</time>
      </trkpt>
      <trkpt lat="42.731735" lon="0.533205">
        <ele>2213.8</ele>
        <time>2020-06-02T14:26:01Z</time>
      </trkpt>
      <trkpt lat="42.731804" lon="0.533133">
        <ele>2210.5</ele>
        <time>2020-06-02T14:26:15Z</time>
      </trkpt>
      <trkpt lat="42.731891" lon="0.533115">
        <ele>2207.9</ele>
        <time>2020-06-02T14:26:29Z</time>
      </trkpt>
      <trkpt lat="42.731982" lon="0.533103">
        <ele>2207.1</ele>
        <time>2020-06-02T14:26:40Z</time>
      </trkpt>
      <trkpt lat="42.732069" lon="0.533097">
        <ele>2206.3</ele>
        <time>2020-06-02T14:26:50Z</time>
      </trkpt>
      <trkpt lat="42.732150" lon="0.533049">
        <ele>2204.4</ele>
        <time>2020-06-02T14:27:01Z</time>
      </trkpt>
      <trkpt lat="42.732215" lon="0.532973">
        <ele>2204.4</ele>
        <time>2020-06-02T14:27:14Z</time>
      </trkpt>
      <trkpt lat="42.732291" lon="0.532895">
        <ele>2204.4</ele>
        <time>2020-06-02T14:27:26Z</time>
      </trkpt>
      <trkpt lat="42.732375" lon="0.532840">
        <ele>2203.5</ele>
        <time>2020-06-02T14:27:36Z</time>
      </trkpt>
      <trkpt lat="42.732437" lon="0.532758">
        <ele>2203.5</ele>
        <time>2020-06-02T14:27:56Z</time>
      </trkpt>
      <trkpt lat="42.732462" lon="0.532650">
        <ele>2203.4</ele>
        <time>2020-06-02T14:28:08Z</time>
      </trkpt>
      <trkpt lat="42.732477" lon="0.532534">
        <ele>2205.7</ele>
        <time>2020-06-02T14:28:23Z</time>
      </trkpt>
      <trkpt lat="42.732494" lon="0.532420">
        <ele>2207.2</ele>
        <time>2020-06-02T14:28:36Z</time>
      </trkpt>
      <trkpt lat="42.732511" lon="0.532301">
        <ele>2208.8</ele>
        <time>2020-06-02T14:28:52Z</time>
      </trkpt>
      <trkpt lat="42.732519" lon="0.532181">
        <ele>2212.1</ele>
        <time>2020-06-02T14:29:11Z</time>
      </trkpt>
      <trkpt lat="42.732548" lon="0.532060">
        <ele>2213.0</ele>
        <time>2020-06-02T14:29:24Z</time>
      </trkpt>
      <trkpt lat="42.732576" lon="0.531932">
        <ele>2212.9</ele>
        <time>2020-06-02T14:29:35Z</time>
      </trkpt>
      <trkpt lat="42.732602" lon="0.531815">
        <ele>2213.7</ele>
        <time>2020-06-02T14:29:47Z</time>
      </trkpt>
      <trkpt lat="42.732623" lon="0.531696">
        <ele>2214.4</ele>
        <time>2020-06-02T14:30:00Z</time>
      </trkpt>
      <trkpt lat="42.732698" lon="0.531650">
        <ele>2212.0</ele>
        <time>2020-06-02T14:30:31Z</time>
      </trkpt>
      <trkpt lat="42.732749" lon="0.531625">
        <ele>2209.1</ele>
        <time>2020-06-02T14:31:53Z</time>
      </trkpt>
      <trkpt lat="42.732752" lon="0.531559">
        <ele>2207.1</ele>
        <time>2020-06-02T14:32:51Z</time>
      </trkpt>
      <trkpt lat="42.732761" lon="0.531463">
        <ele>2207.0</ele>
        <time>2020-06-02T14:33:12Z</time>
      </trkpt>
      <trkpt lat="42.732818" lon="0.531322">
        <ele>2206.9</ele>
        <time>2020-06-02T14:33:25Z</time>
      </trkpt>
      <trkpt lat="42.732924" lon="0.531278">
        <ele>2206.9</ele>
        <time>2020-06-02T14:33:35Z</time>
      </trkpt>
      <trkpt lat="42.733021" lon="0.531236">
        <ele>2206.8</ele>
        <time>2020-06-02T14:33:45Z</time>
      </trkpt>
      <trkpt lat="42.733119" lon="0.531206">
        <ele>2205.8</ele>
        <time>2020-06-02T14:33:55Z</time>
      </trkpt>
      <trkpt lat="42.733207" lon="0.531164">
        <ele>2204.9</ele>
        <time>2020-06-02T14:34:05Z</time>
      </trkpt>
      <trkpt lat="42.733300" lon="0.531159">
        <ele>2204.1</ele>
        <time>2020-06-02T14:34:14Z</time>
      </trkpt>
      <trkpt lat="42.733397" lon="0.531154">
        <ele>2203.0</ele>
        <time>2020-06-02T14:34:24Z</time>
      </trkpt>
      <trkpt lat="42.733499" lon="0.531137">
        <ele>2202.2</ele>
        <time>2020-06-02T14:34:33Z</time>
      </trkpt>
      <trkpt lat="42.733597" lon="0.531111">
        <ele>2201.3</ele>
        <time>2020-06-02T14:34:42Z</time>
      </trkpt>
      <trkpt lat="42.733668" lon="0.531042">
        <ele>2200.5</ele>
        <time>2020-06-02T14:34:51Z</time>
      </trkpt>
      <trkpt lat="42.733751" lon="0.530975">
        <ele>2200.3</ele>
        <time>2020-06-02T14:35:00Z</time>
      </trkpt>
      <trkpt lat="42.733827" lon="0.530922">
        <ele>2199.3</ele>
        <time>2020-06-02T14:35:11Z</time>
      </trkpt>
      <trkpt lat="42.733891" lon="0.530837">
        <ele>2198.6</ele>
        <time>2020-06-02T14:35:20Z</time>
      </trkpt>
      <trkpt lat="42.733972" lon="0.530743">
        <ele>2197.5</ele>
        <time>2020-06-02T14:35:29Z</time>
      </trkpt>
      <trkpt lat="42.734033" lon="0.530638">
        <ele>2196.4</ele>
        <time>2020-06-02T14:35:37Z</time>
      </trkpt>
      <trkpt lat="42.734087" lon="0.530535">
        <ele>2196.4</ele>
        <time>2020-06-02T14:35:45Z</time>
      </trkpt>
      <trkpt lat="42.734154" lon="0.530441">
        <ele>2195.6</ele>
        <time>2020-06-02T14:35:53Z</time>
      </trkpt>
      <trkpt lat="42.734195" lon="0.530334">
        <ele>2195.6</ele>
        <time>2020-06-02T14:36:01Z</time>
      </trkpt>
      <trkpt lat="42.734248" lon="0.530229">
        <ele>2192.7</ele>
        <time>2020-06-02T14:36:11Z</time>
      </trkpt>
      <trkpt lat="42.734281" lon="0.530101">
        <ele>2191.9</ele>
        <time>2020-06-02T14:36:20Z</time>
      </trkpt>
      <trkpt lat="42.734302" lon="0.529973">
        <ele>2192.0</ele>
        <time>2020-06-02T14:36:29Z</time>
      </trkpt>
      <trkpt lat="42.734341" lon="0.529850">
        <ele>2192.1</ele>
        <time>2020-06-02T14:36:40Z</time>
      </trkpt>
      <trkpt lat="42.734388" lon="0.529740">
        <ele>2192.0</ele>
        <time>2020-06-02T14:36:50Z</time>
      </trkpt>
      <trkpt lat="42.734447" lon="0.529633">
        <ele>2194.4</ele>
        <time>2020-06-02T14:37:00Z</time>
      </trkpt>
      <trkpt lat="42.734502" lon="0.529512">
        <ele>2195.1</ele>
        <time>2020-06-02T14:37:11Z</time>
      </trkpt>
      <trkpt lat="42.734565" lon="0.529404">
        <ele>2195.9</ele>
        <time>2020-06-02T14:37:21Z</time>
      </trkpt>
      <trkpt lat="42.734663" lon="0.529359">
        <ele>2197.1</ele>
        <time>2020-06-02T14:37:30Z</time>
      </trkpt>
      <trkpt lat="42.734742" lon="0.529288">
        <ele>2197.8</ele>
        <time>2020-06-02T14:37:45Z</time>
      </trkpt>
      <trkpt lat="42.734773" lon="0.529172">
        <ele>2197.8</ele>
        <time>2020-06-02T14:37:54Z</time>
      </trkpt>
      <trkpt lat="42.734829" lon="0.529074">
        <ele>2198.5</ele>
        <time>2020-06-02T14:38:03Z</time>
      </trkpt>
      <trkpt lat="42.734912" lon="0.529012">
        <ele>2198.4</ele>
        <time>2020-06-02T14:38:12Z</time>
      </trkpt>
      <trkpt lat="42.735003" lon="0.528989">
        <ele>2198.3</ele>
        <time>2020-06-02T14:38:21Z</time>
      </trkpt>
      <trkpt lat="42.735102" lon="0.529009">
        <ele>2198.3</ele>
        <time>2020-06-02T14:38:30Z</time>
      </trkpt>
      <trkpt lat="42.735192" lon="0.529056">
        <ele>2195.8</ele>
        <time>2020-06-02T14:38:39Z</time>
      </trkpt>
      <trkpt lat="42.735287" lon="0.529091">
        <ele>2193.9</ele>
        <time>2020-06-02T14:38:48Z</time>
      </trkpt>
      <trkpt lat="42.735374" lon="0.529122">
        <ele>2193.1</ele>
        <time>2020-06-02T14:38:57Z</time>
      </trkpt>
      <trkpt lat="42.735468" lon="0.529143">
        <ele>2190.6</ele>
        <time>2020-06-02T14:39:08Z</time>
      </trkpt>
      <trkpt lat="42.735526" lon="0.529162">
        <ele>2187.7</ele>
        <time>2020-06-02T14:40:02Z</time>
      </trkpt>
      <trkpt lat="42.735616" lon="0.529157">
        <ele>2184.7</ele>
        <time>2020-06-02T14:40:11Z</time>
      </trkpt>
      <trkpt lat="42.735701" lon="0.529128">
        <ele>2183.8</ele>
        <time>2020-06-02T14:40:22Z</time>
      </trkpt>
      <trkpt lat="42.735788" lon="0.529088">
        <ele>2182.1</ele>
        <time>2020-06-02T14:40:40Z</time>
      </trkpt>
      <trkpt lat="42.735877" lon="0.529048">
        <ele>2179.5</ele>
        <time>2020-06-02T14:40:51Z</time>
      </trkpt>
      <trkpt lat="42.735957" lon="0.528989">
        <ele>2177.6</ele>
        <time>2020-06-02T14:41:02Z</time>
      </trkpt>
      <trkpt lat="42.736028" lon="0.528917">
        <ele>2176.8</ele>
        <time>2020-06-02T14:41:19Z</time>
      </trkpt>
      <trkpt lat="42.736110" lon="0.528837">
        <ele>2175.9</ele>
        <time>2020-06-02T14:41:27Z</time>
      </trkpt>
      <trkpt lat="42.736192" lon="0.528741">
        <ele>2174.9</ele>
        <time>2020-06-02T14:41:37Z</time>
      </trkpt>
      <trkpt lat="42.736278" lon="0.528664">
        <ele>2174.9</ele>
        <time>2020-06-02T14:41:46Z</time>
      </trkpt>
      <trkpt lat="42.736371" lon="0.528585">
        <ele>2174.0</ele>
        <time>2020-06-02T14:41:56Z</time>
      </trkpt>
      <trkpt lat="42.736450" lon="0.528506">
        <ele>2173.1</ele>
        <time>2020-06-02T14:42:04Z</time>
      </trkpt>
      <trkpt lat="42.736521" lon="0.528421">
        <ele>2172.3</ele>
        <time>2020-06-02T14:42:12Z</time>
      </trkpt>
      <trkpt lat="42.736571" lon="0.528302">
        <ele>2172.3</ele>
        <time>2020-06-02T14:42:22Z</time>
      </trkpt>
      <trkpt lat="42.736637" lon="0.528190">
        <ele>2172.3</ele>
        <time>2020-06-02T14:42:32Z</time>
      </trkpt>
      <trkpt lat="42.736708" lon="0.528108">
        <ele>2172.2</ele>
        <time>2020-06-02T14:42:46Z</time>
      </trkpt>
      <trkpt lat="42.736787" lon="0.528027">
        <ele>2171.3</ele>
        <time>2020-06-02T14:42:56Z</time>
      </trkpt>
      <trkpt lat="42.736866" lon="0.527948">
        <ele>2170.5</ele>
        <time>2020-06-02T14:43:06Z</time>
      </trkpt>
      <trkpt lat="42.736915" lon="0.527841">
        <ele>2170.5</ele>
        <time>2020-06-02T14:43:16Z</time>
      </trkpt>
      <trkpt lat="42.736993" lon="0.527825">
        <ele>2169.5</ele>
        <time>2020-06-02T14:43:29Z</time>
      </trkpt>
      <trkpt lat="42.737064" lon="0.527895">
        <ele>2166.0</ele>
        <time>2020-06-02T14:43:59Z</time>
      </trkpt>
      <trkpt lat="42.737112" lon="0.528004">
        <ele>2164.1</ele>
        <time>2020-06-02T14:44:09Z</time>
      </trkpt>
      <trkpt lat="42.737154" lon="0.528119">
        <ele>2161.5</ele>
        <time>2020-06-02T14:44:20Z</time>
      </trkpt>
      <trkpt lat="42.737206" lon="0.528225">
        <ele>2159.4</ele>
        <time>2020-06-02T14:44:28Z</time>
      </trkpt>
      <trkpt lat="42.737230" lon="0.528349">
        <ele>2158.4</ele>
        <time>2020-06-02T14:44:35Z</time>
      </trkpt>
      <trkpt lat="42.737204" lon="0.528472">
        <ele>2156.1</ele>
        <time>2020-06-02T14:44:44Z</time>
      </trkpt>
      <trkpt lat="42.737177" lon="0.528588">
        <ele>2155.3</ele>
        <time>2020-06-02T14:44:53Z</time>
      </trkpt>
      <trkpt lat="42.737173" lon="0.528728">
        <ele>2155.3</ele>
        <time>2020-06-02T14:45:02Z</time>
      </trkpt>
      <trkpt lat="42.737231" lon="0.528813">
        <ele>2155.3</ele>
        <time>2020-06-02T14:45:14Z</time>
      </trkpt>
      <trkpt lat="42.737331" lon="0.528815">
        <ele>2155.3</ele>
        <time>2020-06-02T14:45:35Z</time>
      </trkpt>
      <trkpt lat="42.737422" lon="0.528782">
        <ele>2155.3</ele>
        <time>2020-06-02T14:45:45Z</time>
      </trkpt>
      <trkpt lat="42.737500" lon="0.528713">
        <ele>2157.6</ele>
        <time>2020-06-02T14:45:56Z</time>
      </trkpt>
      <trkpt lat="42.737544" lon="0.528724">
        <ele>2157.4</ele>
        <time>2020-06-02T14:46:14Z</time>
      </trkpt>
      <trkpt lat="42.737595" lon="0.528814">
        <ele>2153.0</ele>
        <time>2020-06-02T14:46:29Z</time>
      </trkpt>
      <trkpt lat="42.737656" lon="0.528855">
        <ele>2149.3</ele>
        <time>2020-06-02T14:46:41Z</time>
      </trkpt>
      <trkpt lat="42.737691" lon="0.528752">
        <ele>2146.8</ele>
        <time>2020-06-02T14:47:00Z</time>
      </trkpt>
      <trkpt lat="42.737773" lon="0.528707">
        <ele>2143.4</ele>
        <time>2020-06-02T14:47:20Z</time>
      </trkpt>
      <trkpt lat="42.737837" lon="0.528640">
        <ele>2142.5</ele>
        <time>2020-06-02T14:47:36Z</time>
      </trkpt>
      <trkpt lat="42.737932" lon="0.528606">
        <ele>2140.1</ele>
        <time>2020-06-02T14:47:54Z</time>
      </trkpt>
      <trkpt lat="42.738033" lon="0.528608">
        <ele>2137.4</ele>
        <time>2020-06-02T14:48:05Z</time>
      </trkpt>
      <trkpt lat="42.738129" lon="0.528626">
        <ele>2135.2</ele>
        <time>2020-06-02T14:48:16Z</time>
      </trkpt>
      <trkpt lat="42.738221" lon="0.528593">
        <ele>2132.5</ele>
        <time>2020-06-02T14:48:26Z</time>
      </trkpt>
      <trkpt lat="42.738299" lon="0.528515">
        <ele>2131.8</ele>
        <time>2020-06-02T14:48:34Z</time>
      </trkpt>
      <trkpt lat="42.738377" lon="0.528420">
        <ele>2130.9</ele>
        <time>2020-06-02T14:48:43Z</time>
      </trkpt>
      <trkpt lat="42.738465" lon="0.528337">
        <ele>2130.6</ele>
        <time>2020-06-02T14:50:51Z</time>
      </trkpt>
      <trkpt lat="42.738556" lon="0.528280">
        <ele>2130.5</ele>
        <time>2020-06-02T14:51:09Z</time>
      </trkpt>
      <trkpt lat="42.738596" lon="0.528190">
        <ele>2135.1</ele>
        <time>2020-06-02T14:51:44Z</time>
      </trkpt>
      <trkpt lat="42.738649" lon="0.528101">
        <ele>2138.6</ele>
        <time>2020-06-02T14:52:02Z</time>
      </trkpt>
      <trkpt lat="42.738683" lon="0.527997">
        <ele>2140.4</ele>
        <time>2020-06-02T14:52:18Z</time>
      </trkpt>
      <trkpt lat="42.738746" lon="0.527898">
        <ele>2140.3</ele>
        <time>2020-06-02T14:52:32Z</time>
      </trkpt>
      <trkpt lat="42.738796" lon="0.527786">
        <ele>2141.0</ele>
        <time>2020-06-02T14:52:46Z</time>
      </trkpt>
      <trkpt lat="42.738872" lon="0.527707">
        <ele>2141.8</ele>
        <time>2020-06-02T14:52:57Z</time>
      </trkpt>
      <trkpt lat="42.738937" lon="0.527612">
        <ele>2142.6</ele>
        <time>2020-06-02T14:53:11Z</time>
      </trkpt>
      <trkpt lat="42.738978" lon="0.527488">
        <ele>2142.5</ele>
        <time>2020-06-02T14:53:23Z</time>
      </trkpt>
      <trkpt lat="42.738988" lon="0.527359">
        <ele>2142.4</ele>
        <time>2020-06-02T14:53:35Z</time>
      </trkpt>
      <trkpt lat="42.739030" lon="0.527385">
        <ele>2139.0</ele>
        <time>2020-06-02T14:53:55Z</time>
      </trkpt>
      <trkpt lat="42.739088" lon="0.527469">
        <ele>2133.8</ele>
        <time>2020-06-02T14:54:26Z</time>
      </trkpt>
      <trkpt lat="42.739109" lon="0.527575">
        <ele>2130.2</ele>
        <time>2020-06-02T14:54:45Z</time>
      </trkpt>
      <trkpt lat="42.739178" lon="0.527553">
        <ele>2127.4</ele>
        <time>2020-06-02T14:54:58Z</time>
      </trkpt>
      <trkpt lat="42.739230" lon="0.527455">
        <ele>2125.6</ele>
        <time>2020-06-02T14:55:10Z</time>
      </trkpt>
      <trkpt lat="42.739303" lon="0.527377">
        <ele>2124.9</ele>
        <time>2020-06-02T14:55:21Z</time>
      </trkpt>
      <trkpt lat="42.739337" lon="0.527271">
        <ele>2124.9</ele>
        <time>2020-06-02T14:55:34Z</time>
      </trkpt>
      <trkpt lat="42.739380" lon="0.527168">
        <ele>2127.2</ele>
        <time>2020-06-02T14:55:48Z</time>
      </trkpt>
      <trkpt lat="42.739433" lon="0.527060">
        <ele>2128.0</ele>
        <time>2020-06-02T14:56:01Z</time>
      </trkpt>
      <trkpt lat="42.739493" lon="0.526932">
        <ele>2129.7</ele>
        <time>2020-06-02T14:56:14Z</time>
      </trkpt>
      <trkpt lat="42.739568" lon="0.526855">
        <ele>2130.4</ele>
        <time>2020-06-02T14:56:28Z</time>
      </trkpt>
      <trkpt lat="42.739630" lon="0.526743">
        <ele>2131.3</ele>
        <time>2020-06-02T14:56:43Z</time>
      </trkpt>
      <trkpt lat="42.739666" lon="0.526589">
        <ele>2132.0</ele>
        <time>2020-06-02T14:56:56Z</time>
      </trkpt>
      <trkpt lat="42.739723" lon="0.526460">
        <ele>2131.9</ele>
        <time>2020-06-02T14:57:11Z</time>
      </trkpt>
      <trkpt lat="42.739781" lon="0.526345">
        <ele>2132.6</ele>
        <time>2020-06-02T14:57:26Z</time>
      </trkpt>
      <trkpt lat="42.739868" lon="0.526256">
        <ele>2133.3</ele>
        <time>2020-06-02T14:57:41Z</time>
      </trkpt>
      <trkpt lat="42.739955" lon="0.526196">
        <ele>2133.2</ele>
        <time>2020-06-02T14:57:56Z</time>
      </trkpt>
      <trkpt lat="42.740057" lon="0.526221">
        <ele>2135.1</ele>
        <time>2020-06-02T14:58:10Z</time>
      </trkpt>
      <trkpt lat="42.740157" lon="0.526251">
        <ele>2135.1</ele>
        <time>2020-06-02T14:58:21Z</time>
      </trkpt>
      <trkpt lat="42.740256" lon="0.526281">
        <ele>2135.9</ele>
        <time>2020-06-02T14:58:34Z</time>
      </trkpt>
      <trkpt lat="42.740347" lon="0.526292">
        <ele>2138.3</ele>
        <time>2020-06-02T14:58:51Z</time>
      </trkpt>
      <trkpt lat="42.740384" lon="0.526299">
        <ele>2138.6</ele>
        <time>2020-06-02T15:01:18Z</time>
      </trkpt>
      <trkpt lat="42.740462" lon="0.526343">
        <ele>2138.6</ele>
        <time>2020-06-02T15:01:33Z</time>
      </trkpt>
      <trkpt lat="42.740551" lon="0.526373">
        <ele>2140.3</ele>
        <time>2020-06-02T15:01:45Z</time>
      </trkpt>
      <trkpt lat="42.740645" lon="0.526426">
        <ele>2140.2</ele>
        <time>2020-06-02T15:01:55Z</time>
      </trkpt>
      <trkpt lat="42.740729" lon="0.526499">
        <ele>2142.1</ele>
        <time>2020-06-02T15:02:07Z</time>
      </trkpt>
      <trkpt lat="42.740807" lon="0.526558">
        <ele>2142.9</ele>
        <time>2020-06-02T15:02:17Z</time>
      </trkpt>
      <trkpt lat="42.740900" lon="0.526564">
        <ele>2144.6</ele>
        <time>2020-06-02T15:02:28Z</time>
      </trkpt>
      <trkpt lat="42.740990" lon="0.526606">
        <ele>2145.4</ele>
        <time>2020-06-02T15:02:40Z</time>
      </trkpt>
      <trkpt lat="42.741064" lon="0.526683">
        <ele>2146.2</ele>
        <time>2020-06-02T15:02:51Z</time>
      </trkpt>
      <trkpt lat="42.741134" lon="0.526765">
        <ele>2148.9</ele>
        <time>2020-06-02T15:03:05Z</time>
      </trkpt>
      <trkpt lat="42.741201" lon="0.526851">
        <ele>2150.4</ele>
        <time>2020-06-02T15:03:18Z</time>
      </trkpt>
      <trkpt lat="42.741262" lon="0.526956">
        <ele>2150.4</ele>
        <time>2020-06-02T15:03:30Z</time>
      </trkpt>
      <trkpt lat="42.741339" lon="0.527021">
        <ele>2151.3</ele>
        <time>2020-06-02T15:03:40Z</time>
      </trkpt>
      <trkpt lat="42.741409" lon="0.527113">
        <ele>2151.2</ele>
        <time>2020-06-02T15:03:50Z</time>
      </trkpt>
      <trkpt lat="42.741472" lon="0.527207">
        <ele>2152.0</ele>
        <time>2020-06-02T15:04:01Z</time>
      </trkpt>
      <trkpt lat="42.741534" lon="0.527290">
        <ele>2153.7</ele>
        <time>2020-06-02T15:04:14Z</time>
      </trkpt>
      <trkpt lat="42.741606" lon="0.527374">
        <ele>2153.7</ele>
        <time>2020-06-02T15:04:26Z</time>
      </trkpt>
      <trkpt lat="42.741651" lon="0.527489">
        <ele>2153.6</ele>
        <time>2020-06-02T15:04:37Z</time>
      </trkpt>
      <trkpt lat="42.741696" lon="0.527608">
        <ele>2154.4</ele>
        <time>2020-06-02T15:04:47Z</time>
      </trkpt>
      <trkpt lat="42.741774" lon="0.527681">
        <ele>2155.4</ele>
        <time>2020-06-02T15:04:57Z</time>
      </trkpt>
      <trkpt lat="42.741853" lon="0.527774">
        <ele>2158.3</ele>
        <time>2020-06-02T15:05:09Z</time>
      </trkpt>
      <trkpt lat="42.741925" lon="0.527857">
        <ele>2159.3</ele>
        <time>2020-06-02T15:05:21Z</time>
      </trkpt>
      <trkpt lat="42.741992" lon="0.527946">
        <ele>2160.9</ele>
        <time>2020-06-02T15:05:32Z</time>
      </trkpt>
      <trkpt lat="42.742053" lon="0.528051">
        <ele>2160.9</ele>
        <time>2020-06-02T15:05:42Z</time>
      </trkpt>
      <trkpt lat="42.742109" lon="0.528155">
        <ele>2161.8</ele>
        <time>2020-06-02T15:05:52Z</time>
      </trkpt>
      <trkpt lat="42.742170" lon="0.528254">
        <ele>2163.6</ele>
        <time>2020-06-02T15:06:04Z</time>
      </trkpt>
      <trkpt lat="42.742232" lon="0.528344">
        <ele>2164.4</ele>
        <time>2020-06-02T15:06:17Z</time>
      </trkpt>
      <trkpt lat="42.742273" lon="0.528457">
        <ele>2167.1</ele>
        <time>2020-06-02T15:06:28Z</time>
      </trkpt>
      <trkpt lat="42.742327" lon="0.528558">
        <ele>2168.8</ele>
        <time>2020-06-02T15:06:39Z</time>
      </trkpt>
      <trkpt lat="42.742365" lon="0.528679">
        <ele>2171.4</ele>
        <time>2020-06-02T15:06:52Z</time>
      </trkpt>
      <trkpt lat="42.742422" lon="0.528781">
        <ele>2171.4</ele>
        <time>2020-06-02T15:07:03Z</time>
      </trkpt>
      <trkpt lat="42.742460" lon="0.528890">
        <ele>2174.1</ele>
        <time>2020-06-02T15:07:20Z</time>
      </trkpt>
      <trkpt lat="42.742499" lon="0.529004">
        <ele>2175.0</ele>
        <time>2020-06-02T15:07:31Z</time>
      </trkpt>
      <trkpt lat="42.742571" lon="0.529092">
        <ele>2175.0</ele>
        <time>2020-06-02T15:07:41Z</time>
      </trkpt>
      <trkpt lat="42.742638" lon="0.529175">
        <ele>2175.0</ele>
        <time>2020-06-02T15:07:51Z</time>
      </trkpt>
      <trkpt lat="42.742723" lon="0.529221">
        <ele>2175.0</ele>
        <time>2020-06-02T15:08:01Z</time>
      </trkpt>
      <trkpt lat="42.742807" lon="0.529287">
        <ele>2175.1</ele>
        <time>2020-06-02T15:08:12Z</time>
      </trkpt>
      <trkpt lat="42.742852" lon="0.529394">
        <ele>2176.0</ele>
        <time>2020-06-02T15:08:26Z</time>
      </trkpt>
      <trkpt lat="42.742914" lon="0.529487">
        <ele>2176.9</ele>
        <time>2020-06-02T15:08:40Z</time>
      </trkpt>
      <trkpt lat="42.742972" lon="0.529595">
        <ele>2177.7</ele>
        <time>2020-06-02T15:08:52Z</time>
      </trkpt>
      <trkpt lat="42.743030" lon="0.529693">
        <ele>2179.5</ele>
        <time>2020-06-02T15:09:04Z</time>
      </trkpt>
      <trkpt lat="42.743079" lon="0.529803">
        <ele>2180.4</ele>
        <time>2020-06-02T15:09:14Z</time>
      </trkpt>
      <trkpt lat="42.743128" lon="0.529904">
        <ele>2182.1</ele>
        <time>2020-06-02T15:09:26Z</time>
      </trkpt>
      <trkpt lat="42.743197" lon="0.529988">
        <ele>2183.1</ele>
        <time>2020-06-02T15:09:39Z</time>
      </trkpt>
      <trkpt lat="42.743256" lon="0.530034">
        <ele>2184.8</ele>
        <time>2020-06-02T15:10:03Z</time>
      </trkpt>
      <trkpt lat="42.743287" lon="0.530143">
        <ele>2186.8</ele>
        <time>2020-06-02T15:10:20Z</time>
      </trkpt>
      <trkpt lat="42.743311" lon="0.530268">
        <ele>2186.8</ele>
        <time>2020-06-02T15:10:33Z</time>
      </trkpt>
      <trkpt lat="42.743384" lon="0.530348">
        <ele>2187.6</ele>
        <time>2020-06-02T15:10:44Z</time>
      </trkpt>
      <trkpt lat="42.743474" lon="0.530364">
        <ele>2188.5</ele>
        <time>2020-06-02T15:11:00Z</time>
      </trkpt>
      <trkpt lat="42.743562" lon="0.530392">
        <ele>2188.4</ele>
        <time>2020-06-02T15:11:17Z</time>
      </trkpt>
      <trkpt lat="42.743641" lon="0.530443">
        <ele>2189.3</ele>
        <time>2020-06-02T15:11:32Z</time>
      </trkpt>
      <trkpt lat="42.743703" lon="0.530529">
        <ele>2190.2</ele>
        <time>2020-06-02T15:11:45Z</time>
      </trkpt>
      <trkpt lat="42.743744" lon="0.530640">
        <ele>2191.3</ele>
        <time>2020-06-02T15:11:59Z</time>
      </trkpt>
      <trkpt lat="42.743804" lon="0.530732">
        <ele>2193.2</ele>
        <time>2020-06-02T15:12:12Z</time>
      </trkpt>
      <trkpt lat="42.743864" lon="0.530824">
        <ele>2194.1</ele>
        <time>2020-06-02T15:12:24Z</time>
      </trkpt>
      <trkpt lat="42.743925" lon="0.530923">
        <ele>2194.9</ele>
        <time>2020-06-02T15:12:34Z</time>
      </trkpt>
      <trkpt lat="42.743974" lon="0.531023">
        <ele>2194.9</ele>
        <time>2020-06-02T15:12:45Z</time>
      </trkpt>
      <trkpt lat="42.744035" lon="0.531123">
        <ele>2196.7</ele>
        <time>2020-06-02T15:12:56Z</time>
      </trkpt>
      <trkpt lat="42.744112" lon="0.531196">
        <ele>2197.6</ele>
        <time>2020-06-02T15:13:08Z</time>
      </trkpt>
      <trkpt lat="42.744209" lon="0.531224">
        <ele>2197.4</ele>
        <time>2020-06-02T15:13:20Z</time>
      </trkpt>
      <trkpt lat="42.744291" lon="0.531284">
        <ele>2195.1</ele>
        <time>2020-06-02T15:13:29Z</time>
      </trkpt>
      <trkpt lat="42.744382" lon="0.531329">
        <ele>2195.1</ele>
        <time>2020-06-02T15:13:38Z</time>
      </trkpt>
      <trkpt lat="42.744479" lon="0.531361">
        <ele>2194.3</ele>
        <time>2020-06-02T15:13:47Z</time>
      </trkpt>
      <trkpt lat="42.744575" lon="0.531371">
        <ele>2194.3</ele>
        <time>2020-06-02T15:13:56Z</time>
      </trkpt>
      <trkpt lat="42.744672" lon="0.531395">
        <ele>2194.4</ele>
        <time>2020-06-02T15:14:05Z</time>
      </trkpt>
      <trkpt lat="42.744761" lon="0.531445">
        <ele>2194.4</ele>
        <time>2020-06-02T15:14:13Z</time>
      </trkpt>
      <trkpt lat="42.744838" lon="0.531525">
        <ele>2193.6</ele>
        <time>2020-06-02T15:14:22Z</time>
      </trkpt>
      <trkpt lat="42.744907" lon="0.531607">
        <ele>2193.7</ele>
        <time>2020-06-02T15:14:30Z</time>
      </trkpt>
      <trkpt lat="42.744987" lon="0.531670">
        <ele>2193.7</ele>
        <time>2020-06-02T15:14:39Z</time>
      </trkpt>
      <trkpt lat="42.745070" lon="0.531723">
        <ele>2196.1</ele>
        <time>2020-06-02T15:14:48Z</time>
      </trkpt>
      <trkpt lat="42.745157" lon="0.531763">
        <ele>2197.1</ele>
        <time>2020-06-02T15:15:00Z</time>
      </trkpt>
      <trkpt lat="42.745252" lon="0.531783">
        <ele>2197.8</ele>
        <time>2020-06-02T15:15:10Z</time>
      </trkpt>
      <trkpt lat="42.745348" lon="0.531796">
        <ele>2198.7</ele>
        <time>2020-06-02T15:15:21Z</time>
      </trkpt>
      <trkpt lat="42.745442" lon="0.531812">
        <ele>2200.5</ele>
        <time>2020-06-02T15:15:32Z</time>
      </trkpt>
      <trkpt lat="42.745535" lon="0.531824">
        <ele>2201.3</ele>
        <time>2020-06-02T15:15:42Z</time>
      </trkpt>
      <trkpt lat="42.745626" lon="0.531852">
        <ele>2203.0</ele>
        <time>2020-06-02T15:15:54Z</time>
      </trkpt>
      <trkpt lat="42.745721" lon="0.531841">
        <ele>2206.6</ele>
        <time>2020-06-02T15:16:09Z</time>
      </trkpt>
      <trkpt lat="42.745816" lon="0.531858">
        <ele>2208.3</ele>
        <time>2020-06-02T15:16:27Z</time>
      </trkpt>
      <trkpt lat="42.745910" lon="0.531858">
        <ele>2210.8</ele>
        <time>2020-06-02T15:16:42Z</time>
      </trkpt>
      <trkpt lat="42.746001" lon="0.531879">
        <ele>2212.4</ele>
        <time>2020-06-02T15:16:56Z</time>
      </trkpt>
      <trkpt lat="42.746091" lon="0.531896">
        <ele>2215.1</ele>
        <time>2020-06-02T15:17:13Z</time>
      </trkpt>
      <trkpt lat="42.746179" lon="0.531887">
        <ele>2218.6</ele>
        <time>2020-06-02T15:17:30Z</time>
      </trkpt>
      <trkpt lat="42.746265" lon="0.531842">
        <ele>2222.3</ele>
        <time>2020-06-02T15:17:50Z</time>
      </trkpt>
      <trkpt lat="42.746358" lon="0.531796">
        <ele>2225.9</ele>
        <time>2020-06-02T15:18:12Z</time>
      </trkpt>
      <trkpt lat="42.746466" lon="0.531772">
        <ele>2230.1</ele>
        <time>2020-06-02T15:18:35Z</time>
      </trkpt>
      <trkpt lat="42.746558" lon="0.531738">
        <ele>2233.3</ele>
        <time>2020-06-02T15:18:57Z</time>
      </trkpt>
      <trkpt lat="42.746578" lon="0.531640">
        <ele>2237.4</ele>
        <time>2020-06-02T15:19:20Z</time>
      </trkpt>
      <trkpt lat="42.746647" lon="0.531595">
        <ele>2241.0</ele>
        <time>2020-06-02T15:19:43Z</time>
      </trkpt>
      <trkpt lat="42.746708" lon="0.531695">
        <ele>2243.5</ele>
        <time>2020-06-02T15:20:03Z</time>
      </trkpt>
      <trkpt lat="42.746763" lon="0.531795">
        <ele>2245.1</ele>
        <time>2020-06-02T15:20:17Z</time>
      </trkpt>
      <trkpt lat="42.746835" lon="0.531890">
        <ele>2246.7</ele>
        <time>2020-06-02T15:20:31Z</time>
      </trkpt>
      <trkpt lat="42.746867" lon="0.532016">
        <ele>2247.5</ele>
        <time>2020-06-02T15:20:43Z</time>
      </trkpt>
      <trkpt lat="42.746900" lon="0.532142">
        <ele>2249.4</ele>
        <time>2020-06-02T15:20:57Z</time>
      </trkpt>
      <trkpt lat="42.746946" lon="0.532245">
        <ele>2250.2</ele>
        <time>2020-06-02T15:21:11Z</time>
      </trkpt>
      <trkpt lat="42.747008" lon="0.532331">
        <ele>2252.2</ele>
        <time>2020-06-02T15:21:41Z</time>
      </trkpt>
      <trkpt lat="42.747092" lon="0.532371">
        <ele>2255.5</ele>
        <time>2020-06-02T15:21:57Z</time>
      </trkpt>
      <trkpt lat="42.747178" lon="0.532395">
        <ele>2258.1</ele>
        <time>2020-06-02T15:22:13Z</time>
      </trkpt>
      <trkpt lat="42.747252" lon="0.532434">
        <ele>2260.6</ele>
        <time>2020-06-02T15:22:32Z</time>
      </trkpt>
      <trkpt lat="42.747343" lon="0.532439">
        <ele>2263.6</ele>
        <time>2020-06-02T15:22:47Z</time>
      </trkpt>
      <trkpt lat="42.747450" lon="0.532423">
        <ele>2267.4</ele>
        <time>2020-06-02T15:23:03Z</time>
      </trkpt>
      <trkpt lat="42.747542" lon="0.532355">
        <ele>2269.1</ele>
        <time>2020-06-02T15:23:21Z</time>
      </trkpt>
      <trkpt lat="42.747615" lon="0.532287">
        <ele>2271.5</ele>
        <time>2020-06-02T15:23:38Z</time>
      </trkpt>
      <trkpt lat="42.747646" lon="0.532273">
        <ele>2272.2</ele>
        <time>2020-06-02T15:27:01Z</time>
      </trkpt>
      <trkpt lat="42.747703" lon="0.532181">
        <ele>2272.2</ele>
        <time>2020-06-02T15:27:17Z</time>
      </trkpt>
      <trkpt lat="42.747747" lon="0.532071">
        <ele>2268.9</ele>
        <time>2020-06-02T15:27:27Z</time>
      </trkpt>
      <trkpt lat="42.747823" lon="0.531977">
        <ele>2266.4</ele>
        <time>2020-06-02T15:27:35Z</time>
      </trkpt>
      <trkpt lat="42.747926" lon="0.531923">
        <ele>2264.9</ele>
        <time>2020-06-02T15:27:42Z</time>
      </trkpt>
      <trkpt lat="42.748019" lon="0.531868">
        <ele>2264.9</ele>
        <time>2020-06-02T15:27:51Z</time>
      </trkpt>
      <trkpt lat="42.748103" lon="0.531794">
        <ele>2264.0</ele>
        <time>2020-06-02T15:27:59Z</time>
      </trkpt>
      <trkpt lat="42.748177" lon="0.531709">
        <ele>2263.2</ele>
        <time>2020-06-02T15:28:07Z</time>
      </trkpt>
      <trkpt lat="42.748252" lon="0.531621">
        <ele>2263.3</ele>
        <time>2020-06-02T15:28:15Z</time>
      </trkpt>
      <trkpt lat="42.748306" lon="0.531506">
        <ele>2263.3</ele>
        <time>2020-06-02T15:28:23Z</time>
      </trkpt>
      <trkpt lat="42.748346" lon="0.531386">
        <ele>2263.3</ele>
        <time>2020-06-02T15:28:31Z</time>
      </trkpt>
      <trkpt lat="42.748426" lon="0.531352">
        <ele>2263.2</ele>
        <time>2020-06-02T15:28:40Z</time>
      </trkpt>
      <trkpt lat="42.748532" lon="0.531297">
        <ele>2260.0</ele>
        <time>2020-06-02T15:28:48Z</time>
      </trkpt>
      <trkpt lat="42.748627" lon="0.531241">
        <ele>2258.5</ele>
        <time>2020-06-02T15:28:56Z</time>
      </trkpt>
      <trkpt lat="42.748722" lon="0.531185">
        <ele>2256.6</ele>
        <time>2020-06-02T15:29:04Z</time>
      </trkpt>
      <trkpt lat="42.748813" lon="0.531117">
        <ele>2255.9</ele>
        <time>2020-06-02T15:29:12Z</time>
      </trkpt>
      <trkpt lat="42.748895" lon="0.531058">
        <ele>2253.9</ele>
        <time>2020-06-02T15:29:20Z</time>
      </trkpt>
      <trkpt lat="42.748977" lon="0.530981">
        <ele>2253.1</ele>
        <time>2020-06-02T15:29:28Z</time>
      </trkpt>
      <trkpt lat="42.749059" lon="0.530923">
        <ele>2252.4</ele>
        <time>2020-06-02T15:29:35Z</time>
      </trkpt>
      <trkpt lat="42.749144" lon="0.530862">
        <ele>2251.5</ele>
        <time>2020-06-02T15:29:42Z</time>
      </trkpt>
      <trkpt lat="42.749240" lon="0.530812">
        <ele>2249.8</ele>
        <time>2020-06-02T15:29:49Z</time>
      </trkpt>
      <trkpt lat="42.749337" lon="0.530781">
        <ele>2249.1</ele>
        <time>2020-06-02T15:29:56Z</time>
      </trkpt>
      <trkpt lat="42.749430" lon="0.530789">
        <ele>2246.4</ele>
        <time>2020-06-02T15:30:04Z</time>
      </trkpt>
      <trkpt lat="42.749525" lon="0.530771">
        <ele>2246.4</ele>
        <time>2020-06-02T15:30:13Z</time>
      </trkpt>
      <trkpt lat="42.749618" lon="0.530728">
        <ele>2246.5</ele>
        <time>2020-06-02T15:30:22Z</time>
      </trkpt>
      <trkpt lat="42.749703" lon="0.530687">
        <ele>2246.4</ele>
        <time>2020-06-02T15:30:35Z</time>
      </trkpt>
      <trkpt lat="42.749786" lon="0.530637">
        <ele>2243.7</ele>
        <time>2020-06-02T15:30:43Z</time>
      </trkpt>
      <trkpt lat="42.749881" lon="0.530583">
        <ele>2242.8</ele>
        <time>2020-06-02T15:30:51Z</time>
      </trkpt>
      <trkpt lat="42.749962" lon="0.530533">
        <ele>2242.9</ele>
        <time>2020-06-02T15:30:58Z</time>
      </trkpt>
      <trkpt lat="42.750047" lon="0.530500">
        <ele>2241.9</ele>
        <time>2020-06-02T15:31:05Z</time>
      </trkpt>
      <trkpt lat="42.750138" lon="0.530460">
        <ele>2241.1</ele>
        <time>2020-06-02T15:31:12Z</time>
      </trkpt>
      <trkpt lat="42.750226" lon="0.530427">
        <ele>2240.2</ele>
        <time>2020-06-02T15:31:19Z</time>
      </trkpt>
      <trkpt lat="42.750306" lon="0.530359">
        <ele>2238.6</ele>
        <time>2020-06-02T15:31:26Z</time>
      </trkpt>
      <trkpt lat="42.750401" lon="0.530342">
        <ele>2236.5</ele>
        <time>2020-06-02T15:31:33Z</time>
      </trkpt>
      <trkpt lat="42.750475" lon="0.530417">
        <ele>2234.6</ele>
        <time>2020-06-02T15:31:40Z</time>
      </trkpt>
      <trkpt lat="42.750535" lon="0.530519">
        <ele>2232.1</ele>
        <time>2020-06-02T15:31:48Z</time>
      </trkpt>
      <trkpt lat="42.750588" lon="0.530620">
        <ele>2231.2</ele>
        <time>2020-06-02T15:31:56Z</time>
      </trkpt>
      <trkpt lat="42.750526" lon="0.530708">
        <ele>2228.8</ele>
        <time>2020-06-02T15:32:05Z</time>
      </trkpt>
      <trkpt lat="42.750451" lon="0.530769">
        <ele>2227.2</ele>
        <time>2020-06-02T15:32:14Z</time>
      </trkpt>
      <trkpt lat="42.750383" lon="0.530858">
        <ele>2225.2</ele>
        <time>2020-06-02T15:32:48Z</time>
      </trkpt>
      <trkpt lat="42.750339" lon="0.530967">
        <ele>2224.3</ele>
        <time>2020-06-02T15:32:58Z</time>
      </trkpt>
      <trkpt lat="42.750382" lon="0.531069">
        <ele>2222.6</ele>
        <time>2020-06-02T15:33:09Z</time>
      </trkpt>
      <trkpt lat="42.750390" lon="0.531119">
        <ele>2222.7</ele>
        <time>2020-06-02T15:33:21Z</time>
      </trkpt>
      <trkpt lat="42.750343" lon="0.531237">
        <ele>2222.6</ele>
        <time>2020-06-02T15:33:27Z</time>
      </trkpt>
      <trkpt lat="42.750273" lon="0.531301">
        <ele>2220.7</ele>
        <time>2020-06-02T15:33:32Z</time>
      </trkpt>
      <trkpt lat="42.750221" lon="0.531357">
        <ele>2217.8</ele>
        <time>2020-06-02T15:33:40Z</time>
      </trkpt>
      <trkpt lat="42.750156" lon="0.531426">
        <ele>2215.7</ele>
        <time>2020-06-02T15:33:49Z</time>
      </trkpt>
      <trkpt lat="42.750151" lon="0.531545">
        <ele>2213.6</ele>
        <time>2020-06-02T15:33:57Z</time>
      </trkpt>
      <trkpt lat="42.750138" lon="0.531664">
        <ele>2211.0</ele>
        <time>2020-06-02T15:34:05Z</time>
      </trkpt>
      <trkpt lat="42.750163" lon="0.531785">
        <ele>2208.1</ele>
        <time>2020-06-02T15:34:13Z</time>
      </trkpt>
      <trkpt lat="42.750193" lon="0.531913">
        <ele>2205.4</ele>
        <time>2020-06-02T15:34:21Z</time>
      </trkpt>
      <trkpt lat="42.750240" lon="0.532024">
        <ele>2203.7</ele>
        <time>2020-06-02T15:34:28Z</time>
      </trkpt>
      <trkpt lat="42.750279" lon="0.532144">
        <ele>2201.0</ele>
        <time>2020-06-02T15:34:35Z</time>
      </trkpt>
      <trkpt lat="42.750336" lon="0.532257">
        <ele>2199.4</ele>
        <time>2020-06-02T15:34:42Z</time>
      </trkpt>
      <trkpt lat="42.750377" lon="0.532372">
        <ele>2198.6</ele>
        <time>2020-06-02T15:34:49Z</time>
      </trkpt>
      <trkpt lat="42.750425" lon="0.532474">
        <ele>2197.8</ele>
        <time>2020-06-02T15:34:56Z</time>
      </trkpt>
      <trkpt lat="42.750478" lon="0.532570">
        <ele>2195.9</ele>
        <time>2020-06-02T15:35:04Z</time>
      </trkpt>
      <trkpt lat="42.750542" lon="0.532624">
        <ele>2194.1</ele>
        <time>2020-06-02T15:37:16Z</time>
      </trkpt>
      <trkpt lat="42.750621" lon="0.532701">
        <ele>2192.4</ele>
        <time>2020-06-02T15:37:24Z</time>
      </trkpt>
      <trkpt lat="42.750702" lon="0.532766">
        <ele>2190.8</ele>
        <time>2020-06-02T15:37:31Z</time>
      </trkpt>
      <trkpt lat="42.750768" lon="0.532869">
        <ele>2190.0</ele>
        <time>2020-06-02T15:37:38Z</time>
      </trkpt>
      <trkpt lat="42.750836" lon="0.532967">
        <ele>2188.1</ele>
        <time>2020-06-02T15:37:45Z</time>
      </trkpt>
      <trkpt lat="42.750905" lon="0.533062">
        <ele>2187.3</ele>
        <time>2020-06-02T15:37:52Z</time>
      </trkpt>
      <trkpt lat="42.750971" lon="0.533157">
        <ele>2187.4</ele>
        <time>2020-06-02T15:37:59Z</time>
      </trkpt>
      <trkpt lat="42.751032" lon="0.533251">
        <ele>2186.6</ele>
        <time>2020-06-02T15:38:06Z</time>
      </trkpt>
      <trkpt lat="42.751079" lon="0.533358">
        <ele>2185.6</ele>
        <time>2020-06-02T15:38:13Z</time>
      </trkpt>
      <trkpt lat="42.751139" lon="0.533460">
        <ele>2184.0</ele>
        <time>2020-06-02T15:38:20Z</time>
      </trkpt>
      <trkpt lat="42.751215" lon="0.533540">
        <ele>2183.2</ele>
        <time>2020-06-02T15:38:27Z</time>
      </trkpt>
      <trkpt lat="42.751272" lon="0.533645">
        <ele>2182.2</ele>
        <time>2020-06-02T15:38:34Z</time>
      </trkpt>
      <trkpt lat="42.751315" lon="0.533747">
        <ele>2180.4</ele>
        <time>2020-06-02T15:38:41Z</time>
      </trkpt>
      <trkpt lat="42.751347" lon="0.533870">
        <ele>2178.7</ele>
        <time>2020-06-02T15:38:49Z</time>
      </trkpt>
      <trkpt lat="42.751338" lon="0.534004">
        <ele>2176.9</ele>
        <time>2020-06-02T15:38:57Z</time>
      </trkpt>
      <trkpt lat="42.751376" lon="0.534116">
        <ele>2174.1</ele>
        <time>2020-06-02T15:39:04Z</time>
      </trkpt>
      <trkpt lat="42.751377" lon="0.534252">
        <ele>2171.2</ele>
        <time>2020-06-02T15:39:12Z</time>
      </trkpt>
      <trkpt lat="42.751372" lon="0.534365">
        <ele>2169.5</ele>
        <time>2020-06-02T15:39:20Z</time>
      </trkpt>
      <trkpt lat="42.751372" lon="0.534489">
        <ele>2166.8</ele>
        <time>2020-06-02T15:39:28Z</time>
      </trkpt>
      <trkpt lat="42.751353" lon="0.534623">
        <ele>2164.2</ele>
        <time>2020-06-02T15:39:36Z</time>
      </trkpt>
      <trkpt lat="42.751275" lon="0.534703">
        <ele>2162.5</ele>
        <time>2020-06-02T15:39:43Z</time>
      </trkpt>
      <trkpt lat="42.751177" lon="0.534710">
        <ele>2161.7</ele>
        <time>2020-06-02T15:39:50Z</time>
      </trkpt>
      <trkpt lat="42.751078" lon="0.534691">
        <ele>2160.8</ele>
        <time>2020-06-02T15:39:57Z</time>
      </trkpt>
      <trkpt lat="42.751002" lon="0.534605">
        <ele>2159.1</ele>
        <time>2020-06-02T15:40:04Z</time>
      </trkpt>
      <trkpt lat="42.750935" lon="0.534511">
        <ele>2158.3</ele>
        <time>2020-06-02T15:40:11Z</time>
      </trkpt>
      <trkpt lat="42.750865" lon="0.534413">
        <ele>2157.4</ele>
        <time>2020-06-02T15:40:18Z</time>
      </trkpt>
      <trkpt lat="42.750799" lon="0.534318">
        <ele>2156.4</ele>
        <time>2020-06-02T15:40:25Z</time>
      </trkpt>
      <trkpt lat="42.750741" lon="0.534227">
        <ele>2154.7</ele>
        <time>2020-06-02T15:40:32Z</time>
      </trkpt>
      <trkpt lat="42.750681" lon="0.534131">
        <ele>2153.9</ele>
        <time>2020-06-02T15:40:40Z</time>
      </trkpt>
      <trkpt lat="42.750682" lon="0.534235">
        <ele>2152.3</ele>
        <time>2020-06-02T15:40:48Z</time>
      </trkpt>
      <trkpt lat="42.750693" lon="0.534356">
        <ele>2150.5</ele>
        <time>2020-06-02T15:40:55Z</time>
      </trkpt>
      <trkpt lat="42.750705" lon="0.534479">
        <ele>2148.9</ele>
        <time>2020-06-02T15:41:02Z</time>
      </trkpt>
      <trkpt lat="42.750702" lon="0.534605">
        <ele>2146.2</ele>
        <time>2020-06-02T15:41:09Z</time>
      </trkpt>
      <trkpt lat="42.750664" lon="0.534721">
        <ele>2144.3</ele>
        <time>2020-06-02T15:41:16Z</time>
      </trkpt>
      <trkpt lat="42.750627" lon="0.534840">
        <ele>2142.4</ele>
        <time>2020-06-02T15:41:23Z</time>
      </trkpt>
      <trkpt lat="42.750594" lon="0.534965">
        <ele>2141.5</ele>
        <time>2020-06-02T15:41:30Z</time>
      </trkpt>
      <trkpt lat="42.750570" lon="0.535093">
        <ele>2139.9</ele>
        <time>2020-06-02T15:41:37Z</time>
      </trkpt>
      <trkpt lat="42.750577" lon="0.535230">
        <ele>2139.0</ele>
        <time>2020-06-02T15:41:44Z</time>
      </trkpt>
      <trkpt lat="42.750602" lon="0.535356">
        <ele>2137.1</ele>
        <time>2020-06-02T15:41:51Z</time>
      </trkpt>
      <trkpt lat="42.750637" lon="0.535481">
        <ele>2135.4</ele>
        <time>2020-06-02T15:41:58Z</time>
      </trkpt>
      <trkpt lat="42.750675" lon="0.535609">
        <ele>2132.1</ele>
        <time>2020-06-02T15:42:06Z</time>
      </trkpt>
      <trkpt lat="42.750716" lon="0.535733">
        <ele>2130.3</ele>
        <time>2020-06-02T15:42:14Z</time>
      </trkpt>
      <trkpt lat="42.750766" lon="0.535837">
        <ele>2128.4</ele>
        <time>2020-06-02T15:42:22Z</time>
      </trkpt>
      <trkpt lat="42.750809" lon="0.535944">
        <ele>2126.6</ele>
        <time>2020-06-02T15:42:30Z</time>
      </trkpt>
      <trkpt lat="42.750888" lon="0.536021">
        <ele>2123.8</ele>
        <time>2020-06-02T15:42:39Z</time>
      </trkpt>
      <trkpt lat="42.750963" lon="0.536098">
        <ele>2121.2</ele>
        <time>2020-06-02T15:42:48Z</time>
      </trkpt>
      <trkpt lat="42.751041" lon="0.536179">
        <ele>2119.1</ele>
        <time>2020-06-02T15:42:57Z</time>
      </trkpt>
      <trkpt lat="42.751113" lon="0.536267">
        <ele>2115.4</ele>
        <time>2020-06-02T15:43:05Z</time>
      </trkpt>
      <trkpt lat="42.751192" lon="0.536326">
        <ele>2113.4</ele>
        <time>2020-06-02T15:43:13Z</time>
      </trkpt>
      <trkpt lat="42.751247" lon="0.536425">
        <ele>2111.0</ele>
        <time>2020-06-02T15:43:21Z</time>
      </trkpt>
      <trkpt lat="42.751297" lon="0.536529">
        <ele>2109.1</ele>
        <time>2020-06-02T15:43:29Z</time>
      </trkpt>
      <trkpt lat="42.751356" lon="0.536627">
        <ele>2107.4</ele>
        <time>2020-06-02T15:43:37Z</time>
      </trkpt>
      <trkpt lat="42.751399" lon="0.536740">
        <ele>2104.9</ele>
        <time>2020-06-02T15:43:45Z</time>
      </trkpt>
      <trkpt lat="42.751447" lon="0.536859">
        <ele>2102.3</ele>
        <time>2020-06-02T15:43:54Z</time>
      </trkpt>
      <trkpt lat="42.751491" lon="0.536967">
        <ele>2100.6</ele>
        <time>2020-06-02T15:44:06Z</time>
      </trkpt>
      <trkpt lat="42.751519" lon="0.537094">
        <ele>2098.8</ele>
        <time>2020-06-02T15:44:16Z</time>
      </trkpt>
      <trkpt lat="42.751540" lon="0.537219">
        <ele>2097.9</ele>
        <time>2020-06-02T15:44:25Z</time>
      </trkpt>
      <trkpt lat="42.751561" lon="0.537356">
        <ele>2096.1</ele>
        <time>2020-06-02T15:44:34Z</time>
      </trkpt>
      <trkpt lat="42.751554" lon="0.537478">
        <ele>2094.3</ele>
        <time>2020-06-02T15:44:42Z</time>
      </trkpt>
      <trkpt lat="42.751523" lon="0.537604">
        <ele>2091.7</ele>
        <time>2020-06-02T15:44:50Z</time>
      </trkpt>
      <trkpt lat="42.751491" lon="0.537722">
        <ele>2089.9</ele>
        <time>2020-06-02T15:44:58Z</time>
      </trkpt>
      <trkpt lat="42.751495" lon="0.537863">
        <ele>2087.9</ele>
        <time>2020-06-02T15:45:06Z</time>
      </trkpt>
      <trkpt lat="42.751498" lon="0.537982">
        <ele>2087.1</ele>
        <time>2020-06-02T15:45:13Z</time>
      </trkpt>
      <trkpt lat="42.751496" lon="0.538112">
        <ele>2084.6</ele>
        <time>2020-06-02T15:45:20Z</time>
      </trkpt>
      <trkpt lat="42.751484" lon="0.538231">
        <ele>2082.9</ele>
        <time>2020-06-02T15:45:27Z</time>
      </trkpt>
      <trkpt lat="42.751486" lon="0.538362">
        <ele>2080.9</ele>
        <time>2020-06-02T15:45:35Z</time>
      </trkpt>
      <trkpt lat="42.751393" lon="0.538336">
        <ele>2078.2</ele>
        <time>2020-06-02T15:45:43Z</time>
      </trkpt>
      <trkpt lat="42.751323" lon="0.538374">
        <ele>2076.6</ele>
        <time>2020-06-02T15:45:51Z</time>
      </trkpt>
      <trkpt lat="42.751365" lon="0.538481">
        <ele>2075.5</ele>
        <time>2020-06-02T15:45:58Z</time>
      </trkpt>
      <trkpt lat="42.751346" lon="0.538583">
        <ele>2072.6</ele>
        <time>2020-06-02T15:46:06Z</time>
      </trkpt>
      <trkpt lat="42.751365" lon="0.538673">
        <ele>2067.7</ele>
        <time>2020-06-02T15:46:16Z</time>
      </trkpt>
      <trkpt lat="42.751419" lon="0.538739">
        <ele>2063.6</ele>
        <time>2020-06-02T15:46:25Z</time>
      </trkpt>
      <trkpt lat="42.751425" lon="0.538819">
        <ele>2059.8</ele>
        <time>2020-06-02T15:46:35Z</time>
      </trkpt>
      <trkpt lat="42.751491" lon="0.538877">
        <ele>2057.7</ele>
        <time>2020-06-02T15:46:47Z</time>
      </trkpt>
      <trkpt lat="42.751436" lon="0.538935">
        <ele>2054.8</ele>
        <time>2020-06-02T15:46:56Z</time>
      </trkpt>
      <trkpt lat="42.751514" lon="0.538997">
        <ele>2051.0</ele>
        <time>2020-06-02T15:47:04Z</time>
      </trkpt>
      <trkpt lat="42.751595" lon="0.539074">
        <ele>2049.2</ele>
        <time>2020-06-02T15:47:12Z</time>
      </trkpt>
      <trkpt lat="42.751673" lon="0.539162">
        <ele>2048.5</ele>
        <time>2020-06-02T15:47:20Z</time>
      </trkpt>
      <trkpt lat="42.751746" lon="0.539240">
        <ele>2047.1</ele>
        <time>2020-06-02T15:47:27Z</time>
      </trkpt>
      <trkpt lat="42.751794" lon="0.539347">
        <ele>2045.3</ele>
        <time>2020-06-02T15:47:34Z</time>
      </trkpt>
      <trkpt lat="42.751852" lon="0.539439">
        <ele>2044.6</ele>
        <time>2020-06-02T15:47:41Z</time>
      </trkpt>
      <trkpt lat="42.751880" lon="0.539556">
        <ele>2043.6</ele>
        <time>2020-06-02T15:47:48Z</time>
      </trkpt>
      <trkpt lat="42.751912" lon="0.539675">
        <ele>2040.7</ele>
        <time>2020-06-02T15:47:56Z</time>
      </trkpt>
      <trkpt lat="42.751946" lon="0.539803">
        <ele>2038.1</ele>
        <time>2020-06-02T15:48:04Z</time>
      </trkpt>
      <trkpt lat="42.751982" lon="0.539925">
        <ele>2036.3</ele>
        <time>2020-06-02T15:48:11Z</time>
      </trkpt>
      <trkpt lat="42.752012" lon="0.540041">
        <ele>2035.6</ele>
        <time>2020-06-02T15:48:19Z</time>
      </trkpt>
      <trkpt lat="42.752027" lon="0.540158">
        <ele>2033.7</ele>
        <time>2020-06-02T15:48:30Z</time>
      </trkpt>
      <trkpt lat="42.752056" lon="0.540271">
        <ele>2032.0</ele>
        <time>2020-06-02T15:48:40Z</time>
      </trkpt>
      <trkpt lat="42.752100" lon="0.540383">
        <ele>2029.8</ele>
        <time>2020-06-02T15:48:49Z</time>
      </trkpt>
      <trkpt lat="42.752139" lon="0.540494">
        <ele>2028.0</ele>
        <time>2020-06-02T15:48:57Z</time>
      </trkpt>
      <trkpt lat="42.752059" lon="0.540456">
        <ele>2026.4</ele>
        <time>2020-06-02T15:49:06Z</time>
      </trkpt>
      <trkpt lat="42.751978" lon="0.540454">
        <ele>2023.9</ele>
        <time>2020-06-02T15:49:16Z</time>
      </trkpt>
      <trkpt lat="42.751890" lon="0.540517">
        <ele>2018.8</ele>
        <time>2020-06-02T15:49:28Z</time>
      </trkpt>
      <trkpt lat="42.751806" lon="0.540571">
        <ele>2013.4</ele>
        <time>2020-06-02T15:49:39Z</time>
      </trkpt>
      <trkpt lat="42.751715" lon="0.540594">
        <ele>2008.7</ele>
        <time>2020-06-02T15:49:52Z</time>
      </trkpt>
      <trkpt lat="42.751721" lon="0.540720">
        <ele>2005.8</ele>
        <time>2020-06-02T15:50:02Z</time>
      </trkpt>
      <trkpt lat="42.751742" lon="0.540842">
        <ele>2005.3</ele>
        <time>2020-06-02T15:50:11Z</time>
      </trkpt>
      <trkpt lat="42.751748" lon="0.540968">
        <ele>2002.6</ele>
        <time>2020-06-02T15:50:21Z</time>
      </trkpt>
      <trkpt lat="42.751768" lon="0.541087">
        <ele>2000.9</ele>
        <time>2020-06-02T15:50:31Z</time>
      </trkpt>
      <trkpt lat="42.751791" lon="0.541204">
        <ele>2000.0</ele>
        <time>2020-06-02T15:50:41Z</time>
      </trkpt>
      <trkpt lat="42.751763" lon="0.541231">
        <ele>1998.9</ele>
        <time>2020-06-02T15:50:53Z</time>
      </trkpt>
      <trkpt lat="42.751703" lon="0.541132">
        <ele>1998.0</ele>
        <time>2020-06-02T15:51:03Z</time>
      </trkpt>
      <trkpt lat="42.751650" lon="0.541022">
        <ele>1997.1</ele>
        <time>2020-06-02T15:51:12Z</time>
      </trkpt>
      <trkpt lat="42.751583" lon="0.540933">
        <ele>1994.5</ele>
        <time>2020-06-02T15:51:20Z</time>
      </trkpt>
      <trkpt lat="42.751489" lon="0.540894">
        <ele>1994.5</ele>
        <time>2020-06-02T15:51:28Z</time>
      </trkpt>
      <trkpt lat="42.751411" lon="0.540826">
        <ele>1993.7</ele>
        <time>2020-06-02T15:51:37Z</time>
      </trkpt>
      <trkpt lat="42.751334" lon="0.540752">
        <ele>1991.1</ele>
        <time>2020-06-02T15:51:47Z</time>
      </trkpt>
      <trkpt lat="42.751233" lon="0.540740">
        <ele>1987.2</ele>
        <time>2020-06-02T15:51:59Z</time>
      </trkpt>
      <trkpt lat="42.751155" lon="0.540762">
        <ele>1987.2</ele>
        <time>2020-06-02T15:52:11Z</time>
      </trkpt>
      <trkpt lat="42.751102" lon="0.540879">
        <ele>1987.4</ele>
        <time>2020-06-02T15:52:25Z</time>
      </trkpt>
      <trkpt lat="42.751060" lon="0.541002">
        <ele>1987.4</ele>
        <time>2020-06-02T15:52:47Z</time>
      </trkpt>
      <trkpt lat="42.751037" lon="0.541093">
        <ele>1990.3</ele>
        <time>2020-06-02T15:53:41Z</time>
      </trkpt>
      <trkpt lat="42.750994" lon="0.541203">
        <ele>1991.2</ele>
        <time>2020-06-02T15:53:52Z</time>
      </trkpt>
      <trkpt lat="42.750951" lon="0.541323">
        <ele>1991.9</ele>
        <time>2020-06-02T15:54:02Z</time>
      </trkpt>
      <trkpt lat="42.750895" lon="0.541361">
        <ele>1991.8</ele>
        <time>2020-06-02T15:54:58Z</time>
      </trkpt>
      <trkpt lat="42.750865" lon="0.541483">
        <ele>1991.7</ele>
        <time>2020-06-02T15:55:07Z</time>
      </trkpt>
      <trkpt lat="42.750857" lon="0.541607">
        <ele>1991.7</ele>
        <time>2020-06-02T15:55:15Z</time>
      </trkpt>
      <trkpt lat="42.750835" lon="0.541731">
        <ele>1989.3</ele>
        <time>2020-06-02T15:55:23Z</time>
      </trkpt>
      <trkpt lat="42.750821" lon="0.541866">
        <ele>1988.4</ele>
        <time>2020-06-02T15:55:31Z</time>
      </trkpt>
      <trkpt lat="42.750812" lon="0.542002">
        <ele>1987.4</ele>
        <time>2020-06-02T15:55:39Z</time>
      </trkpt>
      <trkpt lat="42.750805" lon="0.542130">
        <ele>1985.7</ele>
        <time>2020-06-02T15:55:47Z</time>
      </trkpt>
      <trkpt lat="42.750804" lon="0.542269">
        <ele>1982.4</ele>
        <time>2020-06-02T15:55:56Z</time>
      </trkpt>
      <trkpt lat="42.750814" lon="0.542392">
        <ele>1979.6</ele>
        <time>2020-06-02T15:56:04Z</time>
      </trkpt>
      <trkpt lat="42.750847" lon="0.542419">
        <ele>1977.8</ele>
        <time>2020-06-02T15:56:13Z</time>
      </trkpt>
      <trkpt lat="42.750885" lon="0.542298">
        <ele>1977.1</ele>
        <time>2020-06-02T15:56:21Z</time>
      </trkpt>
      <trkpt lat="42.750920" lon="0.542382">
        <ele>1974.5</ele>
        <time>2020-06-02T15:56:30Z</time>
      </trkpt>
      <trkpt lat="42.750967" lon="0.542502">
        <ele>1973.7</ele>
        <time>2020-06-02T15:56:38Z</time>
      </trkpt>
      <trkpt lat="42.750992" lon="0.542629">
        <ele>1971.8</ele>
        <time>2020-06-02T15:56:46Z</time>
      </trkpt>
      <trkpt lat="42.751004" lon="0.542752">
        <ele>1968.9</ele>
        <time>2020-06-02T15:56:54Z</time>
      </trkpt>
      <trkpt lat="42.751018" lon="0.542884">
        <ele>1966.1</ele>
        <time>2020-06-02T15:57:03Z</time>
      </trkpt>
      <trkpt lat="42.751036" lon="0.543031">
        <ele>1964.1</ele>
        <time>2020-06-02T15:57:12Z</time>
      </trkpt>
      <trkpt lat="42.751020" lon="0.543151">
        <ele>1961.1</ele>
        <time>2020-06-02T15:57:20Z</time>
      </trkpt>
      <trkpt lat="42.751006" lon="0.543267">
        <ele>1958.5</ele>
        <time>2020-06-02T15:58:04Z</time>
      </trkpt>
      <trkpt lat="42.750963" lon="0.543365">
        <ele>1956.8</ele>
        <time>2020-06-02T15:58:16Z</time>
      </trkpt>
      <trkpt lat="42.750874" lon="0.543314">
        <ele>1954.9</ele>
        <time>2020-06-02T15:58:27Z</time>
      </trkpt>
      <trkpt lat="42.750788" lon="0.543255">
        <ele>1954.1</ele>
        <time>2020-06-02T15:58:37Z</time>
      </trkpt>
      <trkpt lat="42.750696" lon="0.543199">
        <ele>1952.6</ele>
        <time>2020-06-02T15:58:46Z</time>
      </trkpt>
      <trkpt lat="42.750635" lon="0.543212">
        <ele>1950.5</ele>
        <time>2020-06-02T15:58:55Z</time>
      </trkpt>
      <trkpt lat="42.750703" lon="0.543294">
        <ele>1948.8</ele>
        <time>2020-06-02T15:59:04Z</time>
      </trkpt>
      <trkpt lat="42.750776" lon="0.543393">
        <ele>1947.0</ele>
        <time>2020-06-02T15:59:18Z</time>
      </trkpt>
      <trkpt lat="42.750681" lon="0.543412">
        <ele>1946.1</ele>
        <time>2020-06-02T15:59:29Z</time>
      </trkpt>
      <trkpt lat="42.750585" lon="0.543433">
        <ele>1943.2</ele>
        <time>2020-06-02T15:59:38Z</time>
      </trkpt>
      <trkpt lat="42.750675" lon="0.543515">
        <ele>1941.2</ele>
        <time>2020-06-02T15:59:47Z</time>
      </trkpt>
      <trkpt lat="42.750748" lon="0.543605">
        <ele>1938.6</ele>
        <time>2020-06-02T15:59:55Z</time>
      </trkpt>
      <trkpt lat="42.750833" lon="0.543680">
        <ele>1935.8</ele>
        <time>2020-06-02T16:00:03Z</time>
      </trkpt>
      <trkpt lat="42.750788" lon="0.543766">
        <ele>1933.0</ele>
        <time>2020-06-02T16:00:13Z</time>
      </trkpt>
      <trkpt lat="42.750865" lon="0.543813">
        <ele>1931.3</ele>
        <time>2020-06-02T16:00:22Z</time>
      </trkpt>
      <trkpt lat="42.750954" lon="0.543842">
        <ele>1928.6</ele>
        <time>2020-06-02T16:00:31Z</time>
      </trkpt>
      <trkpt lat="42.750875" lon="0.543931">
        <ele>1926.0</ele>
        <time>2020-06-02T16:00:41Z</time>
      </trkpt>
      <trkpt lat="42.750845" lon="0.544026">
        <ele>1924.0</ele>
        <time>2020-06-02T16:00:50Z</time>
      </trkpt>
      <trkpt lat="42.750949" lon="0.544032">
        <ele>1922.3</ele>
        <time>2020-06-02T16:00:59Z</time>
      </trkpt>
      <trkpt lat="42.751043" lon="0.544044">
        <ele>1920.4</ele>
        <time>2020-06-02T16:01:07Z</time>
      </trkpt>
      <trkpt lat="42.751136" lon="0.544086">
        <ele>1917.6</ele>
        <time>2020-06-02T16:01:16Z</time>
      </trkpt>
      <trkpt lat="42.751228" lon="0.544136">
        <ele>1914.8</ele>
        <time>2020-06-02T16:01:25Z</time>
      </trkpt>
      <trkpt lat="42.751302" lon="0.544226">
        <ele>1913.1</ele>
        <time>2020-06-02T16:01:33Z</time>
      </trkpt>
      <trkpt lat="42.751239" lon="0.544259">
        <ele>1910.4</ele>
        <time>2020-06-02T16:01:42Z</time>
      </trkpt>
      <trkpt lat="42.751188" lon="0.544311">
        <ele>1907.8</ele>
        <time>2020-06-02T16:01:51Z</time>
      </trkpt>
      <trkpt lat="42.751252" lon="0.544421">
        <ele>1904.6</ele>
        <time>2020-06-02T16:02:00Z</time>
      </trkpt>
      <trkpt lat="42.751283" lon="0.544539">
        <ele>1902.7</ele>
        <time>2020-06-02T16:02:09Z</time>
      </trkpt>
      <trkpt lat="42.751301" lon="0.544678">
        <ele>1901.0</ele>
        <time>2020-06-02T16:02:17Z</time>
      </trkpt>
      <trkpt lat="42.751327" lon="0.544806">
        <ele>1899.1</ele>
        <time>2020-06-02T16:02:25Z</time>
      </trkpt>
      <trkpt lat="42.751351" lon="0.544932">
        <ele>1896.3</ele>
        <time>2020-06-02T16:02:33Z</time>
      </trkpt>
      <trkpt lat="42.751375" lon="0.545051">
        <ele>1894.4</ele>
        <time>2020-06-02T16:02:41Z</time>
      </trkpt>
      <trkpt lat="42.751401" lon="0.545176">
        <ele>1891.7</ele>
        <time>2020-06-02T16:02:50Z</time>
      </trkpt>
      <trkpt lat="42.751430" lon="0.545292">
        <ele>1889.0</ele>
        <time>2020-06-02T16:02:59Z</time>
      </trkpt>
      <trkpt lat="42.751467" lon="0.545410">
        <ele>1886.5</ele>
        <time>2020-06-02T16:03:08Z</time>
      </trkpt>
      <trkpt lat="42.751508" lon="0.545528">
        <ele>1883.6</ele>
        <time>2020-06-02T16:03:17Z</time>
      </trkpt>
      <trkpt lat="42.751549" lon="0.545654">
        <ele>1881.8</ele>
        <time>2020-06-02T16:03:26Z</time>
      </trkpt>
      <trkpt lat="42.751587" lon="0.545771">
        <ele>1879.4</ele>
        <time>2020-06-02T16:03:35Z</time>
      </trkpt>
      <trkpt lat="42.751617" lon="0.545890">
        <ele>1877.7</ele>
        <time>2020-06-02T16:03:49Z</time>
      </trkpt>
      <trkpt lat="42.751598" lon="0.545953">
        <ele>1875.2</ele>
        <time>2020-06-02T16:04:00Z</time>
      </trkpt>
      <trkpt lat="42.751588" lon="0.546073">
        <ele>1871.8</ele>
        <time>2020-06-02T16:04:11Z</time>
      </trkpt>
      <trkpt lat="42.751534" lon="0.546165">
        <ele>1868.1</ele>
        <time>2020-06-02T16:04:23Z</time>
      </trkpt>
      <trkpt lat="42.751470" lon="0.546241">
        <ele>1863.5</ele>
        <time>2020-06-02T16:04:35Z</time>
      </trkpt>
      <trkpt lat="42.751427" lon="0.546336">
        <ele>1859.1</ele>
        <time>2020-06-02T16:04:47Z</time>
      </trkpt>
      <trkpt lat="42.751451" lon="0.546430">
        <ele>1854.7</ele>
        <time>2020-06-02T16:04:59Z</time>
      </trkpt>
      <trkpt lat="42.751408" lon="0.546516">
        <ele>1854.0</ele>
        <time>2020-06-02T16:05:11Z</time>
      </trkpt>
      <trkpt lat="42.751497" lon="0.546565">
        <ele>1850.7</ele>
        <time>2020-06-02T16:05:22Z</time>
      </trkpt>
      <trkpt lat="42.751557" lon="0.546642">
        <ele>1849.6</ele>
        <time>2020-06-02T16:05:31Z</time>
      </trkpt>
      <trkpt lat="42.751612" lon="0.546753">
        <ele>1847.7</ele>
        <time>2020-06-02T16:05:39Z</time>
      </trkpt>
      <trkpt lat="42.751682" lon="0.546844">
        <ele>1846.1</ele>
        <time>2020-06-02T16:05:47Z</time>
      </trkpt>
      <trkpt lat="42.751756" lon="0.546921">
        <ele>1845.1</ele>
        <time>2020-06-02T16:05:55Z</time>
      </trkpt>
      <trkpt lat="42.751823" lon="0.547002">
        <ele>1842.3</ele>
        <time>2020-06-02T16:06:04Z</time>
      </trkpt>
      <trkpt lat="42.751744" lon="0.547039">
        <ele>1840.6</ele>
        <time>2020-06-02T16:06:14Z</time>
      </trkpt>
      <trkpt lat="42.751663" lon="0.547115">
        <ele>1837.9</ele>
        <time>2020-06-02T16:06:24Z</time>
      </trkpt>
      <trkpt lat="42.751591" lon="0.547192">
        <ele>1835.2</ele>
        <time>2020-06-02T16:06:33Z</time>
      </trkpt>
      <trkpt lat="42.751523" lon="0.547265">
        <ele>1832.6</ele>
        <time>2020-06-02T16:06:42Z</time>
      </trkpt>
      <trkpt lat="42.751513" lon="0.547380">
        <ele>1830.1</ele>
        <time>2020-06-02T16:06:51Z</time>
      </trkpt>
      <trkpt lat="42.751498" lon="0.547501">
        <ele>1827.0</ele>
        <time>2020-06-02T16:07:12Z</time>
      </trkpt>
      <trkpt lat="42.751496" lon="0.547624">
        <ele>1824.4</ele>
        <time>2020-06-02T16:07:23Z</time>
      </trkpt>
      <trkpt lat="42.751524" lon="0.547743">
        <ele>1821.6</ele>
        <time>2020-06-02T16:07:34Z</time>
      </trkpt>
      <trkpt lat="42.751594" lon="0.547659">
        <ele>1818.8</ele>
        <time>2020-06-02T16:07:43Z</time>
      </trkpt>
      <trkpt lat="42.751663" lon="0.547609">
        <ele>1817.1</ele>
        <time>2020-06-02T16:07:53Z</time>
      </trkpt>
      <trkpt lat="42.751657" lon="0.547742">
        <ele>1814.1</ele>
        <time>2020-06-02T16:08:04Z</time>
      </trkpt>
      <trkpt lat="42.751656" lon="0.547865">
        <ele>1810.3</ele>
        <time>2020-06-02T16:08:16Z</time>
      </trkpt>
      <trkpt lat="42.751661" lon="0.547992">
        <ele>1807.7</ele>
        <time>2020-06-02T16:08:29Z</time>
      </trkpt>
      <trkpt lat="42.751657" lon="0.548127">
        <ele>1805.0</ele>
        <time>2020-06-02T16:08:40Z</time>
      </trkpt>
      <trkpt lat="42.751626" lon="0.548246">
        <ele>1802.4</ele>
        <time>2020-06-02T16:08:51Z</time>
      </trkpt>
      <trkpt lat="42.751622" lon="0.548369">
        <ele>1799.3</ele>
        <time>2020-06-02T16:09:01Z</time>
      </trkpt>
      <trkpt lat="42.751678" lon="0.548372">
        <ele>1797.7</ele>
        <time>2020-06-02T16:09:10Z</time>
      </trkpt>
      <trkpt lat="42.751732" lon="0.548453">
        <ele>1795.7</ele>
        <time>2020-06-02T16:09:20Z</time>
      </trkpt>
      <trkpt lat="42.751755" lon="0.548573">
        <ele>1792.8</ele>
        <time>2020-06-02T16:09:30Z</time>
      </trkpt>
      <trkpt lat="42.751678" lon="0.548601">
        <ele>1790.3</ele>
        <time>2020-06-02T16:09:40Z</time>
      </trkpt>
      <trkpt lat="42.751694" lon="0.548664">
        <ele>1787.6</ele>
        <time>2020-06-02T16:09:50Z</time>
      </trkpt>
      <trkpt lat="42.751689" lon="0.548750">
        <ele>1784.8</ele>
        <time>2020-06-02T16:10:01Z</time>
      </trkpt>
      <trkpt lat="42.751665" lon="0.548865">
        <ele>1781.7</ele>
        <time>2020-06-02T16:10:10Z</time>
      </trkpt>
      <trkpt lat="42.751644" lon="0.548990">
        <ele>1778.9</ele>
        <time>2020-06-02T16:10:19Z</time>
      </trkpt>
      <trkpt lat="42.751675" lon="0.549048">
        <ele>1776.0</ele>
        <time>2020-06-02T16:10:29Z</time>
      </trkpt>
      <trkpt lat="42.751766" lon="0.548988">
        <ele>1773.2</ele>
        <time>2020-06-02T16:10:39Z</time>
      </trkpt>
      <trkpt lat="42.751837" lon="0.548922">
        <ele>1770.8</ele>
        <time>2020-06-02T16:11:02Z</time>
      </trkpt>
      <trkpt lat="42.751925" lon="0.548922">
        <ele>1768.5</ele>
        <time>2020-06-02T16:11:12Z</time>
      </trkpt>
      <trkpt lat="42.751889" lon="0.549038">
        <ele>1765.8</ele>
        <time>2020-06-02T16:11:21Z</time>
      </trkpt>
      <trkpt lat="42.751935" lon="0.549077">
        <ele>1763.9</ele>
        <time>2020-06-02T16:11:30Z</time>
      </trkpt>
      <trkpt lat="42.752021" lon="0.549096">
        <ele>1761.2</ele>
        <time>2020-06-02T16:11:39Z</time>
      </trkpt>
      <trkpt lat="42.751978" lon="0.549206">
        <ele>1758.9</ele>
        <time>2020-06-02T16:11:48Z</time>
      </trkpt>
      <trkpt lat="42.751945" lon="0.549327">
        <ele>1755.8</ele>
        <time>2020-06-02T16:11:58Z</time>
      </trkpt>
      <trkpt lat="42.751920" lon="0.549454">
        <ele>1753.2</ele>
        <time>2020-06-02T16:12:08Z</time>
      </trkpt>
      <trkpt lat="42.751911" lon="0.549575">
        <ele>1749.9</ele>
        <time>2020-06-02T16:12:19Z</time>
      </trkpt>
      <trkpt lat="42.751911" lon="0.549699">
        <ele>1746.5</ele>
        <time>2020-06-02T16:12:30Z</time>
      </trkpt>
      <trkpt lat="42.751967" lon="0.549666">
        <ele>1744.6</ele>
        <time>2020-06-02T16:13:38Z</time>
      </trkpt>
      <trkpt lat="42.752082" lon="0.549661">
        <ele>1742.8</ele>
        <time>2020-06-02T16:13:51Z</time>
      </trkpt>
      <trkpt lat="42.752069" lon="0.549718">
        <ele>1741.1</ele>
        <time>2020-06-02T16:14:01Z</time>
      </trkpt>
      <trkpt lat="42.752013" lon="0.549808">
        <ele>1739.4</ele>
        <time>2020-06-02T16:14:10Z</time>
      </trkpt>
      <trkpt lat="42.752004" lon="0.549939">
        <ele>1737.6</ele>
        <time>2020-06-02T16:14:20Z</time>
      </trkpt>
      <trkpt lat="42.751991" lon="0.550065">
        <ele>1735.8</ele>
        <time>2020-06-02T16:14:30Z</time>
      </trkpt>
      <trkpt lat="42.751981" lon="0.550201">
        <ele>1733.4</ele>
        <time>2020-06-02T16:14:39Z</time>
      </trkpt>
      <trkpt lat="42.751973" lon="0.550338">
        <ele>1731.5</ele>
        <time>2020-06-02T16:14:48Z</time>
      </trkpt>
      <trkpt lat="42.751991" lon="0.550421">
        <ele>1729.8</ele>
        <time>2020-06-02T16:14:57Z</time>
      </trkpt>
      <trkpt lat="42.752068" lon="0.550332">
        <ele>1729.0</ele>
        <time>2020-06-02T16:15:06Z</time>
      </trkpt>
      <trkpt lat="42.752118" lon="0.550225">
        <ele>1728.1</ele>
        <time>2020-06-02T16:15:17Z</time>
      </trkpt>
      <trkpt lat="42.752199" lon="0.550130">
        <ele>1725.3</ele>
        <time>2020-06-02T16:15:30Z</time>
      </trkpt>
      <trkpt lat="42.752300" lon="0.550165">
        <ele>1723.4</ele>
        <time>2020-06-02T16:15:40Z</time>
      </trkpt>
      <trkpt lat="42.752383" lon="0.550127">
        <ele>1721.4</ele>
        <time>2020-06-02T16:15:50Z</time>
      </trkpt>
      <trkpt lat="42.752463" lon="0.550133">
        <ele>1720.6</ele>
        <time>2020-06-02T16:16:01Z</time>
      </trkpt>
      <trkpt lat="42.752513" lon="0.550239">
        <ele>1719.7</ele>
        <time>2020-06-02T16:16:10Z</time>
      </trkpt>
      <trkpt lat="42.752546" lon="0.550355">
        <ele>1718.8</ele>
        <time>2020-06-02T16:16:18Z</time>
      </trkpt>
      <trkpt lat="42.752608" lon="0.550451">
        <ele>1717.2</ele>
        <time>2020-06-02T16:16:26Z</time>
      </trkpt>
      <trkpt lat="42.752706" lon="0.550473">
        <ele>1716.4</ele>
        <time>2020-06-02T16:16:34Z</time>
      </trkpt>
      <trkpt lat="42.752792" lon="0.550551">
        <ele>1714.8</ele>
        <time>2020-06-02T16:16:42Z</time>
      </trkpt>
      <trkpt lat="42.752854" lon="0.550655">
        <ele>1713.9</ele>
        <time>2020-06-02T16:16:50Z</time>
      </trkpt>
      <trkpt lat="42.752919" lon="0.550748">
        <ele>1713.9</ele>
        <time>2020-06-02T16:16:58Z</time>
      </trkpt>
      <trkpt lat="42.753002" lon="0.550836">
        <ele>1712.9</ele>
        <time>2020-06-02T16:17:06Z</time>
      </trkpt>
      <trkpt lat="42.753080" lon="0.550919">
        <ele>1712.9</ele>
        <time>2020-06-02T16:17:15Z</time>
      </trkpt>
      <trkpt lat="42.753111" lon="0.551034">
        <ele>1712.9</ele>
        <time>2020-06-02T16:17:24Z</time>
      </trkpt>
      <trkpt lat="42.753126" lon="0.551164">
        <ele>1712.8</ele>
        <time>2020-06-02T16:17:33Z</time>
      </trkpt>
      <trkpt lat="42.753176" lon="0.551279">
        <ele>1712.8</ele>
        <time>2020-06-02T16:17:42Z</time>
      </trkpt>
      <trkpt lat="42.753240" lon="0.551380">
        <ele>1712.7</ele>
        <time>2020-06-02T16:17:50Z</time>
      </trkpt>
      <trkpt lat="42.753320" lon="0.551456">
        <ele>1712.7</ele>
        <time>2020-06-02T16:17:58Z</time>
      </trkpt>
      <trkpt lat="42.753397" lon="0.551547">
        <ele>1712.7</ele>
        <time>2020-06-02T16:18:06Z</time>
      </trkpt>
      <trkpt lat="42.753444" lon="0.551659">
        <ele>1712.6</ele>
        <time>2020-06-02T16:18:14Z</time>
      </trkpt>
      <trkpt lat="42.753510" lon="0.551762">
        <ele>1712.6</ele>
        <time>2020-06-02T16:18:22Z</time>
      </trkpt>
      <trkpt lat="42.753583" lon="0.551862">
        <ele>1712.5</ele>
        <time>2020-06-02T16:18:30Z</time>
      </trkpt>
      <trkpt lat="42.753641" lon="0.551964">
        <ele>1712.5</ele>
        <time>2020-06-02T16:18:38Z</time>
      </trkpt>
      <trkpt lat="42.753699" lon="0.552075">
        <ele>1715.6</ele>
        <time>2020-06-02T16:18:46Z</time>
      </trkpt>
      <trkpt lat="42.753755" lon="0.552174">
        <ele>1716.4</ele>
        <time>2020-06-02T16:18:54Z</time>
      </trkpt>
      <trkpt lat="42.753818" lon="0.552280">
        <ele>1719.0</ele>
        <time>2020-06-02T16:19:05Z</time>
      </trkpt>
      <trkpt lat="42.753874" lon="0.552394">
        <ele>1719.1</ele>
        <time>2020-06-02T16:19:13Z</time>
      </trkpt>
      <trkpt lat="42.753936" lon="0.552495">
        <ele>1718.9</ele>
        <time>2020-06-02T16:19:21Z</time>
      </trkpt>
      <trkpt lat="42.753993" lon="0.552605">
        <ele>1718.8</ele>
        <time>2020-06-02T16:19:29Z</time>
      </trkpt>
      <trkpt lat="42.754041" lon="0.552703">
        <ele>1719.4</ele>
        <time>2020-06-02T16:20:27Z</time>
      </trkpt>
      <trkpt lat="42.754105" lon="0.552795">
        <ele>1719.4</ele>
        <time>2020-06-02T16:20:36Z</time>
      </trkpt>
      <trkpt lat="42.754172" lon="0.552877">
        <ele>1719.3</ele>
        <time>2020-06-02T16:20:52Z</time>
      </trkpt>
      <trkpt lat="42.754258" lon="0.552948">
        <ele>1720.1</ele>
        <time>2020-06-02T16:21:01Z</time>
      </trkpt>
      <trkpt lat="42.754340" lon="0.553016">
        <ele>1720.1</ele>
        <time>2020-06-02T16:21:09Z</time>
      </trkpt>
      <trkpt lat="42.754413" lon="0.553104">
        <ele>1720.1</ele>
        <time>2020-06-02T16:21:18Z</time>
      </trkpt>
      <trkpt lat="42.754480" lon="0.553199">
        <ele>1720.0</ele>
        <time>2020-06-02T16:21:26Z</time>
      </trkpt>
      <trkpt lat="42.754555" lon="0.553298">
        <ele>1720.0</ele>
        <time>2020-06-02T16:21:34Z</time>
      </trkpt>
      <trkpt lat="42.754608" lon="0.553414">
        <ele>1719.9</ele>
        <time>2020-06-02T16:21:42Z</time>
      </trkpt>
      <trkpt lat="42.754626" lon="0.553537">
        <ele>1719.9</ele>
        <time>2020-06-02T16:21:50Z</time>
      </trkpt>
      <trkpt lat="42.754641" lon="0.553672">
        <ele>1719.8</ele>
        <time>2020-06-02T16:22:00Z</time>
      </trkpt>
      <trkpt lat="42.754674" lon="0.553791">
        <ele>1719.8</ele>
        <time>2020-06-02T16:22:08Z</time>
      </trkpt>
      <trkpt lat="42.754698" lon="0.553920">
        <ele>1719.8</ele>
        <time>2020-06-02T16:22:16Z</time>
      </trkpt>
      <trkpt lat="42.754732" lon="0.554041">
        <ele>1719.7</ele>
        <time>2020-06-02T16:22:24Z</time>
      </trkpt>
      <trkpt lat="42.754761" lon="0.554164">
        <ele>1719.6</ele>
        <time>2020-06-02T16:22:32Z</time>
      </trkpt>
      <trkpt lat="42.754798" lon="0.554279">
        <ele>1717.1</ele>
        <time>2020-06-02T16:22:40Z</time>
      </trkpt>
      <trkpt lat="42.754831" lon="0.554405">
        <ele>1717.1</ele>
        <time>2020-06-02T16:22:48Z</time>
      </trkpt>
      <trkpt lat="42.754879" lon="0.554512">
        <ele>1717.1</ele>
        <time>2020-06-02T16:22:56Z</time>
      </trkpt>
      <trkpt lat="42.754939" lon="0.554624">
        <ele>1717.2</ele>
        <time>2020-06-02T16:23:05Z</time>
      </trkpt>
      <trkpt lat="42.755001" lon="0.554723">
        <ele>1720.6</ele>
        <time>2020-06-02T16:23:14Z</time>
      </trkpt>
      <trkpt lat="42.755068" lon="0.554820">
        <ele>1722.1</ele>
        <time>2020-06-02T16:23:23Z</time>
      </trkpt>
      <trkpt lat="42.755144" lon="0.554906">
        <ele>1723.7</ele>
        <time>2020-06-02T16:23:33Z</time>
      </trkpt>
      <trkpt lat="42.755220" lon="0.554993">
        <ele>1725.5</ele>
        <time>2020-06-02T16:23:43Z</time>
      </trkpt>
      <trkpt lat="42.755293" lon="0.555072">
        <ele>1725.4</ele>
        <time>2020-06-02T16:23:51Z</time>
      </trkpt>
      <trkpt lat="42.755376" lon="0.555147">
        <ele>1727.0</ele>
        <time>2020-06-02T16:24:00Z</time>
      </trkpt>
      <trkpt lat="42.755464" lon="0.555213">
        <ele>1727.9</ele>
        <time>2020-06-02T16:24:08Z</time>
      </trkpt>
      <trkpt lat="42.755546" lon="0.555291">
        <ele>1728.7</ele>
        <time>2020-06-02T16:24:16Z</time>
      </trkpt>
      <trkpt lat="42.755620" lon="0.555392">
        <ele>1728.6</ele>
        <time>2020-06-02T16:24:24Z</time>
      </trkpt>
      <trkpt lat="42.755684" lon="0.555496">
        <ele>1730.3</ele>
        <time>2020-06-02T16:24:32Z</time>
      </trkpt>
      <trkpt lat="42.755737" lon="0.555608">
        <ele>1730.3</ele>
        <time>2020-06-02T16:24:40Z</time>
      </trkpt>
      <trkpt lat="42.755782" lon="0.555724">
        <ele>1731.1</ele>
        <time>2020-06-02T16:24:48Z</time>
      </trkpt>
      <trkpt lat="42.755824" lon="0.555851">
        <ele>1731.9</ele>
        <time>2020-06-02T16:24:56Z</time>
      </trkpt>
      <trkpt lat="42.755871" lon="0.555976">
        <ele>1732.7</ele>
        <time>2020-06-02T16:25:04Z</time>
      </trkpt>
      <trkpt lat="42.755915" lon="0.556090">
        <ele>1732.7</ele>
        <time>2020-06-02T16:25:11Z</time>
      </trkpt>
      <trkpt lat="42.755964" lon="0.556195">
        <ele>1733.5</ele>
        <time>2020-06-02T16:25:18Z</time>
      </trkpt>
      <trkpt lat="42.756009" lon="0.556313">
        <ele>1733.4</ele>
        <time>2020-06-02T16:25:26Z</time>
      </trkpt>
      <trkpt lat="42.756058" lon="0.556418">
        <ele>1733.4</ele>
        <time>2020-06-02T16:25:33Z</time>
      </trkpt>
      <trkpt lat="42.756123" lon="0.556522">
        <ele>1733.4</ele>
        <time>2020-06-02T16:25:41Z</time>
      </trkpt>
      <trkpt lat="42.756178" lon="0.556624">
        <ele>1733.4</ele>
        <time>2020-06-02T16:25:48Z</time>
      </trkpt>
      <trkpt lat="42.756236" lon="0.556724">
        <ele>1734.1</ele>
        <time>2020-06-02T16:25:55Z</time>
      </trkpt>
      <trkpt lat="42.756305" lon="0.556807">
        <ele>1734.1</ele>
        <time>2020-06-02T16:26:02Z</time>
      </trkpt>
      <trkpt lat="42.756383" lon="0.556891">
        <ele>1735.0</ele>
        <time>2020-06-02T16:26:10Z</time>
      </trkpt>
      <trkpt lat="42.756456" lon="0.556967">
        <ele>1735.8</ele>
        <time>2020-06-02T16:26:17Z</time>
      </trkpt>
      <trkpt lat="42.756530" lon="0.557061">
        <ele>1735.7</ele>
        <time>2020-06-02T16:26:25Z</time>
      </trkpt>
      <trkpt lat="42.756606" lon="0.557150">
        <ele>1736.5</ele>
        <time>2020-06-02T16:26:33Z</time>
      </trkpt>
      <trkpt lat="42.756696" lon="0.557220">
        <ele>1737.2</ele>
        <time>2020-06-02T16:26:41Z</time>
      </trkpt>
      <trkpt lat="42.756778" lon="0.557280">
        <ele>1737.2</ele>
        <time>2020-06-02T16:26:48Z</time>
      </trkpt>
      <trkpt lat="42.756869" lon="0.557343">
        <ele>1737.2</ele>
        <time>2020-06-02T16:26:56Z</time>
      </trkpt>
      <trkpt lat="42.756957" lon="0.557399">
        <ele>1737.2</ele>
        <time>2020-06-02T16:27:04Z</time>
      </trkpt>
      <trkpt lat="42.757038" lon="0.557482">
        <ele>1737.1</ele>
        <time>2020-06-02T16:27:12Z</time>
      </trkpt>
      <trkpt lat="42.757093" lon="0.557593">
        <ele>1737.0</ele>
        <time>2020-06-02T16:27:20Z</time>
      </trkpt>
      <trkpt lat="42.757118" lon="0.557719">
        <ele>1737.0</ele>
        <time>2020-06-02T16:27:28Z</time>
      </trkpt>
      <trkpt lat="42.757120" lon="0.557855">
        <ele>1737.0</ele>
        <time>2020-06-02T16:27:36Z</time>
      </trkpt>
      <trkpt lat="42.757122" lon="0.557981">
        <ele>1737.0</ele>
        <time>2020-06-02T16:27:43Z</time>
      </trkpt>
      <trkpt lat="42.757135" lon="0.558107">
        <ele>1734.6</ele>
        <time>2020-06-02T16:27:50Z</time>
      </trkpt>
      <trkpt lat="42.757157" lon="0.558225">
        <ele>1734.6</ele>
        <time>2020-06-02T16:27:57Z</time>
      </trkpt>
      <trkpt lat="42.757185" lon="0.558348">
        <ele>1734.6</ele>
        <time>2020-06-02T16:28:05Z</time>
      </trkpt>
      <trkpt lat="42.757214" lon="0.558478">
        <ele>1734.6</ele>
        <time>2020-06-02T16:28:14Z</time>
      </trkpt>
      <trkpt lat="42.757229" lon="0.558599">
        <ele>1734.6</ele>
        <time>2020-06-02T16:28:21Z</time>
      </trkpt>
      <trkpt lat="42.757256" lon="0.558728">
        <ele>1734.6</ele>
        <time>2020-06-02T16:28:29Z</time>
      </trkpt>
      <trkpt lat="42.757290" lon="0.558854">
        <ele>1734.5</ele>
        <time>2020-06-02T16:28:37Z</time>
      </trkpt>
      <trkpt lat="42.757342" lon="0.558956">
        <ele>1736.8</ele>
        <time>2020-06-02T16:28:45Z</time>
      </trkpt>
      <trkpt lat="42.757393" lon="0.559075">
        <ele>1736.8</ele>
        <time>2020-06-02T16:28:53Z</time>
      </trkpt>
      <trkpt lat="42.757463" lon="0.559169">
        <ele>1736.7</ele>
        <time>2020-06-02T16:29:01Z</time>
      </trkpt>
      <trkpt lat="42.757536" lon="0.559260">
        <ele>1737.3</ele>
        <time>2020-06-02T16:29:49Z</time>
      </trkpt>
      <trkpt lat="42.757616" lon="0.559320">
        <ele>1737.3</ele>
        <time>2020-06-02T16:29:57Z</time>
      </trkpt>
      <trkpt lat="42.757711" lon="0.559315">
        <ele>1738.9</ele>
        <time>2020-06-02T16:30:07Z</time>
      </trkpt>
      <trkpt lat="42.757805" lon="0.559316">
        <ele>1740.6</ele>
        <time>2020-06-02T16:30:16Z</time>
      </trkpt>
      <trkpt lat="42.757894" lon="0.559333">
        <ele>1741.4</ele>
        <time>2020-06-02T16:30:24Z</time>
      </trkpt>
      <trkpt lat="42.757987" lon="0.559358">
        <ele>1743.3</ele>
        <time>2020-06-02T16:30:33Z</time>
      </trkpt>
      <trkpt lat="42.758087" lon="0.559381">
        <ele>1744.9</ele>
        <time>2020-06-02T16:30:42Z</time>
      </trkpt>
      <trkpt lat="42.758178" lon="0.559427">
        <ele>1744.9</ele>
        <time>2020-06-02T16:30:50Z</time>
      </trkpt>
      <trkpt lat="42.758267" lon="0.559481">
        <ele>1744.8</ele>
        <time>2020-06-02T16:30:58Z</time>
      </trkpt>
      <trkpt lat="42.758357" lon="0.559533">
        <ele>1745.8</ele>
        <time>2020-06-02T16:31:07Z</time>
      </trkpt>
      <trkpt lat="42.758441" lon="0.559568">
        <ele>1747.6</ele>
        <time>2020-06-02T16:31:17Z</time>
      </trkpt>
      <trkpt lat="42.758535" lon="0.559612">
        <ele>1748.6</ele>
        <time>2020-06-02T16:31:27Z</time>
      </trkpt>
      <trkpt lat="42.758613" lon="0.559676">
        <ele>1750.3</ele>
        <time>2020-06-02T16:31:36Z</time>
      </trkpt>
      <trkpt lat="42.758685" lon="0.559760">
        <ele>1751.2</ele>
        <time>2020-06-02T16:31:46Z</time>
      </trkpt>
      <trkpt lat="42.758753" lon="0.559868">
        <ele>1752.8</ele>
        <time>2020-06-02T16:31:56Z</time>
      </trkpt>
      <trkpt lat="42.758811" lon="0.559975">
        <ele>1754.0</ele>
        <time>2020-06-02T16:32:06Z</time>
      </trkpt>
      <trkpt lat="42.758854" lon="0.560091">
        <ele>1755.7</ele>
        <time>2020-06-02T16:32:15Z</time>
      </trkpt>
      <trkpt lat="42.758895" lon="0.560220">
        <ele>1756.5</ele>
        <time>2020-06-02T16:32:25Z</time>
      </trkpt>
      <trkpt lat="42.758936" lon="0.560342">
        <ele>1757.5</ele>
        <time>2020-06-02T16:32:34Z</time>
      </trkpt>
      <trkpt lat="42.758968" lon="0.560466">
        <ele>1759.1</ele>
        <time>2020-06-02T16:32:43Z</time>
      </trkpt>
      <trkpt lat="42.758997" lon="0.560586">
        <ele>1759.9</ele>
        <time>2020-06-02T16:32:52Z</time>
      </trkpt>
      <trkpt lat="42.759034" lon="0.560700">
        <ele>1760.7</ele>
        <time>2020-06-02T16:33:02Z</time>
      </trkpt>
      <trkpt lat="42.759072" lon="0.560816">
        <ele>1762.5</ele>
        <time>2020-06-02T16:33:13Z</time>
      </trkpt>
      <trkpt lat="42.759101" lon="0.560933">
        <ele>1764.3</ele>
        <time>2020-06-02T16:33:21Z</time>
      </trkpt>
      <trkpt lat="42.759140" lon="0.561053">
        <ele>1766.1</ele>
        <time>2020-06-02T16:33:29Z</time>
      </trkpt>
      <trkpt lat="42.759181" lon="0.561167">
        <ele>1767.1</ele>
        <time>2020-06-02T16:33:36Z</time>
      </trkpt>
      <trkpt lat="42.759229" lon="0.561275">
        <ele>1768.7</ele>
        <time>2020-06-02T16:33:44Z</time>
      </trkpt>
      <trkpt lat="42.759276" lon="0.561379">
        <ele>1769.5</ele>
        <time>2020-06-02T16:33:51Z</time>
      </trkpt>
      <trkpt lat="42.759330" lon="0.561481">
        <ele>1770.3</ele>
        <time>2020-06-02T16:33:59Z</time>
      </trkpt>
      <trkpt lat="42.759392" lon="0.561576">
        <ele>1772.1</ele>
        <time>2020-06-02T16:34:07Z</time>
      </trkpt>
      <trkpt lat="42.759465" lon="0.561664">
        <ele>1774.0</ele>
        <time>2020-06-02T16:34:15Z</time>
      </trkpt>
      <trkpt lat="42.759541" lon="0.561743">
        <ele>1775.8</ele>
        <time>2020-06-02T16:34:23Z</time>
      </trkpt>
      <trkpt lat="42.759616" lon="0.561818">
        <ele>1777.4</ele>
        <time>2020-06-02T16:34:31Z</time>
      </trkpt>
      <trkpt lat="42.759691" lon="0.561899">
        <ele>1778.2</ele>
        <time>2020-06-02T16:34:39Z</time>
      </trkpt>
      <trkpt lat="42.759759" lon="0.561989">
        <ele>1779.0</ele>
        <time>2020-06-02T16:34:46Z</time>
      </trkpt>
      <trkpt lat="42.759828" lon="0.562083">
        <ele>1779.8</ele>
        <time>2020-06-02T16:34:54Z</time>
      </trkpt>
      <trkpt lat="42.759896" lon="0.562182">
        <ele>1780.6</ele>
        <time>2020-06-02T16:35:02Z</time>
      </trkpt>
      <trkpt lat="42.759964" lon="0.562271">
        <ele>1781.5</ele>
        <time>2020-06-02T16:35:09Z</time>
      </trkpt>
      <trkpt lat="42.760032" lon="0.562362">
        <ele>1782.3</ele>
        <time>2020-06-02T16:35:16Z</time>
      </trkpt>
      <trkpt lat="42.760096" lon="0.562463">
        <ele>1783.0</ele>
        <time>2020-06-02T16:35:23Z</time>
      </trkpt>
      <trkpt lat="42.760163" lon="0.562557">
        <ele>1783.0</ele>
        <time>2020-06-02T16:35:30Z</time>
      </trkpt>
      <trkpt lat="42.760237" lon="0.562650">
        <ele>1784.8</ele>
        <time>2020-06-02T16:35:38Z</time>
      </trkpt>
      <trkpt lat="42.760304" lon="0.562744">
        <ele>1786.4</ele>
        <time>2020-06-02T16:35:46Z</time>
      </trkpt>
      <trkpt lat="42.760372" lon="0.562839">
        <ele>1787.3</ele>
        <time>2020-06-02T16:35:54Z</time>
      </trkpt>
      <trkpt lat="42.760436" lon="0.562939">
        <ele>1788.9</ele>
        <time>2020-06-02T16:36:02Z</time>
      </trkpt>
      <trkpt lat="42.760494" lon="0.563058">
        <ele>1789.9</ele>
        <time>2020-06-02T16:36:10Z</time>
      </trkpt>
      <trkpt lat="42.760549" lon="0.563171">
        <ele>1790.7</ele>
        <time>2020-06-02T16:36:18Z</time>
      </trkpt>
      <trkpt lat="42.760598" lon="0.563292">
        <ele>1791.5</ele>
        <time>2020-06-02T16:36:26Z</time>
      </trkpt>
      <trkpt lat="42.760641" lon="0.563411">
        <ele>1792.5</ele>
        <time>2020-06-02T16:36:34Z</time>
      </trkpt>
      <trkpt lat="42.760683" lon="0.563524">
        <ele>1794.4</ele>
        <time>2020-06-02T16:36:42Z</time>
      </trkpt>
      <trkpt lat="42.760722" lon="0.563646">
        <ele>1796.1</ele>
        <time>2020-06-02T16:36:51Z</time>
      </trkpt>
      <trkpt lat="42.760767" lon="0.563766">
        <ele>1796.9</ele>
        <time>2020-06-02T16:36:59Z</time>
      </trkpt>
      <trkpt lat="42.760810" lon="0.563886">
        <ele>1798.7</ele>
        <time>2020-06-02T16:37:07Z</time>
      </trkpt>
      <trkpt lat="42.760847" lon="0.564002">
        <ele>1799.4</ele>
        <time>2020-06-02T16:37:15Z</time>
      </trkpt>
      <trkpt lat="42.760885" lon="0.564124">
        <ele>1801.0</ele>
        <time>2020-06-02T16:37:23Z</time>
      </trkpt>
      <trkpt lat="42.760921" lon="0.564249">
        <ele>1801.8</ele>
        <time>2020-06-02T16:37:31Z</time>
      </trkpt>
      <trkpt lat="42.760968" lon="0.564366">
        <ele>1803.6</ele>
        <time>2020-06-02T16:37:39Z</time>
      </trkpt>
      <trkpt lat="42.761006" lon="0.564480">
        <ele>1805.2</ele>
        <time>2020-06-02T16:37:47Z</time>
      </trkpt>
      <trkpt lat="42.761041" lon="0.564605">
        <ele>1806.2</ele>
        <time>2020-06-02T16:37:55Z</time>
      </trkpt>
      <trkpt lat="42.761087" lon="0.564709">
        <ele>1808.1</ele>
        <time>2020-06-02T16:38:03Z</time>
      </trkpt>
      <trkpt lat="42.761126" lon="0.564825">
        <ele>1808.8</ele>
        <time>2020-06-02T16:38:11Z</time>
      </trkpt>
      <trkpt lat="42.761189" lon="0.564930">
        <ele>1809.8</ele>
        <time>2020-06-02T16:38:19Z</time>
      </trkpt>
      <trkpt lat="42.761267" lon="0.565004">
        <ele>1811.5</ele>
        <time>2020-06-02T16:38:27Z</time>
      </trkpt>
      <trkpt lat="42.761343" lon="0.565076">
        <ele>1812.2</ele>
        <time>2020-06-02T16:38:35Z</time>
      </trkpt>
      <trkpt lat="42.761412" lon="0.565160">
        <ele>1813.0</ele>
        <time>2020-06-02T16:38:42Z</time>
      </trkpt>
      <trkpt lat="42.761487" lon="0.565257">
        <ele>1812.9</ele>
        <time>2020-06-02T16:38:50Z</time>
      </trkpt>
      <trkpt lat="42.761549" lon="0.565346">
        <ele>1813.9</ele>
        <time>2020-06-02T16:38:57Z</time>
      </trkpt>
      <trkpt lat="42.761610" lon="0.565435">
        <ele>1814.8</ele>
        <time>2020-06-02T16:39:05Z</time>
      </trkpt>
      <trkpt lat="42.761661" lon="0.565536">
        <ele>1816.5</ele>
        <time>2020-06-02T16:39:24Z</time>
      </trkpt>
      <trkpt lat="42.761707" lon="0.565647">
        <ele>1816.5</ele>
        <time>2020-06-02T16:39:33Z</time>
      </trkpt>
      <trkpt lat="42.761754" lon="0.565772">
        <ele>1817.3</ele>
        <time>2020-06-02T16:39:41Z</time>
      </trkpt>
      <trkpt lat="42.761803" lon="0.565887">
        <ele>1818.2</ele>
        <time>2020-06-02T16:39:49Z</time>
      </trkpt>
      <trkpt lat="42.761851" lon="0.566005">
        <ele>1819.0</ele>
        <time>2020-06-02T16:39:57Z</time>
      </trkpt>
      <trkpt lat="42.761896" lon="0.566117">
        <ele>1819.9</ele>
        <time>2020-06-02T16:40:05Z</time>
      </trkpt>
      <trkpt lat="42.761939" lon="0.566234">
        <ele>1820.9</ele>
        <time>2020-06-02T16:40:13Z</time>
      </trkpt>
      <trkpt lat="42.761982" lon="0.566344">
        <ele>1822.5</ele>
        <time>2020-06-02T16:40:21Z</time>
      </trkpt>
      <trkpt lat="42.762032" lon="0.566464">
        <ele>1823.3</ele>
        <time>2020-06-02T16:40:30Z</time>
      </trkpt>
      <trkpt lat="42.762063" lon="0.566587">
        <ele>1825.0</ele>
        <time>2020-06-02T16:40:39Z</time>
      </trkpt>
      <trkpt lat="42.762090" lon="0.566714">
        <ele>1826.5</ele>
        <time>2020-06-02T16:40:49Z</time>
      </trkpt>
      <trkpt lat="42.762138" lon="0.566731">
        <ele>1828.4</ele>
        <time>2020-06-02T16:41:00Z</time>
      </trkpt>
      <trkpt lat="42.762180" lon="0.566613">
        <ele>1830.1</ele>
        <time>2020-06-02T16:41:11Z</time>
      </trkpt>
      <trkpt lat="42.762217" lon="0.566502">
        <ele>1831.7</ele>
        <time>2020-06-02T16:41:22Z</time>
      </trkpt>
      <trkpt lat="42.762299" lon="0.566540">
        <ele>1833.4</ele>
        <time>2020-06-02T16:41:34Z</time>
      </trkpt>
      <trkpt lat="42.762379" lon="0.566596">
        <ele>1834.3</ele>
        <time>2020-06-02T16:41:44Z</time>
      </trkpt>
      <trkpt lat="42.762446" lon="0.566697">
        <ele>1835.0</ele>
        <time>2020-06-02T16:41:53Z</time>
      </trkpt>
      <trkpt lat="42.762516" lon="0.566791">
        <ele>1835.0</ele>
        <time>2020-06-02T16:42:01Z</time>
      </trkpt>
      <trkpt lat="42.762584" lon="0.566882">
        <ele>1835.8</ele>
        <time>2020-06-02T16:42:09Z</time>
      </trkpt>
      <trkpt lat="42.762675" lon="0.566922">
        <ele>1835.8</ele>
        <time>2020-06-02T16:42:17Z</time>
      </trkpt>
      <trkpt lat="42.762771" lon="0.566950">
        <ele>1835.8</ele>
        <time>2020-06-02T16:42:25Z</time>
      </trkpt>
      <trkpt lat="42.762839" lon="0.567028">
        <ele>1835.7</ele>
        <time>2020-06-02T16:42:31Z</time>
      </trkpt>
      <trkpt lat="42.762896" lon="0.567136">
        <ele>1833.5</ele>
        <time>2020-06-02T16:42:39Z</time>
      </trkpt>
      <trkpt lat="42.762943" lon="0.567246">
        <ele>1833.6</ele>
        <time>2020-06-02T16:42:47Z</time>
      </trkpt>
      <trkpt lat="42.762985" lon="0.567350">
        <ele>1833.6</ele>
        <time>2020-06-02T16:42:54Z</time>
      </trkpt>
      <trkpt lat="42.763013" lon="0.567464">
        <ele>1832.7</ele>
        <time>2020-06-02T16:43:01Z</time>
      </trkpt>
      <trkpt lat="42.763037" lon="0.567565">
        <ele>1832.7</ele>
        <time>2020-06-02T16:43:32Z</time>
      </trkpt>
      <trkpt lat="42.763022" lon="0.567696">
        <ele>1832.7</ele>
        <time>2020-06-02T16:43:40Z</time>
      </trkpt>
      <trkpt lat="42.763006" lon="0.567835">
        <ele>1832.7</ele>
        <time>2020-06-02T16:43:47Z</time>
      </trkpt>
      <trkpt lat="42.762987" lon="0.567972">
        <ele>1831.9</ele>
        <time>2020-06-02T16:43:54Z</time>
      </trkpt>
      <trkpt lat="42.762973" lon="0.568098">
        <ele>1831.9</ele>
        <time>2020-06-02T16:44:01Z</time>
      </trkpt>
      <trkpt lat="42.762960" lon="0.568230">
        <ele>1831.1</ele>
        <time>2020-06-02T16:44:08Z</time>
      </trkpt>
      <trkpt lat="42.762949" lon="0.568362">
        <ele>1830.3</ele>
        <time>2020-06-02T16:44:15Z</time>
      </trkpt>
      <trkpt lat="42.762933" lon="0.568493">
        <ele>1830.3</ele>
        <time>2020-06-02T16:44:22Z</time>
      </trkpt>
      <trkpt lat="42.762925" lon="0.568625">
        <ele>1829.6</ele>
        <time>2020-06-02T16:44:29Z</time>
      </trkpt>
      <trkpt lat="42.762916" lon="0.568757">
        <ele>1828.8</ele>
        <time>2020-06-02T16:44:36Z</time>
      </trkpt>
      <trkpt lat="42.762922" lon="0.568885">
        <ele>1827.0</ele>
        <time>2020-06-02T16:44:43Z</time>
      </trkpt>
      <trkpt lat="42.762941" lon="0.569014">
        <ele>1826.1</ele>
        <time>2020-06-02T16:44:50Z</time>
      </trkpt>
      <trkpt lat="42.762960" lon="0.569146">
        <ele>1825.1</ele>
        <time>2020-06-02T16:44:57Z</time>
      </trkpt>
      <trkpt lat="42.762985" lon="0.569280">
        <ele>1825.1</ele>
        <time>2020-06-02T16:45:04Z</time>
      </trkpt>
      <trkpt lat="42.763008" lon="0.569413">
        <ele>1824.2</ele>
        <time>2020-06-02T16:45:11Z</time>
      </trkpt>
      <trkpt lat="42.763031" lon="0.569531">
        <ele>1823.3</ele>
        <time>2020-06-02T16:45:17Z</time>
      </trkpt>
      <trkpt lat="42.763068" lon="0.569657">
        <ele>1822.6</ele>
        <time>2020-06-02T16:45:24Z</time>
      </trkpt>
      <trkpt lat="42.763107" lon="0.569790">
        <ele>1821.7</ele>
        <time>2020-06-02T16:45:31Z</time>
      </trkpt>
      <trkpt lat="42.763155" lon="0.569913">
        <ele>1821.7</ele>
        <time>2020-06-02T16:45:38Z</time>
      </trkpt>
      <trkpt lat="42.763211" lon="0.570032">
        <ele>1821.7</ele>
        <time>2020-06-02T16:45:45Z</time>
      </trkpt>
      <trkpt lat="42.763262" lon="0.570149">
        <ele>1820.9</ele>
        <time>2020-06-02T16:45:52Z</time>
      </trkpt>
      <trkpt lat="42.763309" lon="0.570273">
        <ele>1820.9</ele>
        <time>2020-06-02T16:45:59Z</time>
      </trkpt>
      <trkpt lat="42.763337" lon="0.570395">
        <ele>1820.9</ele>
        <time>2020-06-02T16:46:06Z</time>
      </trkpt>
      <trkpt lat="42.763361" lon="0.570522">
        <ele>1820.9</ele>
        <time>2020-06-02T16:46:13Z</time>
      </trkpt>
      <trkpt lat="42.763364" lon="0.570656">
        <ele>1820.9</ele>
        <time>2020-06-02T16:46:20Z</time>
      </trkpt>
      <trkpt lat="42.763369" lon="0.570788">
        <ele>1820.9</ele>
        <time>2020-06-02T16:46:27Z</time>
      </trkpt>
      <trkpt lat="42.763368" lon="0.570920">
        <ele>1820.2</ele>
        <time>2020-06-02T16:46:34Z</time>
      </trkpt>
      <trkpt lat="42.763364" lon="0.571055">
        <ele>1820.2</ele>
        <time>2020-06-02T16:46:41Z</time>
      </trkpt>
      <trkpt lat="42.763354" lon="0.571186">
        <ele>1820.2</ele>
        <time>2020-06-02T16:46:48Z</time>
      </trkpt>
      <trkpt lat="42.763341" lon="0.571319">
        <ele>1820.1</ele>
        <time>2020-06-02T16:46:55Z</time>
      </trkpt>
      <trkpt lat="42.763321" lon="0.571456">
        <ele>1819.3</ele>
        <time>2020-06-02T16:47:02Z</time>
      </trkpt>
      <trkpt lat="42.763309" lon="0.571588">
        <ele>1819.3</ele>
        <time>2020-06-02T16:47:09Z</time>
      </trkpt>
      <trkpt lat="42.763287" lon="0.571717">
        <ele>1819.3</ele>
        <time>2020-06-02T16:47:16Z</time>
      </trkpt>
      <trkpt lat="42.763273" lon="0.571855">
        <ele>1818.5</ele>
        <time>2020-06-02T16:47:23Z</time>
      </trkpt>
      <trkpt lat="42.763260" lon="0.571978">
        <ele>1818.5</ele>
        <time>2020-06-02T16:47:29Z</time>
      </trkpt>
      <trkpt lat="42.763252" lon="0.572101">
        <ele>1817.7</ele>
        <time>2020-06-02T16:47:35Z</time>
      </trkpt>
      <trkpt lat="42.763260" lon="0.572238">
        <ele>1816.9</ele>
        <time>2020-06-02T16:47:42Z</time>
      </trkpt>
      <trkpt lat="42.763269" lon="0.572376">
        <ele>1816.0</ele>
        <time>2020-06-02T16:47:49Z</time>
      </trkpt>
      <trkpt lat="42.763260" lon="0.572513">
        <ele>1815.2</ele>
        <time>2020-06-02T16:47:56Z</time>
      </trkpt>
      <trkpt lat="42.763269" lon="0.572643">
        <ele>1815.2</ele>
        <time>2020-06-02T16:48:03Z</time>
      </trkpt>
      <trkpt lat="42.763272" lon="0.572776">
        <ele>1814.4</ele>
        <time>2020-06-02T16:48:10Z</time>
      </trkpt>
      <trkpt lat="42.763274" lon="0.572909">
        <ele>1813.7</ele>
        <time>2020-06-02T16:48:17Z</time>
      </trkpt>
      <trkpt lat="42.763282" lon="0.573041">
        <ele>1813.7</ele>
        <time>2020-06-02T16:48:24Z</time>
      </trkpt>
      <trkpt lat="42.763289" lon="0.573170">
        <ele>1812.9</ele>
        <time>2020-06-02T16:48:31Z</time>
      </trkpt>
      <trkpt lat="42.763290" lon="0.573305">
        <ele>1812.9</ele>
        <time>2020-06-02T16:48:38Z</time>
      </trkpt>
      <trkpt lat="42.763302" lon="0.573446">
        <ele>1812.1</ele>
        <time>2020-06-02T16:48:45Z</time>
      </trkpt>
      <trkpt lat="42.763309" lon="0.573585">
        <ele>1812.1</ele>
        <time>2020-06-02T16:48:52Z</time>
      </trkpt>
      <trkpt lat="42.763315" lon="0.573709">
        <ele>1812.1</ele>
        <time>2020-06-02T16:48:59Z</time>
      </trkpt>
      <trkpt lat="42.763324" lon="0.573829">
        <ele>1811.3</ele>
        <time>2020-06-02T16:49:06Z</time>
      </trkpt>
      <trkpt lat="42.763344" lon="0.573949">
        <ele>1811.3</ele>
        <time>2020-06-02T16:49:13Z</time>
      </trkpt>
      <trkpt lat="42.763369" lon="0.574069">
        <ele>1811.3</ele>
        <time>2020-06-02T16:49:20Z</time>
      </trkpt>
      <trkpt lat="42.763392" lon="0.574193">
        <ele>1811.2</ele>
        <time>2020-06-02T16:49:27Z</time>
      </trkpt>
      <trkpt lat="42.763432" lon="0.574309">
        <ele>1811.2</ele>
        <time>2020-06-02T16:49:35Z</time>
      </trkpt>
      <trkpt lat="42.763458" lon="0.574435">
        <ele>1811.2</ele>
        <time>2020-06-02T16:49:43Z</time>
      </trkpt>
      <trkpt lat="42.763513" lon="0.574545">
        <ele>1811.2</ele>
        <time>2020-06-02T16:49:51Z</time>
      </trkpt>
      <trkpt lat="42.763556" lon="0.574661">
        <ele>1811.2</ele>
        <time>2020-06-02T16:49:59Z</time>
      </trkpt>
      <trkpt lat="42.763591" lon="0.574778">
        <ele>1811.2</ele>
        <time>2020-06-02T16:50:06Z</time>
      </trkpt>
      <trkpt lat="42.763622" lon="0.574906">
        <ele>1810.2</ele>
        <time>2020-06-02T16:50:14Z</time>
      </trkpt>
      <trkpt lat="42.763658" lon="0.575022">
        <ele>1809.4</ele>
        <time>2020-06-02T16:50:21Z</time>
      </trkpt>
      <trkpt lat="42.763697" lon="0.575144">
        <ele>1808.7</ele>
        <time>2020-06-02T16:50:28Z</time>
      </trkpt>
      <trkpt lat="42.763747" lon="0.575260">
        <ele>1807.6</ele>
        <time>2020-06-02T16:50:35Z</time>
      </trkpt>
      <trkpt lat="42.763788" lon="0.575372">
        <ele>1806.0</ele>
        <time>2020-06-02T16:50:42Z</time>
      </trkpt>
      <trkpt lat="42.763832" lon="0.575487">
        <ele>1805.1</ele>
        <time>2020-06-02T16:50:49Z</time>
      </trkpt>
      <trkpt lat="42.763878" lon="0.575601">
        <ele>1804.3</ele>
        <time>2020-06-02T16:50:56Z</time>
      </trkpt>
      <trkpt lat="42.763932" lon="0.575703">
        <ele>1803.3</ele>
        <time>2020-06-02T16:51:03Z</time>
      </trkpt>
      <trkpt lat="42.763990" lon="0.575802">
        <ele>1802.5</ele>
        <time>2020-06-02T16:51:18Z</time>
      </trkpt>
      <trkpt lat="42.764056" lon="0.575888">
        <ele>1800.6</ele>
        <time>2020-06-02T16:51:25Z</time>
      </trkpt>
      <trkpt lat="42.764134" lon="0.575952">
        <ele>1800.5</ele>
        <time>2020-06-02T16:51:32Z</time>
      </trkpt>
      <trkpt lat="42.764213" lon="0.576013">
        <ele>1799.8</ele>
        <time>2020-06-02T16:51:39Z</time>
      </trkpt>
      <trkpt lat="42.764301" lon="0.576070">
        <ele>1798.9</ele>
        <time>2020-06-02T16:51:47Z</time>
      </trkpt>
      <trkpt lat="42.764390" lon="0.576101">
        <ele>1797.3</ele>
        <time>2020-06-02T16:52:01Z</time>
      </trkpt>
      <trkpt lat="42.764479" lon="0.576135">
        <ele>1796.4</ele>
        <time>2020-06-02T16:52:09Z</time>
      </trkpt>
      <trkpt lat="42.764574" lon="0.576172">
        <ele>1795.6</ele>
        <time>2020-06-02T16:52:17Z</time>
      </trkpt>
      <trkpt lat="42.764667" lon="0.576184">
        <ele>1794.7</ele>
        <time>2020-06-02T16:52:24Z</time>
      </trkpt>
      <trkpt lat="42.764761" lon="0.576178">
        <ele>1793.8</ele>
        <time>2020-06-02T16:52:31Z</time>
      </trkpt>
      <trkpt lat="42.764856" lon="0.576180">
        <ele>1793.8</ele>
        <time>2020-06-02T16:52:38Z</time>
      </trkpt>
      <trkpt lat="42.764950" lon="0.576172">
        <ele>1792.9</ele>
        <time>2020-06-02T16:52:45Z</time>
      </trkpt>
      <trkpt lat="42.765045" lon="0.576147">
        <ele>1792.0</ele>
        <time>2020-06-02T16:52:52Z</time>
      </trkpt>
      <trkpt lat="42.765141" lon="0.576120">
        <ele>1792.0</ele>
        <time>2020-06-02T16:52:59Z</time>
      </trkpt>
      <trkpt lat="42.765235" lon="0.576099">
        <ele>1791.2</ele>
        <time>2020-06-02T16:53:06Z</time>
      </trkpt>
      <trkpt lat="42.765331" lon="0.576085">
        <ele>1791.2</ele>
        <time>2020-06-02T16:53:13Z</time>
      </trkpt>
      <trkpt lat="42.765424" lon="0.576088">
        <ele>1790.4</ele>
        <time>2020-06-02T16:53:20Z</time>
      </trkpt>
      <trkpt lat="42.765518" lon="0.576083">
        <ele>1789.6</ele>
        <time>2020-06-02T16:53:27Z</time>
      </trkpt>
      <trkpt lat="42.765610" lon="0.576064">
        <ele>1787.9</ele>
        <time>2020-06-02T16:53:34Z</time>
      </trkpt>
      <trkpt lat="42.765700" lon="0.576032">
        <ele>1786.3</ele>
        <time>2020-06-02T16:53:41Z</time>
      </trkpt>
      <trkpt lat="42.765798" lon="0.576039">
        <ele>1785.3</ele>
        <time>2020-06-02T16:53:48Z</time>
      </trkpt>
      <trkpt lat="42.765898" lon="0.576027">
        <ele>1784.4</ele>
        <time>2020-06-02T16:53:55Z</time>
      </trkpt>
      <trkpt lat="42.765994" lon="0.576027">
        <ele>1783.6</ele>
        <time>2020-06-02T16:54:02Z</time>
      </trkpt>
      <trkpt lat="42.766089" lon="0.576030">
        <ele>1782.6</ele>
        <time>2020-06-02T16:54:09Z</time>
      </trkpt>
      <trkpt lat="42.766181" lon="0.576035">
        <ele>1780.8</ele>
        <time>2020-06-02T16:54:16Z</time>
      </trkpt>
      <trkpt lat="42.766273" lon="0.576059">
        <ele>1780.1</ele>
        <time>2020-06-02T16:54:23Z</time>
      </trkpt>
      <trkpt lat="42.766363" lon="0.576077">
        <ele>1779.1</ele>
        <time>2020-06-02T16:54:30Z</time>
      </trkpt>
      <trkpt lat="42.766458" lon="0.576108">
        <ele>1779.0</ele>
        <time>2020-06-02T16:54:37Z</time>
      </trkpt>
      <trkpt lat="42.766546" lon="0.576149">
        <ele>1779.1</ele>
        <time>2020-06-02T16:54:44Z</time>
      </trkpt>
      <trkpt lat="42.766628" lon="0.576216">
        <ele>1779.1</ele>
        <time>2020-06-02T16:54:53Z</time>
      </trkpt>
      <trkpt lat="42.766713" lon="0.576262">
        <ele>1781.3</ele>
        <time>2020-06-02T16:55:01Z</time>
      </trkpt>
      <trkpt lat="42.766805" lon="0.576259">
        <ele>1782.1</ele>
        <time>2020-06-02T16:55:09Z</time>
      </trkpt>
      <trkpt lat="42.766897" lon="0.576272">
        <ele>1783.0</ele>
        <time>2020-06-02T16:55:17Z</time>
      </trkpt>
      <trkpt lat="42.766991" lon="0.576256">
        <ele>1783.8</ele>
        <time>2020-06-02T16:55:25Z</time>
      </trkpt>
      <trkpt lat="42.767081" lon="0.576216">
        <ele>1783.8</ele>
        <time>2020-06-02T16:55:33Z</time>
      </trkpt>
      <trkpt lat="42.767182" lon="0.576217">
        <ele>1784.7</ele>
        <time>2020-06-02T16:55:41Z</time>
      </trkpt>
      <trkpt lat="42.767252" lon="0.576300">
        <ele>1785.6</ele>
        <time>2020-06-02T16:55:50Z</time>
      </trkpt>
      <trkpt lat="42.767277" lon="0.576417">
        <ele>1787.4</ele>
        <time>2020-06-02T16:56:00Z</time>
      </trkpt>
      <trkpt lat="42.767340" lon="0.576509">
        <ele>1788.3</ele>
        <time>2020-06-02T16:56:09Z</time>
      </trkpt>
      <trkpt lat="42.767409" lon="0.576629">
        <ele>1789.1</ele>
        <time>2020-06-02T16:56:18Z</time>
      </trkpt>
      <trkpt lat="42.767463" lon="0.576680">
        <ele>1790.8</ele>
        <time>2020-06-02T16:56:30Z</time>
      </trkpt>
      <trkpt lat="42.767511" lon="0.576803">
        <ele>1792.4</ele>
        <time>2020-06-02T16:56:46Z</time>
      </trkpt>
      <trkpt lat="42.767534" lon="0.576937">
        <ele>1793.1</ele>
        <time>2020-06-02T16:56:57Z</time>
      </trkpt>
      <trkpt lat="42.767547" lon="0.577052">
        <ele>1793.1</ele>
        <time>2020-06-02T16:57:08Z</time>
      </trkpt>
      <trkpt lat="42.767581" lon="0.577170">
        <ele>1793.1</ele>
        <time>2020-06-02T16:57:19Z</time>
      </trkpt>
      <trkpt lat="42.767600" lon="0.577304">
        <ele>1793.1</ele>
        <time>2020-06-02T16:57:30Z</time>
      </trkpt>
    </trkseg>
  </trk>
</gpx>

